<?xml version="1.0" encoding="UTF-8" standalone="no" ?>
<gpx xmlns="http://www.topografix.com/GPX/1/1" xmlns:xsi="http://www.w3.org/2001/XMLSchema-instance" xsi:schemaLocation="http://www.topografix.com/GPX/1/1 http://www.topografix.com/GPX/1/1/gpx.xsd" version="1.1" creator="VisuGPX - https://www.visugpx.com">
  <metadata>
    <name>25/02/2017 abos</name>
    <desc><![CDATA[sortie sous le soleil.... encore]]></desc>
  </metadata>
  <trk>
    <name><![CDATA[Tracé actuel: 25 FEV 2017 08:08]]></name>
    <trkseg>
      <trkpt lat="43.35221" lon="-0.55322">
        <ele>120.78</ele>
        <time>2017-02-25T07:08:52Z</time>
      </trkpt>
      <trkpt lat="43.35221" lon="-0.55321">
        <ele>120.3</ele>
        <time>2017-02-25T07:09:23Z</time>
      </trkpt>
      <trkpt lat="43.35221" lon="-0.55319">
        <ele>121.74</ele>
        <time>2017-02-25T07:09:37Z</time>
      </trkpt>
      <trkpt lat="43.35221" lon="-0.55272">
        <ele>123.19</ele>
        <time>2017-02-25T07:09:51Z</time>
      </trkpt>
      <trkpt lat="43.35204" lon="-0.55207">
        <ele>123.67</ele>
        <time>2017-02-25T07:10:05Z</time>
      </trkpt>
      <trkpt lat="43.35167" lon="-0.55147">
        <ele>125.59</ele>
        <time>2017-02-25T07:10:20Z</time>
      </trkpt>
      <trkpt lat="43.35161" lon="-0.55139">
        <ele>126.07</ele>
        <time>2017-02-25T07:10:22Z</time>
      </trkpt>
      <trkpt lat="43.35157" lon="-0.55135">
        <ele>126.07</ele>
        <time>2017-02-25T07:10:23Z</time>
      </trkpt>
      <trkpt lat="43.35153" lon="-0.55132">
        <ele>126.07</ele>
        <time>2017-02-25T07:10:24Z</time>
      </trkpt>
      <trkpt lat="43.35149" lon="-0.55129">
        <ele>125.59</ele>
        <time>2017-02-25T07:10:25Z</time>
      </trkpt>
      <trkpt lat="43.35145" lon="-0.55127">
        <ele>126.07</ele>
        <time>2017-02-25T07:10:26Z</time>
      </trkpt>
      <trkpt lat="43.35078" lon="-0.55094">
        <ele>123.67</ele>
        <time>2017-02-25T07:10:41Z</time>
      </trkpt>
      <trkpt lat="43.35043" lon="-0.55077">
        <ele>123.19</ele>
        <time>2017-02-25T07:10:48Z</time>
      </trkpt>
      <trkpt lat="43.35034" lon="-0.55069">
        <ele>122.71</ele>
        <time>2017-02-25T07:10:50Z</time>
      </trkpt>
      <trkpt lat="43.34971" lon="-0.54985">
        <ele>124.15</ele>
        <time>2017-02-25T07:11:07Z</time>
      </trkpt>
      <trkpt lat="43.34949" lon="-0.54941">
        <ele>127.99</ele>
        <time>2017-02-25T07:11:19Z</time>
      </trkpt>
      <trkpt lat="43.34931" lon="-0.54919">
        <ele>129.92</ele>
        <time>2017-02-25T07:11:30Z</time>
      </trkpt>
      <trkpt lat="43.34896" lon="-0.54901">
        <ele>129.43</ele>
        <time>2017-02-25T07:11:40Z</time>
      </trkpt>
      <trkpt lat="43.34862" lon="-0.54894">
        <ele>128.95</ele>
        <time>2017-02-25T07:11:47Z</time>
      </trkpt>
      <trkpt lat="43.34842" lon="-0.5488">
        <ele>128.47</ele>
        <time>2017-02-25T07:11:52Z</time>
      </trkpt>
      <trkpt lat="43.34839" lon="-0.54876">
        <ele>128.47</ele>
        <time>2017-02-25T07:11:53Z</time>
      </trkpt>
      <trkpt lat="43.34836" lon="-0.54871">
        <ele>128.47</ele>
        <time>2017-02-25T07:11:54Z</time>
      </trkpt>
      <trkpt lat="43.34833" lon="-0.54866">
        <ele>128.47</ele>
        <time>2017-02-25T07:11:55Z</time>
      </trkpt>
      <trkpt lat="43.34831" lon="-0.5486">
        <ele>127.99</ele>
        <time>2017-02-25T07:11:56Z</time>
      </trkpt>
      <trkpt lat="43.34829" lon="-0.54853">
        <ele>127.99</ele>
        <time>2017-02-25T07:11:57Z</time>
      </trkpt>
      <trkpt lat="43.34828" lon="-0.54845">
        <ele>127.99</ele>
        <time>2017-02-25T07:11:58Z</time>
      </trkpt>
      <trkpt lat="43.34828" lon="-0.5484">
        <ele>128.47</ele>
        <time>2017-02-25T07:11:59Z</time>
      </trkpt>
      <trkpt lat="43.34828" lon="-0.54835">
        <ele>128.95</ele>
        <time>2017-02-25T07:12:00Z</time>
      </trkpt>
      <trkpt lat="43.34829" lon="-0.54829">
        <ele>129.43</ele>
        <time>2017-02-25T07:12:01Z</time>
      </trkpt>
      <trkpt lat="43.34848" lon="-0.54791">
        <ele>130.4</ele>
        <time>2017-02-25T07:12:12Z</time>
      </trkpt>
      <trkpt lat="43.34867" lon="-0.54775">
        <ele>133.28</ele>
        <time>2017-02-25T07:12:22Z</time>
      </trkpt>
      <trkpt lat="43.34891" lon="-0.54749">
        <ele>135.68</ele>
        <time>2017-02-25T07:12:37Z</time>
      </trkpt>
      <trkpt lat="43.34909" lon="-0.54709">
        <ele>136.64</ele>
        <time>2017-02-25T07:12:52Z</time>
      </trkpt>
      <trkpt lat="43.34925" lon="-0.54662">
        <ele>140.01</ele>
        <time>2017-02-25T07:13:08Z</time>
      </trkpt>
      <trkpt lat="43.34946" lon="-0.54637">
        <ele>143.85</ele>
        <time>2017-02-25T07:13:23Z</time>
      </trkpt>
      <trkpt lat="43.34967" lon="-0.54635">
        <ele>147.7</ele>
        <time>2017-02-25T07:13:38Z</time>
      </trkpt>
      <trkpt lat="43.34988" lon="-0.54638">
        <ele>150.1</ele>
        <time>2017-02-25T07:13:54Z</time>
      </trkpt>
      <trkpt lat="43.34998" lon="-0.5464">
        <ele>151.06</ele>
        <time>2017-02-25T07:14:02Z</time>
      </trkpt>
      <trkpt lat="43.34999" lon="-0.5464">
        <ele>151.54</ele>
        <time>2017-02-25T07:14:03Z</time>
      </trkpt>
      <trkpt lat="43.35021" lon="-0.54646">
        <ele>153.95</ele>
        <time>2017-02-25T07:14:20Z</time>
      </trkpt>
      <trkpt lat="43.35049" lon="-0.5465">
        <ele>156.83</ele>
        <time>2017-02-25T07:14:39Z</time>
      </trkpt>
      <trkpt lat="43.35076" lon="-0.54656">
        <ele>159.72</ele>
        <time>2017-02-25T07:14:55Z</time>
      </trkpt>
      <trkpt lat="43.35078" lon="-0.54656">
        <ele>159.72</ele>
        <time>2017-02-25T07:14:56Z</time>
      </trkpt>
      <trkpt lat="43.35079" lon="-0.54657">
        <ele>160.2</ele>
        <time>2017-02-25T07:14:57Z</time>
      </trkpt>
      <trkpt lat="43.3508" lon="-0.54657">
        <ele>160.2</ele>
        <time>2017-02-25T07:14:58Z</time>
      </trkpt>
      <trkpt lat="43.35085" lon="-0.54658">
        <ele>160.68</ele>
        <time>2017-02-25T07:15:02Z</time>
      </trkpt>
      <trkpt lat="43.35086" lon="-0.54659">
        <ele>160.68</ele>
        <time>2017-02-25T07:15:03Z</time>
      </trkpt>
      <trkpt lat="43.35088" lon="-0.54659">
        <ele>160.68</ele>
        <time>2017-02-25T07:15:04Z</time>
      </trkpt>
      <trkpt lat="43.35089" lon="-0.54659">
        <ele>160.68</ele>
        <time>2017-02-25T07:15:05Z</time>
      </trkpt>
      <trkpt lat="43.3509" lon="-0.54659">
        <ele>160.68</ele>
        <time>2017-02-25T07:15:06Z</time>
      </trkpt>
      <trkpt lat="43.35092" lon="-0.54659">
        <ele>160.68</ele>
        <time>2017-02-25T07:15:07Z</time>
      </trkpt>
      <trkpt lat="43.35094" lon="-0.54658">
        <ele>160.68</ele>
        <time>2017-02-25T07:15:08Z</time>
      </trkpt>
      <trkpt lat="43.35096" lon="-0.54657">
        <ele>161.16</ele>
        <time>2017-02-25T07:15:09Z</time>
      </trkpt>
      <trkpt lat="43.35097" lon="-0.54656">
        <ele>161.16</ele>
        <time>2017-02-25T07:15:10Z</time>
      </trkpt>
      <trkpt lat="43.35117" lon="-0.54635">
        <ele>160.2</ele>
        <time>2017-02-25T07:15:23Z</time>
      </trkpt>
      <trkpt lat="43.35139" lon="-0.54626">
        <ele>161.16</ele>
        <time>2017-02-25T07:15:36Z</time>
      </trkpt>
      <trkpt lat="43.35159" lon="-0.54607">
        <ele>158.75</ele>
        <time>2017-02-25T07:15:49Z</time>
      </trkpt>
      <trkpt lat="43.35167" lon="-0.54585">
        <ele>159.24</ele>
        <time>2017-02-25T07:16:03Z</time>
      </trkpt>
      <trkpt lat="43.35167" lon="-0.54583">
        <ele>159.24</ele>
        <time>2017-02-25T07:16:04Z</time>
      </trkpt>
      <trkpt lat="43.35167" lon="-0.54571">
        <ele>161.64</ele>
        <time>2017-02-25T07:16:10Z</time>
      </trkpt>
      <trkpt lat="43.35167" lon="-0.54569">
        <ele>162.12</ele>
        <time>2017-02-25T07:16:11Z</time>
      </trkpt>
      <trkpt lat="43.35167" lon="-0.54567">
        <ele>162.6</ele>
        <time>2017-02-25T07:16:12Z</time>
      </trkpt>
      <trkpt lat="43.35167" lon="-0.54555">
        <ele>162.6</ele>
        <time>2017-02-25T07:16:18Z</time>
      </trkpt>
      <trkpt lat="43.35167" lon="-0.54552">
        <ele>163.08</ele>
        <time>2017-02-25T07:16:20Z</time>
      </trkpt>
      <trkpt lat="43.35167" lon="-0.54549">
        <ele>163.08</ele>
        <time>2017-02-25T07:16:21Z</time>
      </trkpt>
      <trkpt lat="43.35166" lon="-0.54514">
        <ele>166.45</ele>
        <time>2017-02-25T07:16:37Z</time>
      </trkpt>
      <trkpt lat="43.35165" lon="-0.54486">
        <ele>172.69</ele>
        <time>2017-02-25T07:16:52Z</time>
      </trkpt>
      <trkpt lat="43.35167" lon="-0.54465">
        <ele>176.06</ele>
        <time>2017-02-25T07:17:04Z</time>
      </trkpt>
      <trkpt lat="43.35168" lon="-0.54463">
        <ele>176.06</ele>
        <time>2017-02-25T07:17:05Z</time>
      </trkpt>
      <trkpt lat="43.35168" lon="-0.54461">
        <ele>176.54</ele>
        <time>2017-02-25T07:17:06Z</time>
      </trkpt>
      <trkpt lat="43.3518" lon="-0.54422">
        <ele>177.98</ele>
        <time>2017-02-25T07:17:23Z</time>
      </trkpt>
      <trkpt lat="43.35195" lon="-0.54336">
        <ele>177.02</ele>
        <time>2017-02-25T07:17:42Z</time>
      </trkpt>
      <trkpt lat="43.352" lon="-0.54321">
        <ele>176.54</ele>
        <time>2017-02-25T07:17:45Z</time>
      </trkpt>
      <trkpt lat="43.35201" lon="-0.54315">
        <ele>176.54</ele>
        <time>2017-02-25T07:17:46Z</time>
      </trkpt>
      <trkpt lat="43.35201" lon="-0.54309">
        <ele>176.06</ele>
        <time>2017-02-25T07:17:47Z</time>
      </trkpt>
      <trkpt lat="43.352" lon="-0.54303">
        <ele>176.06</ele>
        <time>2017-02-25T07:17:48Z</time>
      </trkpt>
      <trkpt lat="43.352" lon="-0.54298">
        <ele>176.06</ele>
        <time>2017-02-25T07:17:49Z</time>
      </trkpt>
      <trkpt lat="43.35198" lon="-0.54294">
        <ele>176.06</ele>
        <time>2017-02-25T07:17:50Z</time>
      </trkpt>
      <trkpt lat="43.35186" lon="-0.54234">
        <ele>177.5</ele>
        <time>2017-02-25T07:18:06Z</time>
      </trkpt>
      <trkpt lat="43.35171" lon="-0.54191">
        <ele>180.87</ele>
        <time>2017-02-25T07:18:22Z</time>
      </trkpt>
      <trkpt lat="43.35171" lon="-0.54156">
        <ele>183.75</ele>
        <time>2017-02-25T07:18:38Z</time>
      </trkpt>
      <trkpt lat="43.35177" lon="-0.5413">
        <ele>186.63</ele>
        <time>2017-02-25T07:18:53Z</time>
      </trkpt>
      <trkpt lat="43.35188" lon="-0.54095">
        <ele>190.48</ele>
        <time>2017-02-25T07:19:12Z</time>
      </trkpt>
      <trkpt lat="43.3519" lon="-0.5407">
        <ele>195.28</ele>
        <time>2017-02-25T07:19:27Z</time>
      </trkpt>
      <trkpt lat="43.35172" lon="-0.54053">
        <ele>201.05</ele>
        <time>2017-02-25T07:19:42Z</time>
      </trkpt>
      <trkpt lat="43.35146" lon="-0.54037">
        <ele>202.49</ele>
        <time>2017-02-25T07:19:56Z</time>
      </trkpt>
      <trkpt lat="43.3512" lon="-0.5403">
        <ele>202.98</ele>
        <time>2017-02-25T07:20:08Z</time>
      </trkpt>
      <trkpt lat="43.35104" lon="-0.5402">
        <ele>203.94</ele>
        <time>2017-02-25T07:20:15Z</time>
      </trkpt>
      <trkpt lat="43.35087" lon="-0.53983">
        <ele>202.01</ele>
        <time>2017-02-25T07:20:26Z</time>
      </trkpt>
      <trkpt lat="43.35082" lon="-0.53974">
        <ele>202.01</ele>
        <time>2017-02-25T07:20:28Z</time>
      </trkpt>
      <trkpt lat="43.3508" lon="-0.53969">
        <ele>202.01</ele>
        <time>2017-02-25T07:20:29Z</time>
      </trkpt>
      <trkpt lat="43.35077" lon="-0.53963">
        <ele>202.01</ele>
        <time>2017-02-25T07:20:30Z</time>
      </trkpt>
      <trkpt lat="43.35075" lon="-0.53956">
        <ele>202.01</ele>
        <time>2017-02-25T07:20:31Z</time>
      </trkpt>
      <trkpt lat="43.35074" lon="-0.5395">
        <ele>202.01</ele>
        <time>2017-02-25T07:20:32Z</time>
      </trkpt>
      <trkpt lat="43.35073" lon="-0.53943">
        <ele>201.53</ele>
        <time>2017-02-25T07:20:33Z</time>
      </trkpt>
      <trkpt lat="43.35071" lon="-0.53935">
        <ele>201.53</ele>
        <time>2017-02-25T07:20:34Z</time>
      </trkpt>
      <trkpt lat="43.35071" lon="-0.53929">
        <ele>201.53</ele>
        <time>2017-02-25T07:20:35Z</time>
      </trkpt>
      <trkpt lat="43.35071" lon="-0.53924">
        <ele>201.53</ele>
        <time>2017-02-25T07:20:36Z</time>
      </trkpt>
      <trkpt lat="43.35071" lon="-0.5392">
        <ele>201.53</ele>
        <time>2017-02-25T07:20:37Z</time>
      </trkpt>
      <trkpt lat="43.35073" lon="-0.53893">
        <ele>198.17</ele>
        <time>2017-02-25T07:20:43Z</time>
      </trkpt>
      <trkpt lat="43.35073" lon="-0.53887">
        <ele>197.69</ele>
        <time>2017-02-25T07:20:44Z</time>
      </trkpt>
      <trkpt lat="43.35073" lon="-0.53882">
        <ele>197.21</ele>
        <time>2017-02-25T07:20:45Z</time>
      </trkpt>
      <trkpt lat="43.35074" lon="-0.53876">
        <ele>196.73</ele>
        <time>2017-02-25T07:20:46Z</time>
      </trkpt>
      <trkpt lat="43.35073" lon="-0.53871">
        <ele>195.77</ele>
        <time>2017-02-25T07:20:47Z</time>
      </trkpt>
      <trkpt lat="43.35072" lon="-0.53865">
        <ele>195.28</ele>
        <time>2017-02-25T07:20:48Z</time>
      </trkpt>
      <trkpt lat="43.35071" lon="-0.53859">
        <ele>194.8</ele>
        <time>2017-02-25T07:20:49Z</time>
      </trkpt>
      <trkpt lat="43.35059" lon="-0.53796">
        <ele>190.48</ele>
        <time>2017-02-25T07:20:58Z</time>
      </trkpt>
      <trkpt lat="43.3504" lon="-0.53725">
        <ele>187.11</ele>
        <time>2017-02-25T07:21:06Z</time>
      </trkpt>
      <trkpt lat="43.35036" lon="-0.53724">
        <ele>187.11</ele>
        <time>2017-02-25T07:21:07Z</time>
      </trkpt>
      <trkpt lat="43.35033" lon="-0.53724">
        <ele>186.63</ele>
        <time>2017-02-25T07:21:08Z</time>
      </trkpt>
      <trkpt lat="43.35031" lon="-0.53725">
        <ele>186.63</ele>
        <time>2017-02-25T07:21:09Z</time>
      </trkpt>
      <trkpt lat="43.35028" lon="-0.53727">
        <ele>186.63</ele>
        <time>2017-02-25T07:21:10Z</time>
      </trkpt>
      <trkpt lat="43.35012" lon="-0.5374">
        <ele>185.67</ele>
        <time>2017-02-25T07:21:20Z</time>
      </trkpt>
      <trkpt lat="43.34995" lon="-0.53758">
        <ele>182.79</ele>
        <time>2017-02-25T07:21:30Z</time>
      </trkpt>
      <trkpt lat="43.34982" lon="-0.53773">
        <ele>179.9</ele>
        <time>2017-02-25T07:21:33Z</time>
      </trkpt>
      <trkpt lat="43.34972" lon="-0.53789">
        <ele>176.06</ele>
        <time>2017-02-25T07:21:36Z</time>
      </trkpt>
      <trkpt lat="43.3497" lon="-0.53797">
        <ele>174.62</ele>
        <time>2017-02-25T07:21:37Z</time>
      </trkpt>
      <trkpt lat="43.3497" lon="-0.53806">
        <ele>174.14</ele>
        <time>2017-02-25T07:21:38Z</time>
      </trkpt>
      <trkpt lat="43.34971" lon="-0.53816">
        <ele>173.17</ele>
        <time>2017-02-25T07:21:39Z</time>
      </trkpt>
      <trkpt lat="43.34971" lon="-0.53826">
        <ele>172.69</ele>
        <time>2017-02-25T07:21:40Z</time>
      </trkpt>
      <trkpt lat="43.34972" lon="-0.53835">
        <ele>171.73</ele>
        <time>2017-02-25T07:21:41Z</time>
      </trkpt>
      <trkpt lat="43.34976" lon="-0.53913">
        <ele>172.21</ele>
        <time>2017-02-25T07:21:52Z</time>
      </trkpt>
      <trkpt lat="43.34986" lon="-0.53951">
        <ele>173.66</ele>
        <time>2017-02-25T07:21:58Z</time>
      </trkpt>
      <trkpt lat="43.34988" lon="-0.53957">
        <ele>173.66</ele>
        <time>2017-02-25T07:21:59Z</time>
      </trkpt>
      <trkpt lat="43.34991" lon="-0.53969">
        <ele>174.14</ele>
        <time>2017-02-25T07:22:01Z</time>
      </trkpt>
      <trkpt lat="43.34993" lon="-0.53976">
        <ele>174.14</ele>
        <time>2017-02-25T07:22:02Z</time>
      </trkpt>
      <trkpt lat="43.34995" lon="-0.53983">
        <ele>174.62</ele>
        <time>2017-02-25T07:22:03Z</time>
      </trkpt>
      <trkpt lat="43.34997" lon="-0.53989">
        <ele>174.14</ele>
        <time>2017-02-25T07:22:04Z</time>
      </trkpt>
      <trkpt lat="43.34998" lon="-0.53996">
        <ele>174.14</ele>
        <time>2017-02-25T07:22:05Z</time>
      </trkpt>
      <trkpt lat="43.35" lon="-0.54004">
        <ele>174.14</ele>
        <time>2017-02-25T07:22:06Z</time>
      </trkpt>
      <trkpt lat="43.35001" lon="-0.54012">
        <ele>174.14</ele>
        <time>2017-02-25T07:22:07Z</time>
      </trkpt>
      <trkpt lat="43.35001" lon="-0.5402">
        <ele>173.66</ele>
        <time>2017-02-25T07:22:08Z</time>
      </trkpt>
      <trkpt lat="43.35001" lon="-0.54029">
        <ele>173.66</ele>
        <time>2017-02-25T07:22:09Z</time>
      </trkpt>
      <trkpt lat="43.35" lon="-0.54037">
        <ele>173.66</ele>
        <time>2017-02-25T07:22:10Z</time>
      </trkpt>
      <trkpt lat="43.34998" lon="-0.54045">
        <ele>173.66</ele>
        <time>2017-02-25T07:22:11Z</time>
      </trkpt>
      <trkpt lat="43.34995" lon="-0.54053">
        <ele>174.14</ele>
        <time>2017-02-25T07:22:12Z</time>
      </trkpt>
      <trkpt lat="43.34992" lon="-0.5407">
        <ele>174.14</ele>
        <time>2017-02-25T07:22:14Z</time>
      </trkpt>
      <trkpt lat="43.34987" lon="-0.54132">
        <ele>174.14</ele>
        <time>2017-02-25T07:22:21Z</time>
      </trkpt>
      <trkpt lat="43.34988" lon="-0.54148">
        <ele>174.14</ele>
        <time>2017-02-25T07:22:23Z</time>
      </trkpt>
      <trkpt lat="43.34989" lon="-0.54157">
        <ele>174.14</ele>
        <time>2017-02-25T07:22:24Z</time>
      </trkpt>
      <trkpt lat="43.34991" lon="-0.54165">
        <ele>174.62</ele>
        <time>2017-02-25T07:22:25Z</time>
      </trkpt>
      <trkpt lat="43.34993" lon="-0.54173">
        <ele>174.62</ele>
        <time>2017-02-25T07:22:26Z</time>
      </trkpt>
      <trkpt lat="43.34996" lon="-0.54181">
        <ele>174.62</ele>
        <time>2017-02-25T07:22:27Z</time>
      </trkpt>
      <trkpt lat="43.35001" lon="-0.54196">
        <ele>173.66</ele>
        <time>2017-02-25T07:22:29Z</time>
      </trkpt>
      <trkpt lat="43.35006" lon="-0.54214">
        <ele>172.69</ele>
        <time>2017-02-25T07:22:31Z</time>
      </trkpt>
      <trkpt lat="43.35006" lon="-0.54223">
        <ele>171.73</ele>
        <time>2017-02-25T07:22:32Z</time>
      </trkpt>
      <trkpt lat="43.35005" lon="-0.54231">
        <ele>170.77</ele>
        <time>2017-02-25T07:22:33Z</time>
      </trkpt>
      <trkpt lat="43.35002" lon="-0.54239">
        <ele>170.29</ele>
        <time>2017-02-25T07:22:34Z</time>
      </trkpt>
      <trkpt lat="43.34998" lon="-0.54246">
        <ele>169.33</ele>
        <time>2017-02-25T07:22:35Z</time>
      </trkpt>
      <trkpt lat="43.34993" lon="-0.54253">
        <ele>168.37</ele>
        <time>2017-02-25T07:22:36Z</time>
      </trkpt>
      <trkpt lat="43.34986" lon="-0.5426">
        <ele>167.41</ele>
        <time>2017-02-25T07:22:37Z</time>
      </trkpt>
      <trkpt lat="43.34917" lon="-0.54348">
        <ele>159.24</ele>
        <time>2017-02-25T07:22:47Z</time>
      </trkpt>
      <trkpt lat="43.34903" lon="-0.54364">
        <ele>158.75</ele>
        <time>2017-02-25T07:22:49Z</time>
      </trkpt>
      <trkpt lat="43.34896" lon="-0.54369">
        <ele>158.27</ele>
        <time>2017-02-25T07:22:50Z</time>
      </trkpt>
      <trkpt lat="43.34889" lon="-0.54371">
        <ele>158.27</ele>
        <time>2017-02-25T07:22:51Z</time>
      </trkpt>
      <trkpt lat="43.34874" lon="-0.54374">
        <ele>157.31</ele>
        <time>2017-02-25T07:22:53Z</time>
      </trkpt>
      <trkpt lat="43.34866" lon="-0.54376">
        <ele>156.83</ele>
        <time>2017-02-25T07:22:54Z</time>
      </trkpt>
      <trkpt lat="43.34859" lon="-0.5438">
        <ele>156.35</ele>
        <time>2017-02-25T07:22:55Z</time>
      </trkpt>
      <trkpt lat="43.34852" lon="-0.54386">
        <ele>155.87</ele>
        <time>2017-02-25T07:22:56Z</time>
      </trkpt>
      <trkpt lat="43.34845" lon="-0.54392">
        <ele>155.87</ele>
        <time>2017-02-25T07:22:57Z</time>
      </trkpt>
      <trkpt lat="43.34839" lon="-0.54398">
        <ele>155.39</ele>
        <time>2017-02-25T07:22:58Z</time>
      </trkpt>
      <trkpt lat="43.34768" lon="-0.5448">
        <ele>150.1</ele>
        <time>2017-02-25T07:23:10Z</time>
      </trkpt>
      <trkpt lat="43.34688" lon="-0.54574">
        <ele>141.45</ele>
        <time>2017-02-25T07:23:21Z</time>
      </trkpt>
      <trkpt lat="43.34657" lon="-0.54616">
        <ele>137.13</ele>
        <time>2017-02-25T07:23:28Z</time>
      </trkpt>
      <trkpt lat="43.34654" lon="-0.54621">
        <ele>136.64</ele>
        <time>2017-02-25T07:23:30Z</time>
      </trkpt>
      <trkpt lat="43.34653" lon="-0.54621">
        <ele>136.16</ele>
        <time>2017-02-25T07:23:31Z</time>
      </trkpt>
      <trkpt lat="43.34651" lon="-0.5462">
        <ele>136.16</ele>
        <time>2017-02-25T07:23:32Z</time>
      </trkpt>
      <trkpt lat="43.3465" lon="-0.54618">
        <ele>135.68</ele>
        <time>2017-02-25T07:23:33Z</time>
      </trkpt>
      <trkpt lat="43.3465" lon="-0.54615">
        <ele>135.68</ele>
        <time>2017-02-25T07:23:34Z</time>
      </trkpt>
      <trkpt lat="43.34651" lon="-0.54612">
        <ele>135.2</ele>
        <time>2017-02-25T07:23:35Z</time>
      </trkpt>
      <trkpt lat="43.34652" lon="-0.54607">
        <ele>134.72</ele>
        <time>2017-02-25T07:23:36Z</time>
      </trkpt>
      <trkpt lat="43.34657" lon="-0.54576">
        <ele>132.8</ele>
        <time>2017-02-25T07:23:42Z</time>
      </trkpt>
      <trkpt lat="43.34658" lon="-0.5457">
        <ele>132.32</ele>
        <time>2017-02-25T07:23:43Z</time>
      </trkpt>
      <trkpt lat="43.34659" lon="-0.54564">
        <ele>132.32</ele>
        <time>2017-02-25T07:23:44Z</time>
      </trkpt>
      <trkpt lat="43.3466" lon="-0.54558">
        <ele>131.84</ele>
        <time>2017-02-25T07:23:45Z</time>
      </trkpt>
      <trkpt lat="43.34661" lon="-0.54552">
        <ele>131.36</ele>
        <time>2017-02-25T07:23:46Z</time>
      </trkpt>
      <trkpt lat="43.34665" lon="-0.54521">
        <ele>130.4</ele>
        <time>2017-02-25T07:23:51Z</time>
      </trkpt>
      <trkpt lat="43.34666" lon="-0.54515">
        <ele>129.92</ele>
        <time>2017-02-25T07:23:52Z</time>
      </trkpt>
      <trkpt lat="43.34679" lon="-0.54427">
        <ele>124.15</ele>
        <time>2017-02-25T07:24:04Z</time>
      </trkpt>
      <trkpt lat="43.34679" lon="-0.54419">
        <ele>124.15</ele>
        <time>2017-02-25T07:24:05Z</time>
      </trkpt>
      <trkpt lat="43.34679" lon="-0.54411">
        <ele>124.63</ele>
        <time>2017-02-25T07:24:06Z</time>
      </trkpt>
      <trkpt lat="43.34678" lon="-0.54405">
        <ele>124.15</ele>
        <time>2017-02-25T07:24:07Z</time>
      </trkpt>
      <trkpt lat="43.3468" lon="-0.54369">
        <ele>128.47</ele>
        <time>2017-02-25T07:24:17Z</time>
      </trkpt>
      <trkpt lat="43.34685" lon="-0.54343">
        <ele>133.28</ele>
        <time>2017-02-25T07:24:30Z</time>
      </trkpt>
      <trkpt lat="43.34686" lon="-0.54341">
        <ele>134.24</ele>
        <time>2017-02-25T07:24:31Z</time>
      </trkpt>
      <trkpt lat="43.34686" lon="-0.54339">
        <ele>135.2</ele>
        <time>2017-02-25T07:24:32Z</time>
      </trkpt>
      <trkpt lat="43.34693" lon="-0.54307">
        <ele>142.89</ele>
        <time>2017-02-25T07:24:48Z</time>
      </trkpt>
      <trkpt lat="43.34694" lon="-0.54305">
        <ele>143.37</ele>
        <time>2017-02-25T07:24:49Z</time>
      </trkpt>
      <trkpt lat="43.34694" lon="-0.54303">
        <ele>143.85</ele>
        <time>2017-02-25T07:24:50Z</time>
      </trkpt>
      <trkpt lat="43.347" lon="-0.54279">
        <ele>148.66</ele>
        <time>2017-02-25T07:25:05Z</time>
      </trkpt>
      <trkpt lat="43.34702" lon="-0.54265">
        <ele>150.58</ele>
        <time>2017-02-25T07:25:12Z</time>
      </trkpt>
      <trkpt lat="43.34708" lon="-0.54237">
        <ele>153.95</ele>
        <time>2017-02-25T07:25:27Z</time>
      </trkpt>
      <trkpt lat="43.34708" lon="-0.54224">
        <ele>153.95</ele>
        <time>2017-02-25T07:25:33Z</time>
      </trkpt>
      <trkpt lat="43.34708" lon="-0.54221">
        <ele>153.95</ele>
        <time>2017-02-25T07:25:34Z</time>
      </trkpt>
      <trkpt lat="43.34708" lon="-0.54219">
        <ele>153.95</ele>
        <time>2017-02-25T07:25:35Z</time>
      </trkpt>
      <trkpt lat="43.34708" lon="-0.54217">
        <ele>153.95</ele>
        <time>2017-02-25T07:25:36Z</time>
      </trkpt>
      <trkpt lat="43.34707" lon="-0.54216">
        <ele>153.47</ele>
        <time>2017-02-25T07:25:37Z</time>
      </trkpt>
      <trkpt lat="43.34706" lon="-0.54215">
        <ele>153.47</ele>
        <time>2017-02-25T07:25:38Z</time>
      </trkpt>
      <trkpt lat="43.34705" lon="-0.54214">
        <ele>153.95</ele>
        <time>2017-02-25T07:25:39Z</time>
      </trkpt>
      <trkpt lat="43.34703" lon="-0.54213">
        <ele>153.95</ele>
        <time>2017-02-25T07:25:40Z</time>
      </trkpt>
      <trkpt lat="43.34702" lon="-0.54213">
        <ele>153.95</ele>
        <time>2017-02-25T07:25:41Z</time>
      </trkpt>
      <trkpt lat="43.347" lon="-0.54213">
        <ele>153.95</ele>
        <time>2017-02-25T07:25:42Z</time>
      </trkpt>
      <trkpt lat="43.34681" lon="-0.5422">
        <ele>157.79</ele>
        <time>2017-02-25T07:25:56Z</time>
      </trkpt>
      <trkpt lat="43.34673" lon="-0.54224">
        <ele>159.24</ele>
        <time>2017-02-25T07:26:02Z</time>
      </trkpt>
      <trkpt lat="43.34671" lon="-0.54226">
        <ele>159.72</ele>
        <time>2017-02-25T07:26:04Z</time>
      </trkpt>
      <trkpt lat="43.34652" lon="-0.54233">
        <ele>162.6</ele>
        <time>2017-02-25T07:26:18Z</time>
      </trkpt>
      <trkpt lat="43.34632" lon="-0.54244">
        <ele>166.93</ele>
        <time>2017-02-25T07:26:34Z</time>
      </trkpt>
      <trkpt lat="43.3463" lon="-0.54245">
        <ele>167.41</ele>
        <time>2017-02-25T07:26:35Z</time>
      </trkpt>
      <trkpt lat="43.34629" lon="-0.54246">
        <ele>167.89</ele>
        <time>2017-02-25T07:26:36Z</time>
      </trkpt>
      <trkpt lat="43.34628" lon="-0.54246">
        <ele>168.37</ele>
        <time>2017-02-25T07:26:37Z</time>
      </trkpt>
      <trkpt lat="43.34626" lon="-0.54247">
        <ele>168.85</ele>
        <time>2017-02-25T07:26:38Z</time>
      </trkpt>
      <trkpt lat="43.34625" lon="-0.54247">
        <ele>169.33</ele>
        <time>2017-02-25T07:26:39Z</time>
      </trkpt>
      <trkpt lat="43.34624" lon="-0.54248">
        <ele>169.81</ele>
        <time>2017-02-25T07:26:40Z</time>
      </trkpt>
      <trkpt lat="43.34622" lon="-0.54249">
        <ele>170.29</ele>
        <time>2017-02-25T07:26:41Z</time>
      </trkpt>
      <trkpt lat="43.34621" lon="-0.5425">
        <ele>170.29</ele>
        <time>2017-02-25T07:26:42Z</time>
      </trkpt>
      <trkpt lat="43.3462" lon="-0.54251">
        <ele>170.77</ele>
        <time>2017-02-25T07:26:43Z</time>
      </trkpt>
      <trkpt lat="43.34619" lon="-0.54252">
        <ele>171.25</ele>
        <time>2017-02-25T07:26:44Z</time>
      </trkpt>
      <trkpt lat="43.34597" lon="-0.54259">
        <ele>174.14</ele>
        <time>2017-02-25T07:26:58Z</time>
      </trkpt>
      <trkpt lat="43.34574" lon="-0.54252">
        <ele>173.17</ele>
        <time>2017-02-25T07:27:11Z</time>
      </trkpt>
      <trkpt lat="43.34554" lon="-0.54235">
        <ele>172.21</ele>
        <time>2017-02-25T07:27:24Z</time>
      </trkpt>
      <trkpt lat="43.34561" lon="-0.54206">
        <ele>171.25</ele>
        <time>2017-02-25T07:27:39Z</time>
      </trkpt>
      <trkpt lat="43.34577" lon="-0.54182">
        <ele>168.37</ele>
        <time>2017-02-25T07:27:55Z</time>
      </trkpt>
      <trkpt lat="43.34571" lon="-0.5416">
        <ele>169.33</ele>
        <time>2017-02-25T07:28:07Z</time>
      </trkpt>
      <trkpt lat="43.34568" lon="-0.54157">
        <ele>169.81</ele>
        <time>2017-02-25T07:28:10Z</time>
      </trkpt>
      <trkpt lat="43.34566" lon="-0.54156">
        <ele>170.29</ele>
        <time>2017-02-25T07:28:11Z</time>
      </trkpt>
      <trkpt lat="43.34565" lon="-0.54155">
        <ele>170.29</ele>
        <time>2017-02-25T07:28:12Z</time>
      </trkpt>
      <trkpt lat="43.34561" lon="-0.5415">
        <ele>171.25</ele>
        <time>2017-02-25T07:28:16Z</time>
      </trkpt>
      <trkpt lat="43.3456" lon="-0.54149">
        <ele>171.73</ele>
        <time>2017-02-25T07:28:17Z</time>
      </trkpt>
      <trkpt lat="43.34538" lon="-0.54131">
        <ele>177.02</ele>
        <time>2017-02-25T07:28:33Z</time>
      </trkpt>
      <trkpt lat="43.34515" lon="-0.5412">
        <ele>180.87</ele>
        <time>2017-02-25T07:28:47Z</time>
      </trkpt>
      <trkpt lat="43.34483" lon="-0.54105">
        <ele>184.71</ele>
        <time>2017-02-25T07:29:02Z</time>
      </trkpt>
      <trkpt lat="43.34468" lon="-0.54091">
        <ele>188.56</ele>
        <time>2017-02-25T07:29:14Z</time>
      </trkpt>
      <trkpt lat="43.34464" lon="-0.54087">
        <ele>190.48</ele>
        <time>2017-02-25T07:29:18Z</time>
      </trkpt>
      <trkpt lat="43.34457" lon="-0.54077">
        <ele>191.92</ele>
        <time>2017-02-25T07:29:25Z</time>
      </trkpt>
      <trkpt lat="43.34458" lon="-0.54075">
        <ele>191.92</ele>
        <time>2017-02-25T07:29:26Z</time>
      </trkpt>
      <trkpt lat="43.3446" lon="-0.54071">
        <ele>191.92</ele>
        <time>2017-02-25T07:29:30Z</time>
      </trkpt>
      <trkpt lat="43.34461" lon="-0.54071">
        <ele>191.44</ele>
        <time>2017-02-25T07:29:31Z</time>
      </trkpt>
      <trkpt lat="43.34463" lon="-0.54071">
        <ele>191.44</ele>
        <time>2017-02-25T07:29:32Z</time>
      </trkpt>
      <trkpt lat="43.34464" lon="-0.5407">
        <ele>191.44</ele>
        <time>2017-02-25T07:29:33Z</time>
      </trkpt>
      <trkpt lat="43.34478" lon="-0.54061">
        <ele>190.48</ele>
        <time>2017-02-25T07:29:46Z</time>
      </trkpt>
      <trkpt lat="43.34487" lon="-0.54054">
        <ele>190.96</ele>
        <time>2017-02-25T07:29:53Z</time>
      </trkpt>
      <trkpt lat="43.34489" lon="-0.54054">
        <ele>190.96</ele>
        <time>2017-02-25T07:29:54Z</time>
      </trkpt>
      <trkpt lat="43.3449" lon="-0.54053">
        <ele>190.96</ele>
        <time>2017-02-25T07:29:55Z</time>
      </trkpt>
      <trkpt lat="43.34491" lon="-0.54052">
        <ele>191.44</ele>
        <time>2017-02-25T07:29:56Z</time>
      </trkpt>
      <trkpt lat="43.34492" lon="-0.54051">
        <ele>191.44</ele>
        <time>2017-02-25T07:29:57Z</time>
      </trkpt>
      <trkpt lat="43.34494" lon="-0.5405">
        <ele>191.44</ele>
        <time>2017-02-25T07:29:58Z</time>
      </trkpt>
      <trkpt lat="43.34494" lon="-0.54049">
        <ele>190.96</ele>
        <time>2017-02-25T07:29:59Z</time>
      </trkpt>
      <trkpt lat="43.34495" lon="-0.54047">
        <ele>191.44</ele>
        <time>2017-02-25T07:30:00Z</time>
      </trkpt>
      <trkpt lat="43.34496" lon="-0.54046">
        <ele>191.44</ele>
        <time>2017-02-25T07:30:01Z</time>
      </trkpt>
      <trkpt lat="43.34512" lon="-0.54031">
        <ele>192.88</ele>
        <time>2017-02-25T07:30:16Z</time>
      </trkpt>
      <trkpt lat="43.34526" lon="-0.54009">
        <ele>195.77</ele>
        <time>2017-02-25T07:30:31Z</time>
      </trkpt>
      <trkpt lat="43.34531" lon="-0.53975">
        <ele>199.13</ele>
        <time>2017-02-25T07:30:47Z</time>
      </trkpt>
      <trkpt lat="43.3453" lon="-0.53949">
        <ele>201.05</ele>
        <time>2017-02-25T07:31:02Z</time>
      </trkpt>
      <trkpt lat="43.34528" lon="-0.53944">
        <ele>201.53</ele>
        <time>2017-02-25T07:31:05Z</time>
      </trkpt>
      <trkpt lat="43.34528" lon="-0.53942">
        <ele>201.53</ele>
        <time>2017-02-25T07:31:06Z</time>
      </trkpt>
      <trkpt lat="43.34524" lon="-0.53921">
        <ele>205.86</ele>
        <time>2017-02-25T07:31:19Z</time>
      </trkpt>
      <trkpt lat="43.34519" lon="-0.53893">
        <ele>209.22</ele>
        <time>2017-02-25T07:31:34Z</time>
      </trkpt>
      <trkpt lat="43.34516" lon="-0.53865">
        <ele>206.82</ele>
        <time>2017-02-25T07:31:47Z</time>
      </trkpt>
      <trkpt lat="43.34513" lon="-0.53863">
        <ele>205.86</ele>
        <time>2017-02-25T07:31:57Z</time>
      </trkpt>
      <trkpt lat="43.34508" lon="-0.5387">
        <ele>206.34</ele>
        <time>2017-02-25T07:32:24Z</time>
      </trkpt>
      <trkpt lat="43.3451" lon="-0.53866">
        <ele>207.78</ele>
        <time>2017-02-25T07:32:48Z</time>
      </trkpt>
      <trkpt lat="43.34509" lon="-0.53867">
        <ele>211.15</ele>
        <time>2017-02-25T07:33:19Z</time>
      </trkpt>
      <trkpt lat="43.34508" lon="-0.53874">
        <ele>214.03</ele>
        <time>2017-02-25T07:33:55Z</time>
      </trkpt>
      <trkpt lat="43.34507" lon="-0.53869">
        <ele>210.67</ele>
        <time>2017-02-25T07:34:29Z</time>
      </trkpt>
      <trkpt lat="43.34509" lon="-0.53872">
        <ele>209.7</ele>
        <time>2017-02-25T07:34:59Z</time>
      </trkpt>
      <trkpt lat="43.34506" lon="-0.5387">
        <ele>207.3</ele>
        <time>2017-02-25T07:35:24Z</time>
      </trkpt>
      <trkpt lat="43.34505" lon="-0.53866">
        <ele>210.67</ele>
        <time>2017-02-25T07:35:54Z</time>
      </trkpt>
      <trkpt lat="43.34505" lon="-0.53865">
        <ele>210.67</ele>
        <time>2017-02-25T07:36:18Z</time>
      </trkpt>
      <trkpt lat="43.34506" lon="-0.53865">
        <ele>212.59</ele>
        <time>2017-02-25T07:36:44Z</time>
      </trkpt>
      <trkpt lat="43.34506" lon="-0.53868">
        <ele>212.11</ele>
        <time>2017-02-25T07:37:15Z</time>
      </trkpt>
      <trkpt lat="43.34505" lon="-0.53862">
        <ele>213.07</ele>
        <time>2017-02-25T07:37:52Z</time>
      </trkpt>
      <trkpt lat="43.34505" lon="-0.53861">
        <ele>206.34</ele>
        <time>2017-02-25T07:38:21Z</time>
      </trkpt>
      <trkpt lat="43.34508" lon="-0.53864">
        <ele>208.74</ele>
        <time>2017-02-25T07:38:51Z</time>
      </trkpt>
      <trkpt lat="43.34507" lon="-0.53869">
        <ele>208.74</ele>
        <time>2017-02-25T07:39:32Z</time>
      </trkpt>
      <trkpt lat="43.34506" lon="-0.53869">
        <ele>205.38</ele>
        <time>2017-02-25T07:40:12Z</time>
      </trkpt>
      <trkpt lat="43.34505" lon="-0.53865">
        <ele>207.3</ele>
        <time>2017-02-25T07:40:59Z</time>
      </trkpt>
      <trkpt lat="43.34508" lon="-0.53865">
        <ele>209.7</ele>
        <time>2017-02-25T07:41:34Z</time>
      </trkpt>
      <trkpt lat="43.34504" lon="-0.53855">
        <ele>212.11</ele>
        <time>2017-02-25T07:42:20Z</time>
      </trkpt>
      <trkpt lat="43.34509" lon="-0.53861">
        <ele>213.07</ele>
        <time>2017-02-25T07:42:35Z</time>
      </trkpt>
      <trkpt lat="43.34514" lon="-0.53862">
        <ele>214.99</ele>
        <time>2017-02-25T07:42:56Z</time>
      </trkpt>
      <trkpt lat="43.34508" lon="-0.53863">
        <ele>213.07</ele>
        <time>2017-02-25T07:43:14Z</time>
      </trkpt>
      <trkpt lat="43.34505" lon="-0.53866">
        <ele>216.91</ele>
        <time>2017-02-25T07:43:55Z</time>
      </trkpt>
      <trkpt lat="43.34504" lon="-0.53865">
        <ele>223.16</ele>
        <time>2017-02-25T07:44:29Z</time>
      </trkpt>
      <trkpt lat="43.345" lon="-0.53862">
        <ele>218.84</ele>
        <time>2017-02-25T07:45:04Z</time>
      </trkpt>
      <trkpt lat="43.34498" lon="-0.53866">
        <ele>219.8</ele>
        <time>2017-02-25T07:45:49Z</time>
      </trkpt>
      <trkpt lat="43.345" lon="-0.53866">
        <ele>222.68</ele>
        <time>2017-02-25T07:46:30Z</time>
      </trkpt>
      <trkpt lat="43.34502" lon="-0.53862">
        <ele>221.72</ele>
        <time>2017-02-25T07:46:38Z</time>
      </trkpt>
      <trkpt lat="43.34503" lon="-0.5386">
        <ele>221.72</ele>
        <time>2017-02-25T07:46:39Z</time>
      </trkpt>
      <trkpt lat="43.34516" lon="-0.53816">
        <ele>216.43</ele>
        <time>2017-02-25T07:46:53Z</time>
      </trkpt>
      <trkpt lat="43.34525" lon="-0.53766">
        <ele>216.43</ele>
        <time>2017-02-25T07:47:07Z</time>
      </trkpt>
      <trkpt lat="43.34527" lon="-0.53746">
        <ele>215.47</ele>
        <time>2017-02-25T07:47:14Z</time>
      </trkpt>
      <trkpt lat="43.34526" lon="-0.53743">
        <ele>215.47</ele>
        <time>2017-02-25T07:47:15Z</time>
      </trkpt>
      <trkpt lat="43.34527" lon="-0.5374">
        <ele>214.99</ele>
        <time>2017-02-25T07:47:16Z</time>
      </trkpt>
      <trkpt lat="43.34527" lon="-0.53737">
        <ele>215.47</ele>
        <time>2017-02-25T07:47:17Z</time>
      </trkpt>
      <trkpt lat="43.34527" lon="-0.53733">
        <ele>215.47</ele>
        <time>2017-02-25T07:47:18Z</time>
      </trkpt>
      <trkpt lat="43.34528" lon="-0.5373">
        <ele>215.95</ele>
        <time>2017-02-25T07:47:19Z</time>
      </trkpt>
      <trkpt lat="43.34528" lon="-0.53726">
        <ele>215.95</ele>
        <time>2017-02-25T07:47:20Z</time>
      </trkpt>
      <trkpt lat="43.34528" lon="-0.53723">
        <ele>215.95</ele>
        <time>2017-02-25T07:47:21Z</time>
      </trkpt>
      <trkpt lat="43.34531" lon="-0.53688">
        <ele>216.91</ele>
        <time>2017-02-25T07:47:31Z</time>
      </trkpt>
      <trkpt lat="43.34535" lon="-0.53648">
        <ele>220.28</ele>
        <time>2017-02-25T07:47:44Z</time>
      </trkpt>
      <trkpt lat="43.34537" lon="-0.53637">
        <ele>220.28</ele>
        <time>2017-02-25T07:47:48Z</time>
      </trkpt>
      <trkpt lat="43.34534" lon="-0.53606">
        <ele>218.84</ele>
        <time>2017-02-25T07:47:55Z</time>
      </trkpt>
      <trkpt lat="43.34534" lon="-0.536">
        <ele>218.36</ele>
        <time>2017-02-25T07:47:56Z</time>
      </trkpt>
      <trkpt lat="43.34535" lon="-0.53539">
        <ele>216.43</ele>
        <time>2017-02-25T07:48:07Z</time>
      </trkpt>
      <trkpt lat="43.3453" lon="-0.53484">
        <ele>215.47</ele>
        <time>2017-02-25T07:48:18Z</time>
      </trkpt>
      <trkpt lat="43.34511" lon="-0.53433">
        <ele>213.07</ele>
        <time>2017-02-25T07:48:28Z</time>
      </trkpt>
      <trkpt lat="43.34499" lon="-0.53383">
        <ele>211.63</ele>
        <time>2017-02-25T07:48:41Z</time>
      </trkpt>
      <trkpt lat="43.34496" lon="-0.53371">
        <ele>214.51</ele>
        <time>2017-02-25T07:48:45Z</time>
      </trkpt>
      <trkpt lat="43.34496" lon="-0.53368">
        <ele>215.95</ele>
        <time>2017-02-25T07:48:46Z</time>
      </trkpt>
      <trkpt lat="43.34496" lon="-0.53366">
        <ele>216.91</ele>
        <time>2017-02-25T07:48:47Z</time>
      </trkpt>
      <trkpt lat="43.34496" lon="-0.53363">
        <ele>217.88</ele>
        <time>2017-02-25T07:48:48Z</time>
      </trkpt>
      <trkpt lat="43.34496" lon="-0.53361">
        <ele>218.84</ele>
        <time>2017-02-25T07:48:49Z</time>
      </trkpt>
      <trkpt lat="43.34496" lon="-0.53358">
        <ele>219.32</ele>
        <time>2017-02-25T07:48:50Z</time>
      </trkpt>
      <trkpt lat="43.34496" lon="-0.53355">
        <ele>219.32</ele>
        <time>2017-02-25T07:48:51Z</time>
      </trkpt>
      <trkpt lat="43.34496" lon="-0.53352">
        <ele>219.32</ele>
        <time>2017-02-25T07:48:52Z</time>
      </trkpt>
      <trkpt lat="43.34495" lon="-0.53328">
        <ele>221.72</ele>
        <time>2017-02-25T07:49:01Z</time>
      </trkpt>
      <trkpt lat="43.34494" lon="-0.53324">
        <ele>221.72</ele>
        <time>2017-02-25T07:49:02Z</time>
      </trkpt>
      <trkpt lat="43.34492" lon="-0.5332">
        <ele>221.72</ele>
        <time>2017-02-25T07:49:03Z</time>
      </trkpt>
      <trkpt lat="43.3449" lon="-0.53315">
        <ele>221.24</ele>
        <time>2017-02-25T07:49:04Z</time>
      </trkpt>
      <trkpt lat="43.34488" lon="-0.53311">
        <ele>220.76</ele>
        <time>2017-02-25T07:49:05Z</time>
      </trkpt>
      <trkpt lat="43.34485" lon="-0.53307">
        <ele>220.76</ele>
        <time>2017-02-25T07:49:06Z</time>
      </trkpt>
      <trkpt lat="43.34465" lon="-0.53256">
        <ele>217.88</ele>
        <time>2017-02-25T07:49:16Z</time>
      </trkpt>
      <trkpt lat="43.34459" lon="-0.53245">
        <ele>217.88</ele>
        <time>2017-02-25T07:49:18Z</time>
      </trkpt>
      <trkpt lat="43.34452" lon="-0.53228">
        <ele>216.43</ele>
        <time>2017-02-25T07:49:21Z</time>
      </trkpt>
      <trkpt lat="43.3445" lon="-0.53221">
        <ele>215.95</ele>
        <time>2017-02-25T07:49:22Z</time>
      </trkpt>
      <trkpt lat="43.34444" lon="-0.53202">
        <ele>214.51</ele>
        <time>2017-02-25T07:49:25Z</time>
      </trkpt>
      <trkpt lat="43.34443" lon="-0.53196">
        <ele>213.55</ele>
        <time>2017-02-25T07:49:26Z</time>
      </trkpt>
      <trkpt lat="43.34442" lon="-0.5319">
        <ele>213.07</ele>
        <time>2017-02-25T07:49:27Z</time>
      </trkpt>
      <trkpt lat="43.3444" lon="-0.53183">
        <ele>213.07</ele>
        <time>2017-02-25T07:49:28Z</time>
      </trkpt>
      <trkpt lat="43.34439" lon="-0.53177">
        <ele>213.07</ele>
        <time>2017-02-25T07:49:29Z</time>
      </trkpt>
      <trkpt lat="43.34438" lon="-0.53172">
        <ele>213.07</ele>
        <time>2017-02-25T07:49:30Z</time>
      </trkpt>
      <trkpt lat="43.34437" lon="-0.53167">
        <ele>212.59</ele>
        <time>2017-02-25T07:49:31Z</time>
      </trkpt>
      <trkpt lat="43.34435" lon="-0.53162">
        <ele>213.07</ele>
        <time>2017-02-25T07:49:32Z</time>
      </trkpt>
      <trkpt lat="43.3443" lon="-0.53106">
        <ele>215.95</ele>
        <time>2017-02-25T07:49:43Z</time>
      </trkpt>
      <trkpt lat="43.34425" lon="-0.53069">
        <ele>216.91</ele>
        <time>2017-02-25T07:49:51Z</time>
      </trkpt>
      <trkpt lat="43.34424" lon="-0.53063">
        <ele>216.91</ele>
        <time>2017-02-25T07:49:52Z</time>
      </trkpt>
      <trkpt lat="43.34422" lon="-0.53057">
        <ele>216.91</ele>
        <time>2017-02-25T07:49:53Z</time>
      </trkpt>
      <trkpt lat="43.3442" lon="-0.53052">
        <ele>216.91</ele>
        <time>2017-02-25T07:49:54Z</time>
      </trkpt>
      <trkpt lat="43.34418" lon="-0.53047">
        <ele>216.91</ele>
        <time>2017-02-25T07:49:55Z</time>
      </trkpt>
      <trkpt lat="43.34415" lon="-0.53041">
        <ele>216.91</ele>
        <time>2017-02-25T07:49:56Z</time>
      </trkpt>
      <trkpt lat="43.34412" lon="-0.53035">
        <ele>216.91</ele>
        <time>2017-02-25T07:49:57Z</time>
      </trkpt>
      <trkpt lat="43.34393" lon="-0.53004">
        <ele>214.03</ele>
        <time>2017-02-25T07:50:03Z</time>
      </trkpt>
      <trkpt lat="43.34388" lon="-0.52998">
        <ele>213.55</ele>
        <time>2017-02-25T07:50:04Z</time>
      </trkpt>
      <trkpt lat="43.34383" lon="-0.52993">
        <ele>213.07</ele>
        <time>2017-02-25T07:50:05Z</time>
      </trkpt>
      <trkpt lat="43.34378" lon="-0.52992">
        <ele>213.07</ele>
        <time>2017-02-25T07:50:06Z</time>
      </trkpt>
      <trkpt lat="43.34374" lon="-0.52993">
        <ele>212.59</ele>
        <time>2017-02-25T07:50:07Z</time>
      </trkpt>
      <trkpt lat="43.3437" lon="-0.52993">
        <ele>212.59</ele>
        <time>2017-02-25T07:50:08Z</time>
      </trkpt>
      <trkpt lat="43.34334" lon="-0.53007">
        <ele>214.51</ele>
        <time>2017-02-25T07:50:19Z</time>
      </trkpt>
      <trkpt lat="43.34303" lon="-0.53026">
        <ele>216.91</ele>
        <time>2017-02-25T07:50:30Z</time>
      </trkpt>
      <trkpt lat="43.3428" lon="-0.53056">
        <ele>216.91</ele>
        <time>2017-02-25T07:50:37Z</time>
      </trkpt>
      <trkpt lat="43.34268" lon="-0.5308">
        <ele>215.95</ele>
        <time>2017-02-25T07:50:41Z</time>
      </trkpt>
      <trkpt lat="43.34237" lon="-0.53114">
        <ele>216.43</ele>
        <time>2017-02-25T07:50:49Z</time>
      </trkpt>
      <trkpt lat="43.34229" lon="-0.53123">
        <ele>216.43</ele>
        <time>2017-02-25T07:50:51Z</time>
      </trkpt>
      <trkpt lat="43.34197" lon="-0.53162">
        <ele>220.76</ele>
        <time>2017-02-25T07:51:02Z</time>
      </trkpt>
      <trkpt lat="43.34186" lon="-0.53174">
        <ele>222.2</ele>
        <time>2017-02-25T07:51:12Z</time>
      </trkpt>
      <trkpt lat="43.34164" lon="-0.5318">
        <ele>221.72</ele>
        <time>2017-02-25T07:51:23Z</time>
      </trkpt>
      <trkpt lat="43.34158" lon="-0.5318">
        <ele>220.76</ele>
        <time>2017-02-25T07:51:24Z</time>
      </trkpt>
      <trkpt lat="43.34152" lon="-0.53178">
        <ele>220.28</ele>
        <time>2017-02-25T07:51:25Z</time>
      </trkpt>
      <trkpt lat="43.34112" lon="-0.53174">
        <ele>217.4</ele>
        <time>2017-02-25T07:51:31Z</time>
      </trkpt>
      <trkpt lat="43.34106" lon="-0.53175">
        <ele>216.91</ele>
        <time>2017-02-25T07:51:32Z</time>
      </trkpt>
      <trkpt lat="43.341" lon="-0.53175">
        <ele>216.43</ele>
        <time>2017-02-25T07:51:33Z</time>
      </trkpt>
      <trkpt lat="43.34027" lon="-0.53177">
        <ele>212.59</ele>
        <time>2017-02-25T07:51:44Z</time>
      </trkpt>
      <trkpt lat="43.3402" lon="-0.53175">
        <ele>211.63</ele>
        <time>2017-02-25T07:51:45Z</time>
      </trkpt>
      <trkpt lat="43.33994" lon="-0.53166">
        <ele>207.3</ele>
        <time>2017-02-25T07:51:51Z</time>
      </trkpt>
      <trkpt lat="43.33991" lon="-0.53175">
        <ele>205.86</ele>
        <time>2017-02-25T07:51:54Z</time>
      </trkpt>
      <trkpt lat="43.33984" lon="-0.53197">
        <ele>203.94</ele>
        <time>2017-02-25T07:51:59Z</time>
      </trkpt>
      <trkpt lat="43.33968" lon="-0.53211">
        <ele>202.01</ele>
        <time>2017-02-25T07:52:03Z</time>
      </trkpt>
      <trkpt lat="43.3394" lon="-0.53217">
        <ele>197.69</ele>
        <time>2017-02-25T07:52:10Z</time>
      </trkpt>
      <trkpt lat="43.33933" lon="-0.53215">
        <ele>194.32</ele>
        <time>2017-02-25T07:52:14Z</time>
      </trkpt>
      <trkpt lat="43.33921" lon="-0.53209">
        <ele>190.48</ele>
        <time>2017-02-25T07:52:19Z</time>
      </trkpt>
      <trkpt lat="43.33904" lon="-0.53194">
        <ele>187.59</ele>
        <time>2017-02-25T07:52:28Z</time>
      </trkpt>
      <trkpt lat="43.33886" lon="-0.53199">
        <ele>185.19</ele>
        <time>2017-02-25T07:52:33Z</time>
      </trkpt>
      <trkpt lat="43.33855" lon="-0.5319">
        <ele>181.83</ele>
        <time>2017-02-25T07:52:42Z</time>
      </trkpt>
      <trkpt lat="43.33837" lon="-0.53167">
        <ele>178.94</ele>
        <time>2017-02-25T07:52:51Z</time>
      </trkpt>
      <trkpt lat="43.3382" lon="-0.53153">
        <ele>175.1</ele>
        <time>2017-02-25T07:52:59Z</time>
      </trkpt>
      <trkpt lat="43.33793" lon="-0.5315">
        <ele>171.73</ele>
        <time>2017-02-25T07:53:06Z</time>
      </trkpt>
      <trkpt lat="43.3376" lon="-0.53163">
        <ele>168.37</ele>
        <time>2017-02-25T07:53:13Z</time>
      </trkpt>
      <trkpt lat="43.33723" lon="-0.53148">
        <ele>163.56</ele>
        <time>2017-02-25T07:53:20Z</time>
      </trkpt>
      <trkpt lat="43.3371" lon="-0.53137">
        <ele>160.68</ele>
        <time>2017-02-25T07:53:23Z</time>
      </trkpt>
      <trkpt lat="43.33699" lon="-0.53132">
        <ele>158.75</ele>
        <time>2017-02-25T07:53:25Z</time>
      </trkpt>
      <trkpt lat="43.33664" lon="-0.53148">
        <ele>153.47</ele>
        <time>2017-02-25T07:53:33Z</time>
      </trkpt>
      <trkpt lat="43.33633" lon="-0.5316">
        <ele>150.1</ele>
        <time>2017-02-25T07:53:39Z</time>
      </trkpt>
      <trkpt lat="43.33611" lon="-0.53177">
        <ele>147.7</ele>
        <time>2017-02-25T07:53:45Z</time>
      </trkpt>
      <trkpt lat="43.33576" lon="-0.53166">
        <ele>143.85</ele>
        <time>2017-02-25T07:53:53Z</time>
      </trkpt>
      <trkpt lat="43.3355" lon="-0.53181">
        <ele>141.93</ele>
        <time>2017-02-25T07:53:59Z</time>
      </trkpt>
      <trkpt lat="43.33518" lon="-0.53208">
        <ele>139.05</ele>
        <time>2017-02-25T07:54:07Z</time>
      </trkpt>
      <trkpt lat="43.33515" lon="-0.53213">
        <ele>138.57</ele>
        <time>2017-02-25T07:54:09Z</time>
      </trkpt>
      <trkpt lat="43.33514" lon="-0.53222">
        <ele>138.57</ele>
        <time>2017-02-25T07:54:14Z</time>
      </trkpt>
      <trkpt lat="43.33518" lon="-0.53228">
        <ele>139.53</ele>
        <time>2017-02-25T07:54:18Z</time>
      </trkpt>
      <trkpt lat="43.33531" lon="-0.53229">
        <ele>140.49</ele>
        <time>2017-02-25T07:54:26Z</time>
      </trkpt>
      <trkpt lat="43.33543" lon="-0.53231">
        <ele>141.45</ele>
        <time>2017-02-25T07:54:33Z</time>
      </trkpt>
      <trkpt lat="43.33566" lon="-0.53235">
        <ele>144.82</ele>
        <time>2017-02-25T07:54:47Z</time>
      </trkpt>
      <trkpt lat="43.33584" lon="-0.53241">
        <ele>148.18</ele>
        <time>2017-02-25T07:54:59Z</time>
      </trkpt>
      <trkpt lat="43.33589" lon="-0.5324">
        <ele>148.66</ele>
        <time>2017-02-25T07:55:03Z</time>
      </trkpt>
      <trkpt lat="43.33608" lon="-0.53243">
        <ele>151.54</ele>
        <time>2017-02-25T07:55:16Z</time>
      </trkpt>
      <trkpt lat="43.33613" lon="-0.53245">
        <ele>151.54</ele>
        <time>2017-02-25T07:55:20Z</time>
      </trkpt>
      <trkpt lat="43.33637" lon="-0.53252">
        <ele>156.35</ele>
        <time>2017-02-25T07:55:36Z</time>
      </trkpt>
      <trkpt lat="43.33645" lon="-0.53257">
        <ele>157.31</ele>
        <time>2017-02-25T07:55:41Z</time>
      </trkpt>
      <trkpt lat="43.33652" lon="-0.53262">
        <ele>157.31</ele>
        <time>2017-02-25T07:55:46Z</time>
      </trkpt>
      <trkpt lat="43.33683" lon="-0.53293">
        <ele>159.72</ele>
        <time>2017-02-25T07:56:03Z</time>
      </trkpt>
      <trkpt lat="43.33705" lon="-0.53314">
        <ele>160.2</ele>
        <time>2017-02-25T07:56:16Z</time>
      </trkpt>
      <trkpt lat="43.3372" lon="-0.53311">
        <ele>163.08</ele>
        <time>2017-02-25T07:56:27Z</time>
      </trkpt>
      <trkpt lat="43.33721" lon="-0.53311">
        <ele>163.56</ele>
        <time>2017-02-25T07:56:28Z</time>
      </trkpt>
      <trkpt lat="43.33742" lon="-0.53306">
        <ele>165</ele>
        <time>2017-02-25T07:56:44Z</time>
      </trkpt>
      <trkpt lat="43.33754" lon="-0.53305">
        <ele>167.41</ele>
        <time>2017-02-25T07:56:53Z</time>
      </trkpt>
      <trkpt lat="43.33756" lon="-0.53306">
        <ele>167.89</ele>
        <time>2017-02-25T07:56:54Z</time>
      </trkpt>
      <trkpt lat="43.33763" lon="-0.53307">
        <ele>168.85</ele>
        <time>2017-02-25T07:57:00Z</time>
      </trkpt>
      <trkpt lat="43.33764" lon="-0.53307">
        <ele>168.85</ele>
        <time>2017-02-25T07:57:01Z</time>
      </trkpt>
      <trkpt lat="43.33777" lon="-0.53312">
        <ele>170.29</ele>
        <time>2017-02-25T07:57:10Z</time>
      </trkpt>
      <trkpt lat="43.33778" lon="-0.53312">
        <ele>170.77</ele>
        <time>2017-02-25T07:57:11Z</time>
      </trkpt>
      <trkpt lat="43.33797" lon="-0.5331">
        <ele>172.21</ele>
        <time>2017-02-25T07:57:25Z</time>
      </trkpt>
      <trkpt lat="43.33804" lon="-0.53308">
        <ele>172.21</ele>
        <time>2017-02-25T07:57:30Z</time>
      </trkpt>
      <trkpt lat="43.33805" lon="-0.53308">
        <ele>172.69</ele>
        <time>2017-02-25T07:57:31Z</time>
      </trkpt>
      <trkpt lat="43.3381" lon="-0.53308">
        <ele>173.66</ele>
        <time>2017-02-25T07:57:35Z</time>
      </trkpt>
      <trkpt lat="43.33812" lon="-0.53308">
        <ele>174.14</ele>
        <time>2017-02-25T07:57:36Z</time>
      </trkpt>
      <trkpt lat="43.33831" lon="-0.53307">
        <ele>177.98</ele>
        <time>2017-02-25T07:57:51Z</time>
      </trkpt>
      <trkpt lat="43.33833" lon="-0.53307">
        <ele>178.46</ele>
        <time>2017-02-25T07:57:52Z</time>
      </trkpt>
      <trkpt lat="43.33834" lon="-0.53307">
        <ele>178.94</ele>
        <time>2017-02-25T07:57:53Z</time>
      </trkpt>
      <trkpt lat="43.33854" lon="-0.53308">
        <ele>180.87</ele>
        <time>2017-02-25T07:58:07Z</time>
      </trkpt>
      <trkpt lat="43.33874" lon="-0.5331">
        <ele>183.75</ele>
        <time>2017-02-25T07:58:19Z</time>
      </trkpt>
      <trkpt lat="43.33887" lon="-0.53311">
        <ele>184.23</ele>
        <time>2017-02-25T07:58:26Z</time>
      </trkpt>
      <trkpt lat="43.33888" lon="-0.53312">
        <ele>184.23</ele>
        <time>2017-02-25T07:58:27Z</time>
      </trkpt>
      <trkpt lat="43.3389" lon="-0.53312">
        <ele>184.23</ele>
        <time>2017-02-25T07:58:28Z</time>
      </trkpt>
      <trkpt lat="43.33892" lon="-0.53312">
        <ele>184.71</ele>
        <time>2017-02-25T07:58:29Z</time>
      </trkpt>
      <trkpt lat="43.33913" lon="-0.53317">
        <ele>187.59</ele>
        <time>2017-02-25T07:58:41Z</time>
      </trkpt>
      <trkpt lat="43.33935" lon="-0.53318">
        <ele>189.04</ele>
        <time>2017-02-25T07:58:52Z</time>
      </trkpt>
      <trkpt lat="43.33937" lon="-0.53318">
        <ele>189.52</ele>
        <time>2017-02-25T07:58:53Z</time>
      </trkpt>
      <trkpt lat="43.33938" lon="-0.53318">
        <ele>190</ele>
        <time>2017-02-25T07:58:54Z</time>
      </trkpt>
      <trkpt lat="43.3394" lon="-0.53318">
        <ele>190</ele>
        <time>2017-02-25T07:58:55Z</time>
      </trkpt>
      <trkpt lat="43.33942" lon="-0.53317">
        <ele>190.48</ele>
        <time>2017-02-25T07:58:56Z</time>
      </trkpt>
      <trkpt lat="43.33956" lon="-0.53312">
        <ele>192.4</ele>
        <time>2017-02-25T07:59:06Z</time>
      </trkpt>
      <trkpt lat="43.33963" lon="-0.5331">
        <ele>193.84</ele>
        <time>2017-02-25T07:59:11Z</time>
      </trkpt>
      <trkpt lat="43.33973" lon="-0.5331">
        <ele>196.73</ele>
        <time>2017-02-25T07:59:20Z</time>
      </trkpt>
      <trkpt lat="43.33975" lon="-0.53311">
        <ele>197.21</ele>
        <time>2017-02-25T07:59:21Z</time>
      </trkpt>
      <trkpt lat="43.33977" lon="-0.53311">
        <ele>197.21</ele>
        <time>2017-02-25T07:59:22Z</time>
      </trkpt>
      <trkpt lat="43.33978" lon="-0.53311">
        <ele>197.69</ele>
        <time>2017-02-25T07:59:23Z</time>
      </trkpt>
      <trkpt lat="43.3398" lon="-0.53312">
        <ele>197.69</ele>
        <time>2017-02-25T07:59:24Z</time>
      </trkpt>
      <trkpt lat="43.33981" lon="-0.53312">
        <ele>197.69</ele>
        <time>2017-02-25T07:59:25Z</time>
      </trkpt>
      <trkpt lat="43.33993" lon="-0.53315">
        <ele>200.09</ele>
        <time>2017-02-25T07:59:34Z</time>
      </trkpt>
      <trkpt lat="43.33995" lon="-0.53315">
        <ele>200.57</ele>
        <time>2017-02-25T07:59:35Z</time>
      </trkpt>
      <trkpt lat="43.33996" lon="-0.53314">
        <ele>200.57</ele>
        <time>2017-02-25T07:59:36Z</time>
      </trkpt>
      <trkpt lat="43.33998" lon="-0.53314">
        <ele>201.05</ele>
        <time>2017-02-25T07:59:37Z</time>
      </trkpt>
      <trkpt lat="43.33999" lon="-0.53313">
        <ele>201.05</ele>
        <time>2017-02-25T07:59:38Z</time>
      </trkpt>
      <trkpt lat="43.34005" lon="-0.53313">
        <ele>202.01</ele>
        <time>2017-02-25T07:59:42Z</time>
      </trkpt>
      <trkpt lat="43.34012" lon="-0.53314">
        <ele>203.46</ele>
        <time>2017-02-25T07:59:47Z</time>
      </trkpt>
      <trkpt lat="43.34014" lon="-0.53314">
        <ele>203.94</ele>
        <time>2017-02-25T07:59:48Z</time>
      </trkpt>
      <trkpt lat="43.34033" lon="-0.53311">
        <ele>205.38</ele>
        <time>2017-02-25T08:00:01Z</time>
      </trkpt>
      <trkpt lat="43.34052" lon="-0.53302">
        <ele>206.34</ele>
        <time>2017-02-25T08:00:13Z</time>
      </trkpt>
      <trkpt lat="43.34066" lon="-0.53284">
        <ele>208.74</ele>
        <time>2017-02-25T08:00:27Z</time>
      </trkpt>
      <trkpt lat="43.34081" lon="-0.53275">
        <ele>210.19</ele>
        <time>2017-02-25T08:00:38Z</time>
      </trkpt>
      <trkpt lat="43.34089" lon="-0.53268">
        <ele>209.7</ele>
        <time>2017-02-25T08:00:45Z</time>
      </trkpt>
      <trkpt lat="43.34103" lon="-0.53257">
        <ele>207.78</ele>
        <time>2017-02-25T08:00:57Z</time>
      </trkpt>
      <trkpt lat="43.3412" lon="-0.53241">
        <ele>209.7</ele>
        <time>2017-02-25T08:01:12Z</time>
      </trkpt>
      <trkpt lat="43.34131" lon="-0.53218">
        <ele>211.63</ele>
        <time>2017-02-25T08:01:27Z</time>
      </trkpt>
      <trkpt lat="43.34139" lon="-0.53203">
        <ele>214.03</ele>
        <time>2017-02-25T08:01:38Z</time>
      </trkpt>
      <trkpt lat="43.3414" lon="-0.53201">
        <ele>214.03</ele>
        <time>2017-02-25T08:01:39Z</time>
      </trkpt>
      <trkpt lat="43.3414" lon="-0.53188">
        <ele>215.47</ele>
        <time>2017-02-25T08:01:46Z</time>
      </trkpt>
      <trkpt lat="43.34139" lon="-0.53186">
        <ele>214.99</ele>
        <time>2017-02-25T08:01:47Z</time>
      </trkpt>
      <trkpt lat="43.34138" lon="-0.53184">
        <ele>215.47</ele>
        <time>2017-02-25T08:01:48Z</time>
      </trkpt>
      <trkpt lat="43.34137" lon="-0.53183">
        <ele>215.47</ele>
        <time>2017-02-25T08:01:49Z</time>
      </trkpt>
      <trkpt lat="43.34135" lon="-0.53181">
        <ele>214.99</ele>
        <time>2017-02-25T08:01:50Z</time>
      </trkpt>
      <trkpt lat="43.34133" lon="-0.53181">
        <ele>214.99</ele>
        <time>2017-02-25T08:01:51Z</time>
      </trkpt>
      <trkpt lat="43.3413" lon="-0.5318">
        <ele>214.51</ele>
        <time>2017-02-25T08:01:52Z</time>
      </trkpt>
      <trkpt lat="43.34095" lon="-0.5318">
        <ele>212.11</ele>
        <time>2017-02-25T08:02:05Z</time>
      </trkpt>
      <trkpt lat="43.34028" lon="-0.53179">
        <ele>209.22</ele>
        <time>2017-02-25T08:02:20Z</time>
      </trkpt>
      <trkpt lat="43.33992" lon="-0.53166">
        <ele>205.38</ele>
        <time>2017-02-25T08:02:26Z</time>
      </trkpt>
      <trkpt lat="43.33986" lon="-0.53161">
        <ele>204.42</ele>
        <time>2017-02-25T08:02:27Z</time>
      </trkpt>
      <trkpt lat="43.3398" lon="-0.53156">
        <ele>203.94</ele>
        <time>2017-02-25T08:02:28Z</time>
      </trkpt>
      <trkpt lat="43.33969" lon="-0.53144">
        <ele>202.01</ele>
        <time>2017-02-25T08:02:30Z</time>
      </trkpt>
      <trkpt lat="43.33964" lon="-0.53137">
        <ele>201.05</ele>
        <time>2017-02-25T08:02:31Z</time>
      </trkpt>
      <trkpt lat="43.33961" lon="-0.53129">
        <ele>200.09</ele>
        <time>2017-02-25T08:02:32Z</time>
      </trkpt>
      <trkpt lat="43.33958" lon="-0.53121">
        <ele>199.61</ele>
        <time>2017-02-25T08:02:33Z</time>
      </trkpt>
      <trkpt lat="43.33956" lon="-0.53112">
        <ele>198.65</ele>
        <time>2017-02-25T08:02:34Z</time>
      </trkpt>
      <trkpt lat="43.33955" lon="-0.53103">
        <ele>198.17</ele>
        <time>2017-02-25T08:02:35Z</time>
      </trkpt>
      <trkpt lat="43.33954" lon="-0.53094">
        <ele>197.69</ele>
        <time>2017-02-25T08:02:36Z</time>
      </trkpt>
      <trkpt lat="43.33954" lon="-0.53085">
        <ele>197.69</ele>
        <time>2017-02-25T08:02:37Z</time>
      </trkpt>
      <trkpt lat="43.33955" lon="-0.53076">
        <ele>197.21</ele>
        <time>2017-02-25T08:02:38Z</time>
      </trkpt>
      <trkpt lat="43.33955" lon="-0.53067">
        <ele>197.21</ele>
        <time>2017-02-25T08:02:39Z</time>
      </trkpt>
      <trkpt lat="43.33954" lon="-0.53059">
        <ele>197.21</ele>
        <time>2017-02-25T08:02:40Z</time>
      </trkpt>
      <trkpt lat="43.33953" lon="-0.53051">
        <ele>197.21</ele>
        <time>2017-02-25T08:02:41Z</time>
      </trkpt>
      <trkpt lat="43.33953" lon="-0.53043">
        <ele>197.69</ele>
        <time>2017-02-25T08:02:42Z</time>
      </trkpt>
      <trkpt lat="43.33952" lon="-0.53036">
        <ele>197.69</ele>
        <time>2017-02-25T08:02:43Z</time>
      </trkpt>
      <trkpt lat="43.33951" lon="-0.53029">
        <ele>197.69</ele>
        <time>2017-02-25T08:02:44Z</time>
      </trkpt>
      <trkpt lat="43.3395" lon="-0.53022">
        <ele>197.69</ele>
        <time>2017-02-25T08:02:45Z</time>
      </trkpt>
      <trkpt lat="43.33949" lon="-0.53015">
        <ele>197.69</ele>
        <time>2017-02-25T08:02:46Z</time>
      </trkpt>
      <trkpt lat="43.33944" lon="-0.52959">
        <ele>198.65</ele>
        <time>2017-02-25T08:02:54Z</time>
      </trkpt>
      <trkpt lat="43.33944" lon="-0.52953">
        <ele>198.65</ele>
        <time>2017-02-25T08:02:55Z</time>
      </trkpt>
      <trkpt lat="43.33944" lon="-0.52947">
        <ele>198.65</ele>
        <time>2017-02-25T08:02:56Z</time>
      </trkpt>
      <trkpt lat="43.33942" lon="-0.52941">
        <ele>198.65</ele>
        <time>2017-02-25T08:02:57Z</time>
      </trkpt>
      <trkpt lat="43.33938" lon="-0.52938">
        <ele>198.17</ele>
        <time>2017-02-25T08:02:58Z</time>
      </trkpt>
      <trkpt lat="43.33933" lon="-0.52937">
        <ele>197.21</ele>
        <time>2017-02-25T08:02:59Z</time>
      </trkpt>
      <trkpt lat="43.33928" lon="-0.52937">
        <ele>196.25</ele>
        <time>2017-02-25T08:03:00Z</time>
      </trkpt>
      <trkpt lat="43.33921" lon="-0.52936">
        <ele>195.28</ele>
        <time>2017-02-25T08:03:01Z</time>
      </trkpt>
      <trkpt lat="43.33889" lon="-0.52936">
        <ele>190</ele>
        <time>2017-02-25T08:03:05Z</time>
      </trkpt>
      <trkpt lat="43.33882" lon="-0.52934">
        <ele>188.56</ele>
        <time>2017-02-25T08:03:06Z</time>
      </trkpt>
      <trkpt lat="43.33875" lon="-0.52931">
        <ele>187.11</ele>
        <time>2017-02-25T08:03:07Z</time>
      </trkpt>
      <trkpt lat="43.33868" lon="-0.52927">
        <ele>185.67</ele>
        <time>2017-02-25T08:03:08Z</time>
      </trkpt>
      <trkpt lat="43.33862" lon="-0.52923">
        <ele>184.23</ele>
        <time>2017-02-25T08:03:09Z</time>
      </trkpt>
      <trkpt lat="43.3384" lon="-0.52904">
        <ele>178.94</ele>
        <time>2017-02-25T08:03:16Z</time>
      </trkpt>
      <trkpt lat="43.3384" lon="-0.52845">
        <ele>179.9</ele>
        <time>2017-02-25T08:03:27Z</time>
      </trkpt>
      <trkpt lat="43.33839" lon="-0.5284">
        <ele>179.9</ele>
        <time>2017-02-25T08:03:28Z</time>
      </trkpt>
      <trkpt lat="43.33838" lon="-0.52836">
        <ele>179.42</ele>
        <time>2017-02-25T08:03:29Z</time>
      </trkpt>
      <trkpt lat="43.33835" lon="-0.52833">
        <ele>178.94</ele>
        <time>2017-02-25T08:03:30Z</time>
      </trkpt>
      <trkpt lat="43.33831" lon="-0.5283">
        <ele>178.46</ele>
        <time>2017-02-25T08:03:31Z</time>
      </trkpt>
      <trkpt lat="43.33826" lon="-0.52827">
        <ele>177.5</ele>
        <time>2017-02-25T08:03:32Z</time>
      </trkpt>
      <trkpt lat="43.33805" lon="-0.52815">
        <ele>173.66</ele>
        <time>2017-02-25T08:03:36Z</time>
      </trkpt>
      <trkpt lat="43.338" lon="-0.52814">
        <ele>172.21</ele>
        <time>2017-02-25T08:03:37Z</time>
      </trkpt>
      <trkpt lat="43.33794" lon="-0.52814">
        <ele>171.25</ele>
        <time>2017-02-25T08:03:38Z</time>
      </trkpt>
      <trkpt lat="43.33789" lon="-0.52815">
        <ele>169.81</ele>
        <time>2017-02-25T08:03:39Z</time>
      </trkpt>
      <trkpt lat="43.33783" lon="-0.52818">
        <ele>168.85</ele>
        <time>2017-02-25T08:03:40Z</time>
      </trkpt>
      <trkpt lat="43.33776" lon="-0.52823">
        <ele>167.41</ele>
        <time>2017-02-25T08:03:41Z</time>
      </trkpt>
      <trkpt lat="43.33769" lon="-0.52829">
        <ele>165.96</ele>
        <time>2017-02-25T08:03:42Z</time>
      </trkpt>
      <trkpt lat="43.33722" lon="-0.52882">
        <ele>156.83</ele>
        <time>2017-02-25T08:03:50Z</time>
      </trkpt>
      <trkpt lat="43.33667" lon="-0.52949">
        <ele>144.34</ele>
        <time>2017-02-25T08:04:00Z</time>
      </trkpt>
      <trkpt lat="43.3365" lon="-0.52966">
        <ele>141.45</ele>
        <time>2017-02-25T08:04:07Z</time>
      </trkpt>
      <trkpt lat="43.33642" lon="-0.52976">
        <ele>140.49</ele>
        <time>2017-02-25T08:04:11Z</time>
      </trkpt>
      <trkpt lat="43.33637" lon="-0.52994">
        <ele>139.05</ele>
        <time>2017-02-25T08:04:14Z</time>
      </trkpt>
      <trkpt lat="43.33629" lon="-0.53012">
        <ele>138.57</ele>
        <time>2017-02-25T08:04:17Z</time>
      </trkpt>
      <trkpt lat="43.33626" lon="-0.53018">
        <ele>138.57</ele>
        <time>2017-02-25T08:04:18Z</time>
      </trkpt>
      <trkpt lat="43.33623" lon="-0.53024">
        <ele>138.09</ele>
        <time>2017-02-25T08:04:19Z</time>
      </trkpt>
      <trkpt lat="43.33559" lon="-0.53109">
        <ele>133.76</ele>
        <time>2017-02-25T08:04:34Z</time>
      </trkpt>
      <trkpt lat="43.33508" lon="-0.53176">
        <ele>133.28</ele>
        <time>2017-02-25T08:04:46Z</time>
      </trkpt>
      <trkpt lat="43.33504" lon="-0.53181">
        <ele>133.28</ele>
        <time>2017-02-25T08:04:47Z</time>
      </trkpt>
      <trkpt lat="43.33495" lon="-0.53192">
        <ele>132.8</ele>
        <time>2017-02-25T08:04:49Z</time>
      </trkpt>
      <trkpt lat="43.3349" lon="-0.53195">
        <ele>132.8</ele>
        <time>2017-02-25T08:04:50Z</time>
      </trkpt>
      <trkpt lat="43.33483" lon="-0.53197">
        <ele>133.28</ele>
        <time>2017-02-25T08:04:51Z</time>
      </trkpt>
      <trkpt lat="43.33477" lon="-0.53196">
        <ele>133.28</ele>
        <time>2017-02-25T08:04:52Z</time>
      </trkpt>
      <trkpt lat="43.33469" lon="-0.53192">
        <ele>132.8</ele>
        <time>2017-02-25T08:04:53Z</time>
      </trkpt>
      <trkpt lat="43.33465" lon="-0.53191">
        <ele>132.8</ele>
        <time>2017-02-25T08:04:54Z</time>
      </trkpt>
      <trkpt lat="43.3346" lon="-0.53189">
        <ele>132.8</ele>
        <time>2017-02-25T08:04:55Z</time>
      </trkpt>
      <trkpt lat="43.33454" lon="-0.53188">
        <ele>132.8</ele>
        <time>2017-02-25T08:04:56Z</time>
      </trkpt>
      <trkpt lat="43.33449" lon="-0.53189">
        <ele>132.8</ele>
        <time>2017-02-25T08:04:57Z</time>
      </trkpt>
      <trkpt lat="43.33444" lon="-0.53191">
        <ele>132.8</ele>
        <time>2017-02-25T08:04:58Z</time>
      </trkpt>
      <trkpt lat="43.33439" lon="-0.53193">
        <ele>133.28</ele>
        <time>2017-02-25T08:04:59Z</time>
      </trkpt>
      <trkpt lat="43.33434" lon="-0.53195">
        <ele>133.28</ele>
        <time>2017-02-25T08:05:00Z</time>
      </trkpt>
      <trkpt lat="43.334" lon="-0.5321">
        <ele>133.28</ele>
        <time>2017-02-25T08:05:07Z</time>
      </trkpt>
      <trkpt lat="43.33373" lon="-0.53212">
        <ele>134.24</ele>
        <time>2017-02-25T08:05:13Z</time>
      </trkpt>
      <trkpt lat="43.3336" lon="-0.53209">
        <ele>134.72</ele>
        <time>2017-02-25T08:05:16Z</time>
      </trkpt>
      <trkpt lat="43.33356" lon="-0.53207">
        <ele>134.72</ele>
        <time>2017-02-25T08:05:17Z</time>
      </trkpt>
      <trkpt lat="43.33351" lon="-0.53203">
        <ele>134.24</ele>
        <time>2017-02-25T08:05:18Z</time>
      </trkpt>
      <trkpt lat="43.33347" lon="-0.532">
        <ele>134.24</ele>
        <time>2017-02-25T08:05:19Z</time>
      </trkpt>
      <trkpt lat="43.33344" lon="-0.53196">
        <ele>134.24</ele>
        <time>2017-02-25T08:05:20Z</time>
      </trkpt>
      <trkpt lat="43.33341" lon="-0.53191">
        <ele>134.24</ele>
        <time>2017-02-25T08:05:21Z</time>
      </trkpt>
      <trkpt lat="43.33338" lon="-0.53186">
        <ele>133.76</ele>
        <time>2017-02-25T08:05:22Z</time>
      </trkpt>
      <trkpt lat="43.33336" lon="-0.5318">
        <ele>133.76</ele>
        <time>2017-02-25T08:05:23Z</time>
      </trkpt>
      <trkpt lat="43.33334" lon="-0.53174">
        <ele>133.76</ele>
        <time>2017-02-25T08:05:24Z</time>
      </trkpt>
      <trkpt lat="43.33332" lon="-0.53167">
        <ele>133.76</ele>
        <time>2017-02-25T08:05:25Z</time>
      </trkpt>
      <trkpt lat="43.33311" lon="-0.53082">
        <ele>137.13</ele>
        <time>2017-02-25T08:05:40Z</time>
      </trkpt>
      <trkpt lat="43.33304" lon="-0.53061">
        <ele>138.09</ele>
        <time>2017-02-25T08:05:44Z</time>
      </trkpt>
      <trkpt lat="43.33291" lon="-0.53036">
        <ele>139.05</ele>
        <time>2017-02-25T08:05:48Z</time>
      </trkpt>
      <trkpt lat="43.33233" lon="-0.52972">
        <ele>138.57</ele>
        <time>2017-02-25T08:06:00Z</time>
      </trkpt>
      <trkpt lat="43.33191" lon="-0.52934">
        <ele>137.13</ele>
        <time>2017-02-25T08:06:10Z</time>
      </trkpt>
      <trkpt lat="43.33163" lon="-0.52889">
        <ele>136.16</ele>
        <time>2017-02-25T08:06:18Z</time>
      </trkpt>
      <trkpt lat="43.33159" lon="-0.52883">
        <ele>136.16</ele>
        <time>2017-02-25T08:06:19Z</time>
      </trkpt>
      <trkpt lat="43.33138" lon="-0.52846">
        <ele>137.13</ele>
        <time>2017-02-25T08:06:25Z</time>
      </trkpt>
      <trkpt lat="43.33094" lon="-0.52788">
        <ele>138.09</ele>
        <time>2017-02-25T08:06:36Z</time>
      </trkpt>
      <trkpt lat="43.33077" lon="-0.52757">
        <ele>138.57</ele>
        <time>2017-02-25T08:06:41Z</time>
      </trkpt>
      <trkpt lat="43.33063" lon="-0.52705">
        <ele>136.16</ele>
        <time>2017-02-25T08:06:49Z</time>
      </trkpt>
      <trkpt lat="43.33048" lon="-0.5265">
        <ele>134.72</ele>
        <time>2017-02-25T08:06:57Z</time>
      </trkpt>
      <trkpt lat="43.3304" lon="-0.52632">
        <ele>135.2</ele>
        <time>2017-02-25T08:07:00Z</time>
      </trkpt>
      <trkpt lat="43.33015" lon="-0.52576">
        <ele>140.01</ele>
        <time>2017-02-25T08:07:13Z</time>
      </trkpt>
      <trkpt lat="43.32997" lon="-0.52535">
        <ele>141.93</ele>
        <time>2017-02-25T08:07:24Z</time>
      </trkpt>
      <trkpt lat="43.32972" lon="-0.52474">
        <ele>145.3</ele>
        <time>2017-02-25T08:07:39Z</time>
      </trkpt>
      <trkpt lat="43.32963" lon="-0.52424">
        <ele>141.45</ele>
        <time>2017-02-25T08:07:50Z</time>
      </trkpt>
      <trkpt lat="43.32949" lon="-0.52353">
        <ele>143.37</ele>
        <time>2017-02-25T08:08:04Z</time>
      </trkpt>
      <trkpt lat="43.32943" lon="-0.52327">
        <ele>144.82</ele>
        <time>2017-02-25T08:08:09Z</time>
      </trkpt>
      <trkpt lat="43.32941" lon="-0.52321">
        <ele>144.82</ele>
        <time>2017-02-25T08:08:10Z</time>
      </trkpt>
      <trkpt lat="43.32939" lon="-0.52316">
        <ele>144.82</ele>
        <time>2017-02-25T08:08:11Z</time>
      </trkpt>
      <trkpt lat="43.32932" lon="-0.52306">
        <ele>144.34</ele>
        <time>2017-02-25T08:08:13Z</time>
      </trkpt>
      <trkpt lat="43.32927" lon="-0.52302">
        <ele>144.34</ele>
        <time>2017-02-25T08:08:14Z</time>
      </trkpt>
      <trkpt lat="43.32921" lon="-0.52298">
        <ele>143.85</ele>
        <time>2017-02-25T08:08:15Z</time>
      </trkpt>
      <trkpt lat="43.32917" lon="-0.52295">
        <ele>143.85</ele>
        <time>2017-02-25T08:08:16Z</time>
      </trkpt>
      <trkpt lat="43.32911" lon="-0.52294">
        <ele>143.85</ele>
        <time>2017-02-25T08:08:17Z</time>
      </trkpt>
      <trkpt lat="43.32905" lon="-0.52292">
        <ele>143.37</ele>
        <time>2017-02-25T08:08:18Z</time>
      </trkpt>
      <trkpt lat="43.32899" lon="-0.52292">
        <ele>143.37</ele>
        <time>2017-02-25T08:08:19Z</time>
      </trkpt>
      <trkpt lat="43.32818" lon="-0.52285">
        <ele>138.57</ele>
        <time>2017-02-25T08:08:31Z</time>
      </trkpt>
      <trkpt lat="43.32811" lon="-0.52282">
        <ele>137.61</ele>
        <time>2017-02-25T08:08:32Z</time>
      </trkpt>
      <trkpt lat="43.32731" lon="-0.52234">
        <ele>129.43</ele>
        <time>2017-02-25T08:08:45Z</time>
      </trkpt>
      <trkpt lat="43.32699" lon="-0.52215">
        <ele>130.4</ele>
        <time>2017-02-25T08:08:53Z</time>
      </trkpt>
      <trkpt lat="43.32695" lon="-0.52212">
        <ele>130.88</ele>
        <time>2017-02-25T08:08:54Z</time>
      </trkpt>
      <trkpt lat="43.32692" lon="-0.52209">
        <ele>131.36</ele>
        <time>2017-02-25T08:08:55Z</time>
      </trkpt>
      <trkpt lat="43.32649" lon="-0.52164">
        <ele>132.8</ele>
        <time>2017-02-25T08:09:08Z</time>
      </trkpt>
      <trkpt lat="43.32646" lon="-0.52159">
        <ele>132.8</ele>
        <time>2017-02-25T08:09:09Z</time>
      </trkpt>
      <trkpt lat="43.32643" lon="-0.52155">
        <ele>132.8</ele>
        <time>2017-02-25T08:09:10Z</time>
      </trkpt>
      <trkpt lat="43.32607" lon="-0.52101">
        <ele>134.24</ele>
        <time>2017-02-25T08:09:23Z</time>
      </trkpt>
      <trkpt lat="43.3258" lon="-0.52057">
        <ele>136.16</ele>
        <time>2017-02-25T08:09:34Z</time>
      </trkpt>
      <trkpt lat="43.32549" lon="-0.52005">
        <ele>139.53</ele>
        <time>2017-02-25T08:09:47Z</time>
      </trkpt>
      <trkpt lat="43.32513" lon="-0.51971">
        <ele>141.45</ele>
        <time>2017-02-25T08:09:59Z</time>
      </trkpt>
      <trkpt lat="43.32482" lon="-0.51947">
        <ele>141.45</ele>
        <time>2017-02-25T08:10:08Z</time>
      </trkpt>
      <trkpt lat="43.32478" lon="-0.51945">
        <ele>140.97</ele>
        <time>2017-02-25T08:10:09Z</time>
      </trkpt>
      <trkpt lat="43.3241" lon="-0.51891">
        <ele>136.16</ele>
        <time>2017-02-25T08:10:24Z</time>
      </trkpt>
      <trkpt lat="43.32338" lon="-0.51827">
        <ele>128.95</ele>
        <time>2017-02-25T08:10:38Z</time>
      </trkpt>
      <trkpt lat="43.32317" lon="-0.51808">
        <ele>129.43</ele>
        <time>2017-02-25T08:10:43Z</time>
      </trkpt>
      <trkpt lat="43.32308" lon="-0.51796">
        <ele>130.4</ele>
        <time>2017-02-25T08:10:46Z</time>
      </trkpt>
      <trkpt lat="43.32305" lon="-0.51791">
        <ele>130.88</ele>
        <time>2017-02-25T08:10:47Z</time>
      </trkpt>
      <trkpt lat="43.32302" lon="-0.51786">
        <ele>131.36</ele>
        <time>2017-02-25T08:10:48Z</time>
      </trkpt>
      <trkpt lat="43.32299" lon="-0.51782">
        <ele>131.84</ele>
        <time>2017-02-25T08:10:49Z</time>
      </trkpt>
      <trkpt lat="43.32297" lon="-0.51778">
        <ele>131.84</ele>
        <time>2017-02-25T08:10:50Z</time>
      </trkpt>
      <trkpt lat="43.32295" lon="-0.51774">
        <ele>132.32</ele>
        <time>2017-02-25T08:10:51Z</time>
      </trkpt>
      <trkpt lat="43.32267" lon="-0.5172">
        <ele>136.16</ele>
        <time>2017-02-25T08:11:03Z</time>
      </trkpt>
      <trkpt lat="43.32227" lon="-0.51666">
        <ele>140.49</ele>
        <time>2017-02-25T08:11:17Z</time>
      </trkpt>
      <trkpt lat="43.32181" lon="-0.51616">
        <ele>143.37</ele>
        <time>2017-02-25T08:11:32Z</time>
      </trkpt>
      <trkpt lat="43.32147" lon="-0.51588">
        <ele>143.37</ele>
        <time>2017-02-25T08:11:42Z</time>
      </trkpt>
      <trkpt lat="43.32108" lon="-0.51558">
        <ele>144.82</ele>
        <time>2017-02-25T08:11:56Z</time>
      </trkpt>
      <trkpt lat="43.32062" lon="-0.51519">
        <ele>145.78</ele>
        <time>2017-02-25T08:12:10Z</time>
      </trkpt>
      <trkpt lat="43.32034" lon="-0.51466">
        <ele>149.14</ele>
        <time>2017-02-25T08:12:24Z</time>
      </trkpt>
      <trkpt lat="43.32026" lon="-0.51456">
        <ele>148.18</ele>
        <time>2017-02-25T08:12:27Z</time>
      </trkpt>
      <trkpt lat="43.32022" lon="-0.51453">
        <ele>148.18</ele>
        <time>2017-02-25T08:12:28Z</time>
      </trkpt>
      <trkpt lat="43.32016" lon="-0.5145">
        <ele>147.7</ele>
        <time>2017-02-25T08:12:29Z</time>
      </trkpt>
      <trkpt lat="43.31986" lon="-0.51439">
        <ele>144.34</ele>
        <time>2017-02-25T08:12:34Z</time>
      </trkpt>
      <trkpt lat="43.3198" lon="-0.51434">
        <ele>143.85</ele>
        <time>2017-02-25T08:12:35Z</time>
      </trkpt>
      <trkpt lat="43.31969" lon="-0.51426">
        <ele>142.41</ele>
        <time>2017-02-25T08:12:37Z</time>
      </trkpt>
      <trkpt lat="43.31963" lon="-0.51423">
        <ele>141.45</ele>
        <time>2017-02-25T08:12:38Z</time>
      </trkpt>
      <trkpt lat="43.31956" lon="-0.51421">
        <ele>140.97</ele>
        <time>2017-02-25T08:12:39Z</time>
      </trkpt>
      <trkpt lat="43.3195" lon="-0.51419">
        <ele>140.49</ele>
        <time>2017-02-25T08:12:40Z</time>
      </trkpt>
      <trkpt lat="43.31944" lon="-0.51417">
        <ele>140.49</ele>
        <time>2017-02-25T08:12:41Z</time>
      </trkpt>
      <trkpt lat="43.31939" lon="-0.51415">
        <ele>140.01</ele>
        <time>2017-02-25T08:12:42Z</time>
      </trkpt>
      <trkpt lat="43.31935" lon="-0.51412">
        <ele>140.01</ele>
        <time>2017-02-25T08:12:43Z</time>
      </trkpt>
      <trkpt lat="43.3193" lon="-0.51408">
        <ele>139.53</ele>
        <time>2017-02-25T08:12:44Z</time>
      </trkpt>
      <trkpt lat="43.31927" lon="-0.51405">
        <ele>139.53</ele>
        <time>2017-02-25T08:12:45Z</time>
      </trkpt>
      <trkpt lat="43.31925" lon="-0.514">
        <ele>139.05</ele>
        <time>2017-02-25T08:12:46Z</time>
      </trkpt>
      <trkpt lat="43.31923" lon="-0.51395">
        <ele>139.05</ele>
        <time>2017-02-25T08:12:47Z</time>
      </trkpt>
      <trkpt lat="43.31921" lon="-0.5139">
        <ele>139.05</ele>
        <time>2017-02-25T08:12:48Z</time>
      </trkpt>
      <trkpt lat="43.31921" lon="-0.51387">
        <ele>139.05</ele>
        <time>2017-02-25T08:12:49Z</time>
      </trkpt>
      <trkpt lat="43.31919" lon="-0.51383">
        <ele>139.53</ele>
        <time>2017-02-25T08:12:50Z</time>
      </trkpt>
      <trkpt lat="43.31915" lon="-0.51376">
        <ele>140.01</ele>
        <time>2017-02-25T08:12:53Z</time>
      </trkpt>
      <trkpt lat="43.31912" lon="-0.51374">
        <ele>140.01</ele>
        <time>2017-02-25T08:12:54Z</time>
      </trkpt>
      <trkpt lat="43.31907" lon="-0.51372">
        <ele>140.49</ele>
        <time>2017-02-25T08:12:56Z</time>
      </trkpt>
      <trkpt lat="43.31905" lon="-0.51373">
        <ele>140.97</ele>
        <time>2017-02-25T08:12:57Z</time>
      </trkpt>
      <trkpt lat="43.31902" lon="-0.51374">
        <ele>141.45</ele>
        <time>2017-02-25T08:12:58Z</time>
      </trkpt>
      <trkpt lat="43.31901" lon="-0.51375">
        <ele>141.45</ele>
        <time>2017-02-25T08:12:59Z</time>
      </trkpt>
      <trkpt lat="43.31899" lon="-0.51378">
        <ele>141.45</ele>
        <time>2017-02-25T08:13:00Z</time>
      </trkpt>
      <trkpt lat="43.31898" lon="-0.5138">
        <ele>141.45</ele>
        <time>2017-02-25T08:13:01Z</time>
      </trkpt>
      <trkpt lat="43.31874" lon="-0.5142">
        <ele>142.89</ele>
        <time>2017-02-25T08:13:12Z</time>
      </trkpt>
      <trkpt lat="43.31841" lon="-0.51445">
        <ele>143.85</ele>
        <time>2017-02-25T08:13:23Z</time>
      </trkpt>
      <trkpt lat="43.31804" lon="-0.51429">
        <ele>143.37</ele>
        <time>2017-02-25T08:13:36Z</time>
      </trkpt>
      <trkpt lat="43.31765" lon="-0.51405">
        <ele>137.13</ele>
        <time>2017-02-25T08:13:44Z</time>
      </trkpt>
      <trkpt lat="43.31704" lon="-0.51393">
        <ele>135.2</ele>
        <time>2017-02-25T08:13:55Z</time>
      </trkpt>
      <trkpt lat="43.3167" lon="-0.5138">
        <ele>135.68</ele>
        <time>2017-02-25T08:14:06Z</time>
      </trkpt>
      <trkpt lat="43.31635" lon="-0.51365">
        <ele>138.57</ele>
        <time>2017-02-25T08:14:21Z</time>
      </trkpt>
      <trkpt lat="43.31594" lon="-0.5134">
        <ele>137.61</ele>
        <time>2017-02-25T08:14:36Z</time>
      </trkpt>
      <trkpt lat="43.31572" lon="-0.51314">
        <ele>143.85</ele>
        <time>2017-02-25T08:14:51Z</time>
      </trkpt>
      <trkpt lat="43.31554" lon="-0.51287">
        <ele>149.14</ele>
        <time>2017-02-25T08:15:05Z</time>
      </trkpt>
      <trkpt lat="43.31547" lon="-0.51271">
        <ele>151.54</ele>
        <time>2017-02-25T08:15:13Z</time>
      </trkpt>
      <trkpt lat="43.31533" lon="-0.51237">
        <ele>157.79</ele>
        <time>2017-02-25T08:15:26Z</time>
      </trkpt>
      <trkpt lat="43.31504" lon="-0.5122">
        <ele>159.24</ele>
        <time>2017-02-25T08:15:38Z</time>
      </trkpt>
      <trkpt lat="43.31457" lon="-0.51225">
        <ele>158.27</ele>
        <time>2017-02-25T08:15:52Z</time>
      </trkpt>
      <trkpt lat="43.31415" lon="-0.51224">
        <ele>162.12</ele>
        <time>2017-02-25T08:16:10Z</time>
      </trkpt>
      <trkpt lat="43.31367" lon="-0.51213">
        <ele>162.6</ele>
        <time>2017-02-25T08:16:27Z</time>
      </trkpt>
      <trkpt lat="43.31316" lon="-0.51189">
        <ele>158.75</ele>
        <time>2017-02-25T08:16:42Z</time>
      </trkpt>
      <trkpt lat="43.31275" lon="-0.51168">
        <ele>155.39</ele>
        <time>2017-02-25T08:16:56Z</time>
      </trkpt>
      <trkpt lat="43.31239" lon="-0.51136">
        <ele>154.91</ele>
        <time>2017-02-25T08:17:09Z</time>
      </trkpt>
      <trkpt lat="43.31235" lon="-0.51132">
        <ele>154.43</ele>
        <time>2017-02-25T08:17:10Z</time>
      </trkpt>
      <trkpt lat="43.31198" lon="-0.511">
        <ele>155.87</ele>
        <time>2017-02-25T08:17:23Z</time>
      </trkpt>
      <trkpt lat="43.31172" lon="-0.51062">
        <ele>163.56</ele>
        <time>2017-02-25T08:17:35Z</time>
      </trkpt>
      <trkpt lat="43.31147" lon="-0.51015">
        <ele>168.37</ele>
        <time>2017-02-25T08:17:47Z</time>
      </trkpt>
      <trkpt lat="43.31108" lon="-0.50973">
        <ele>169.33</ele>
        <time>2017-02-25T08:18:01Z</time>
      </trkpt>
      <trkpt lat="43.31075" lon="-0.50932">
        <ele>177.5</ele>
        <time>2017-02-25T08:18:17Z</time>
      </trkpt>
      <trkpt lat="43.31053" lon="-0.50897">
        <ele>181.83</ele>
        <time>2017-02-25T08:18:32Z</time>
      </trkpt>
      <trkpt lat="43.31035" lon="-0.5086">
        <ele>180.87</ele>
        <time>2017-02-25T08:18:41Z</time>
      </trkpt>
      <trkpt lat="43.31032" lon="-0.50856">
        <ele>180.87</ele>
        <time>2017-02-25T08:18:42Z</time>
      </trkpt>
      <trkpt lat="43.30984" lon="-0.50815">
        <ele>177.98</ele>
        <time>2017-02-25T08:18:56Z</time>
      </trkpt>
      <trkpt lat="43.30949" lon="-0.50786">
        <ele>178.94</ele>
        <time>2017-02-25T08:19:11Z</time>
      </trkpt>
      <trkpt lat="43.309" lon="-0.5074">
        <ele>177.02</ele>
        <time>2017-02-25T08:19:25Z</time>
      </trkpt>
      <trkpt lat="43.30897" lon="-0.50737">
        <ele>177.02</ele>
        <time>2017-02-25T08:19:26Z</time>
      </trkpt>
      <trkpt lat="43.30894" lon="-0.50734">
        <ele>176.54</ele>
        <time>2017-02-25T08:19:27Z</time>
      </trkpt>
      <trkpt lat="43.30891" lon="-0.50731">
        <ele>176.54</ele>
        <time>2017-02-25T08:19:28Z</time>
      </trkpt>
      <trkpt lat="43.30888" lon="-0.50728">
        <ele>176.54</ele>
        <time>2017-02-25T08:19:29Z</time>
      </trkpt>
      <trkpt lat="43.30857" lon="-0.50703">
        <ele>175.1</ele>
        <time>2017-02-25T08:19:41Z</time>
      </trkpt>
      <trkpt lat="43.30824" lon="-0.50685">
        <ele>173.66</ele>
        <time>2017-02-25T08:19:51Z</time>
      </trkpt>
      <trkpt lat="43.30779" lon="-0.50667">
        <ele>170.77</ele>
        <time>2017-02-25T08:20:06Z</time>
      </trkpt>
      <trkpt lat="43.30748" lon="-0.50652">
        <ele>169.81</ele>
        <time>2017-02-25T08:20:19Z</time>
      </trkpt>
      <trkpt lat="43.30728" lon="-0.50641">
        <ele>172.69</ele>
        <time>2017-02-25T08:20:33Z</time>
      </trkpt>
      <trkpt lat="43.3071" lon="-0.50619">
        <ele>182.31</ele>
        <time>2017-02-25T08:20:49Z</time>
      </trkpt>
      <trkpt lat="43.30686" lon="-0.50593">
        <ele>192.4</ele>
        <time>2017-02-25T08:21:03Z</time>
      </trkpt>
      <trkpt lat="43.30663" lon="-0.50566">
        <ele>198.17</ele>
        <time>2017-02-25T08:21:18Z</time>
      </trkpt>
      <trkpt lat="43.30642" lon="-0.50544">
        <ele>201.53</ele>
        <time>2017-02-25T08:21:32Z</time>
      </trkpt>
      <trkpt lat="43.30604" lon="-0.50523">
        <ele>201.05</ele>
        <time>2017-02-25T08:21:51Z</time>
      </trkpt>
      <trkpt lat="43.30576" lon="-0.505">
        <ele>202.01</ele>
        <time>2017-02-25T08:22:07Z</time>
      </trkpt>
      <trkpt lat="43.30545" lon="-0.50465">
        <ele>204.9</ele>
        <time>2017-02-25T08:22:23Z</time>
      </trkpt>
      <trkpt lat="43.30512" lon="-0.50431">
        <ele>210.67</ele>
        <time>2017-02-25T08:22:38Z</time>
      </trkpt>
      <trkpt lat="43.30487" lon="-0.50404">
        <ele>217.88</ele>
        <time>2017-02-25T08:22:50Z</time>
      </trkpt>
      <trkpt lat="43.30457" lon="-0.50369">
        <ele>221.72</ele>
        <time>2017-02-25T08:23:04Z</time>
      </trkpt>
      <trkpt lat="43.30425" lon="-0.50326">
        <ele>218.84</ele>
        <time>2017-02-25T08:23:21Z</time>
      </trkpt>
      <trkpt lat="43.30405" lon="-0.50302">
        <ele>219.8</ele>
        <time>2017-02-25T08:23:31Z</time>
      </trkpt>
      <trkpt lat="43.30404" lon="-0.50299">
        <ele>219.8</ele>
        <time>2017-02-25T08:23:32Z</time>
      </trkpt>
      <trkpt lat="43.30371" lon="-0.50269">
        <ele>221.24</ele>
        <time>2017-02-25T08:23:47Z</time>
      </trkpt>
      <trkpt lat="43.30352" lon="-0.50246">
        <ele>219.32</ele>
        <time>2017-02-25T08:23:58Z</time>
      </trkpt>
      <trkpt lat="43.30343" lon="-0.5024">
        <ele>216.91</ele>
        <time>2017-02-25T08:24:04Z</time>
      </trkpt>
      <trkpt lat="43.30342" lon="-0.50238">
        <ele>216.43</ele>
        <time>2017-02-25T08:24:05Z</time>
      </trkpt>
      <trkpt lat="43.30341" lon="-0.50236">
        <ele>215.95</ele>
        <time>2017-02-25T08:24:06Z</time>
      </trkpt>
      <trkpt lat="43.30335" lon="-0.50213">
        <ele>211.15</ele>
        <time>2017-02-25T08:24:15Z</time>
      </trkpt>
      <trkpt lat="43.30335" lon="-0.50201">
        <ele>210.19</ele>
        <time>2017-02-25T08:24:20Z</time>
      </trkpt>
      <trkpt lat="43.30333" lon="-0.50199">
        <ele>209.7</ele>
        <time>2017-02-25T08:24:21Z</time>
      </trkpt>
      <trkpt lat="43.30326" lon="-0.5019">
        <ele>206.34</ele>
        <time>2017-02-25T08:24:26Z</time>
      </trkpt>
      <trkpt lat="43.30325" lon="-0.50194">
        <ele>203.94</ele>
        <time>2017-02-25T08:24:31Z</time>
      </trkpt>
      <trkpt lat="43.30323" lon="-0.50195">
        <ele>202.98</ele>
        <time>2017-02-25T08:24:33Z</time>
      </trkpt>
      <trkpt lat="43.30311" lon="-0.50186">
        <ele>199.13</ele>
        <time>2017-02-25T08:24:44Z</time>
      </trkpt>
      <trkpt lat="43.30311" lon="-0.50185">
        <ele>199.13</ele>
        <time>2017-02-25T08:24:45Z</time>
      </trkpt>
      <trkpt lat="43.30308" lon="-0.50184">
        <ele>198.65</ele>
        <time>2017-02-25T08:24:47Z</time>
      </trkpt>
      <trkpt lat="43.30306" lon="-0.50181">
        <ele>197.69</ele>
        <time>2017-02-25T08:24:50Z</time>
      </trkpt>
      <trkpt lat="43.30305" lon="-0.50179">
        <ele>197.69</ele>
        <time>2017-02-25T08:24:51Z</time>
      </trkpt>
      <trkpt lat="43.30305" lon="-0.50172">
        <ele>197.21</ele>
        <time>2017-02-25T08:24:55Z</time>
      </trkpt>
      <trkpt lat="43.30305" lon="-0.50171">
        <ele>196.73</ele>
        <time>2017-02-25T08:24:56Z</time>
      </trkpt>
      <trkpt lat="43.30303" lon="-0.50165">
        <ele>195.28</ele>
        <time>2017-02-25T08:25:06Z</time>
      </trkpt>
      <trkpt lat="43.30302" lon="-0.50163">
        <ele>195.28</ele>
        <time>2017-02-25T08:25:07Z</time>
      </trkpt>
      <trkpt lat="43.303" lon="-0.50162">
        <ele>195.28</ele>
        <time>2017-02-25T08:25:08Z</time>
      </trkpt>
      <trkpt lat="43.30275" lon="-0.50145">
        <ele>191.92</ele>
        <time>2017-02-25T08:25:22Z</time>
      </trkpt>
      <trkpt lat="43.30275" lon="-0.50144">
        <ele>191.44</ele>
        <time>2017-02-25T08:25:23Z</time>
      </trkpt>
      <trkpt lat="43.30266" lon="-0.50135">
        <ele>186.15</ele>
        <time>2017-02-25T08:25:32Z</time>
      </trkpt>
      <trkpt lat="43.30265" lon="-0.50133">
        <ele>185.67</ele>
        <time>2017-02-25T08:25:33Z</time>
      </trkpt>
      <trkpt lat="43.30262" lon="-0.5013">
        <ele>184.23</ele>
        <time>2017-02-25T08:25:35Z</time>
      </trkpt>
      <trkpt lat="43.3026" lon="-0.50128">
        <ele>183.75</ele>
        <time>2017-02-25T08:25:36Z</time>
      </trkpt>
      <trkpt lat="43.30258" lon="-0.50127">
        <ele>183.27</ele>
        <time>2017-02-25T08:25:37Z</time>
      </trkpt>
      <trkpt lat="43.30238" lon="-0.50119">
        <ele>179.9</ele>
        <time>2017-02-25T08:25:47Z</time>
      </trkpt>
      <trkpt lat="43.30236" lon="-0.5012">
        <ele>179.42</ele>
        <time>2017-02-25T08:25:48Z</time>
      </trkpt>
      <trkpt lat="43.30234" lon="-0.5012">
        <ele>178.94</ele>
        <time>2017-02-25T08:25:49Z</time>
      </trkpt>
      <trkpt lat="43.3022" lon="-0.50118">
        <ele>177.5</ele>
        <time>2017-02-25T08:25:57Z</time>
      </trkpt>
      <trkpt lat="43.30211" lon="-0.50118">
        <ele>175.58</ele>
        <time>2017-02-25T08:26:08Z</time>
      </trkpt>
      <trkpt lat="43.3021" lon="-0.50116">
        <ele>175.1</ele>
        <time>2017-02-25T08:26:09Z</time>
      </trkpt>
      <trkpt lat="43.30204" lon="-0.50093">
        <ele>174.14</ele>
        <time>2017-02-25T08:26:18Z</time>
      </trkpt>
      <trkpt lat="43.30199" lon="-0.50082">
        <ele>173.17</ele>
        <time>2017-02-25T08:26:23Z</time>
      </trkpt>
      <trkpt lat="43.30195" lon="-0.50082">
        <ele>172.21</ele>
        <time>2017-02-25T08:26:25Z</time>
      </trkpt>
      <trkpt lat="43.30189" lon="-0.50083">
        <ele>170.77</ele>
        <time>2017-02-25T08:26:28Z</time>
      </trkpt>
      <trkpt lat="43.30186" lon="-0.50081">
        <ele>169.81</ele>
        <time>2017-02-25T08:26:33Z</time>
      </trkpt>
      <trkpt lat="43.30177" lon="-0.50105">
        <ele>166.93</ele>
        <time>2017-02-25T08:26:45Z</time>
      </trkpt>
      <trkpt lat="43.30175" lon="-0.50099">
        <ele>167.89</ele>
        <time>2017-02-25T08:26:56Z</time>
      </trkpt>
      <trkpt lat="43.30172" lon="-0.50087">
        <ele>171.25</ele>
        <time>2017-02-25T08:27:06Z</time>
      </trkpt>
      <trkpt lat="43.30167" lon="-0.50075">
        <ele>171.73</ele>
        <time>2017-02-25T08:27:15Z</time>
      </trkpt>
      <trkpt lat="43.3015" lon="-0.5007">
        <ele>171.73</ele>
        <time>2017-02-25T08:27:30Z</time>
      </trkpt>
      <trkpt lat="43.30144" lon="-0.50066">
        <ele>173.17</ele>
        <time>2017-02-25T08:27:36Z</time>
      </trkpt>
      <trkpt lat="43.3014" lon="-0.5006">
        <ele>175.58</ele>
        <time>2017-02-25T08:27:40Z</time>
      </trkpt>
      <trkpt lat="43.30143" lon="-0.50041">
        <ele>186.15</ele>
        <time>2017-02-25T08:27:52Z</time>
      </trkpt>
      <trkpt lat="43.30146" lon="-0.50015">
        <ele>188.08</ele>
        <time>2017-02-25T08:28:08Z</time>
      </trkpt>
      <trkpt lat="43.30147" lon="-0.49997">
        <ele>189.04</ele>
        <time>2017-02-25T08:28:18Z</time>
      </trkpt>
      <trkpt lat="43.30152" lon="-0.49979">
        <ele>190.48</ele>
        <time>2017-02-25T08:28:27Z</time>
      </trkpt>
      <trkpt lat="43.30156" lon="-0.49955">
        <ele>190.48</ele>
        <time>2017-02-25T08:28:41Z</time>
      </trkpt>
      <trkpt lat="43.30152" lon="-0.4994">
        <ele>190.48</ele>
        <time>2017-02-25T08:28:49Z</time>
      </trkpt>
      <trkpt lat="43.3014" lon="-0.49914">
        <ele>193.84</ele>
        <time>2017-02-25T08:29:04Z</time>
      </trkpt>
      <trkpt lat="43.30137" lon="-0.49883">
        <ele>192.88</ele>
        <time>2017-02-25T08:29:18Z</time>
      </trkpt>
      <trkpt lat="43.30138" lon="-0.49857">
        <ele>190.96</ele>
        <time>2017-02-25T08:29:30Z</time>
      </trkpt>
      <trkpt lat="43.30139" lon="-0.49842">
        <ele>191.92</ele>
        <time>2017-02-25T08:29:37Z</time>
      </trkpt>
      <trkpt lat="43.30136" lon="-0.49832">
        <ele>192.88</ele>
        <time>2017-02-25T08:29:42Z</time>
      </trkpt>
      <trkpt lat="43.3013" lon="-0.498">
        <ele>198.65</ele>
        <time>2017-02-25T08:29:58Z</time>
      </trkpt>
      <trkpt lat="43.30127" lon="-0.4978">
        <ele>201.05</ele>
        <time>2017-02-25T08:30:11Z</time>
      </trkpt>
      <trkpt lat="43.3012" lon="-0.49755">
        <ele>205.38</ele>
        <time>2017-02-25T08:30:23Z</time>
      </trkpt>
      <trkpt lat="43.30117" lon="-0.49748">
        <ele>205.86</ele>
        <time>2017-02-25T08:30:27Z</time>
      </trkpt>
      <trkpt lat="43.30111" lon="-0.49747">
        <ele>207.3</ele>
        <time>2017-02-25T08:30:31Z</time>
      </trkpt>
      <trkpt lat="43.30107" lon="-0.49749">
        <ele>207.78</ele>
        <time>2017-02-25T08:30:35Z</time>
      </trkpt>
      <trkpt lat="43.30099" lon="-0.49756">
        <ele>208.26</ele>
        <time>2017-02-25T08:30:41Z</time>
      </trkpt>
      <trkpt lat="43.30091" lon="-0.49778">
        <ele>211.63</ele>
        <time>2017-02-25T08:30:57Z</time>
      </trkpt>
      <trkpt lat="43.30081" lon="-0.49797">
        <ele>214.99</ele>
        <time>2017-02-25T08:31:11Z</time>
      </trkpt>
      <trkpt lat="43.30066" lon="-0.49805">
        <ele>212.59</ele>
        <time>2017-02-25T08:31:26Z</time>
      </trkpt>
      <trkpt lat="43.30046" lon="-0.49817">
        <ele>211.63</ele>
        <time>2017-02-25T08:31:40Z</time>
      </trkpt>
      <trkpt lat="43.30025" lon="-0.49828">
        <ele>211.15</ele>
        <time>2017-02-25T08:31:53Z</time>
      </trkpt>
      <trkpt lat="43.30003" lon="-0.4981">
        <ele>217.4</ele>
        <time>2017-02-25T08:32:10Z</time>
      </trkpt>
      <trkpt lat="43.29987" lon="-0.49804">
        <ele>220.28</ele>
        <time>2017-02-25T08:32:23Z</time>
      </trkpt>
      <trkpt lat="43.2997" lon="-0.49788">
        <ele>224.12</ele>
        <time>2017-02-25T08:32:40Z</time>
      </trkpt>
      <trkpt lat="43.29962" lon="-0.49781">
        <ele>226.53</ele>
        <time>2017-02-25T08:32:49Z</time>
      </trkpt>
      <trkpt lat="43.29961" lon="-0.4978">
        <ele>227.01</ele>
        <time>2017-02-25T08:32:50Z</time>
      </trkpt>
      <trkpt lat="43.29952" lon="-0.49773">
        <ele>229.89</ele>
        <time>2017-02-25T08:32:59Z</time>
      </trkpt>
      <trkpt lat="43.29937" lon="-0.4976">
        <ele>233.74</ele>
        <time>2017-02-25T08:33:13Z</time>
      </trkpt>
      <trkpt lat="43.29933" lon="-0.49757">
        <ele>234.22</ele>
        <time>2017-02-25T08:33:17Z</time>
      </trkpt>
      <trkpt lat="43.29921" lon="-0.49741">
        <ele>234.22</ele>
        <time>2017-02-25T08:33:34Z</time>
      </trkpt>
      <trkpt lat="43.29912" lon="-0.49722">
        <ele>233.74</ele>
        <time>2017-02-25T08:33:49Z</time>
      </trkpt>
      <trkpt lat="43.29906" lon="-0.49716">
        <ele>234.7</ele>
        <time>2017-02-25T08:33:55Z</time>
      </trkpt>
      <trkpt lat="43.29905" lon="-0.49715">
        <ele>235.18</ele>
        <time>2017-02-25T08:33:56Z</time>
      </trkpt>
      <trkpt lat="43.29903" lon="-0.49713">
        <ele>235.66</ele>
        <time>2017-02-25T08:33:58Z</time>
      </trkpt>
      <trkpt lat="43.29884" lon="-0.49705">
        <ele>236.62</ele>
        <time>2017-02-25T08:34:14Z</time>
      </trkpt>
      <trkpt lat="43.29868" lon="-0.49695">
        <ele>242.87</ele>
        <time>2017-02-25T08:34:30Z</time>
      </trkpt>
      <trkpt lat="43.29855" lon="-0.4967">
        <ele>247.2</ele>
        <time>2017-02-25T08:34:45Z</time>
      </trkpt>
      <trkpt lat="43.29857" lon="-0.49643">
        <ele>249.6</ele>
        <time>2017-02-25T08:35:03Z</time>
      </trkpt>
      <trkpt lat="43.29861" lon="-0.4962">
        <ele>250.08</ele>
        <time>2017-02-25T08:35:18Z</time>
      </trkpt>
      <trkpt lat="43.29861" lon="-0.49618">
        <ele>250.08</ele>
        <time>2017-02-25T08:35:19Z</time>
      </trkpt>
      <trkpt lat="43.29861" lon="-0.49617">
        <ele>250.08</ele>
        <time>2017-02-25T08:35:20Z</time>
      </trkpt>
      <trkpt lat="43.29867" lon="-0.49587">
        <ele>251.52</ele>
        <time>2017-02-25T08:35:38Z</time>
      </trkpt>
      <trkpt lat="43.29868" lon="-0.49578">
        <ele>252</ele>
        <time>2017-02-25T08:35:43Z</time>
      </trkpt>
      <trkpt lat="43.29869" lon="-0.49576">
        <ele>252.48</ele>
        <time>2017-02-25T08:35:44Z</time>
      </trkpt>
      <trkpt lat="43.29869" lon="-0.49575">
        <ele>252.48</ele>
        <time>2017-02-25T08:35:45Z</time>
      </trkpt>
      <trkpt lat="43.2987" lon="-0.49573">
        <ele>252.96</ele>
        <time>2017-02-25T08:35:46Z</time>
      </trkpt>
      <trkpt lat="43.2987" lon="-0.49571">
        <ele>252.96</ele>
        <time>2017-02-25T08:35:47Z</time>
      </trkpt>
      <trkpt lat="43.2987" lon="-0.4957">
        <ele>253.44</ele>
        <time>2017-02-25T08:35:48Z</time>
      </trkpt>
      <trkpt lat="43.29877" lon="-0.49548">
        <ele>255.85</ele>
        <time>2017-02-25T08:36:03Z</time>
      </trkpt>
      <trkpt lat="43.2988" lon="-0.49525">
        <ele>256.33</ele>
        <time>2017-02-25T08:36:16Z</time>
      </trkpt>
      <trkpt lat="43.29881" lon="-0.49499">
        <ele>261.62</ele>
        <time>2017-02-25T08:36:32Z</time>
      </trkpt>
      <trkpt lat="43.29881" lon="-0.49476">
        <ele>266.42</ele>
        <time>2017-02-25T08:36:46Z</time>
      </trkpt>
      <trkpt lat="43.2988" lon="-0.49468">
        <ele>268.83</ele>
        <time>2017-02-25T08:36:51Z</time>
      </trkpt>
      <trkpt lat="43.2988" lon="-0.49466">
        <ele>268.83</ele>
        <time>2017-02-25T08:36:52Z</time>
      </trkpt>
      <trkpt lat="43.2988" lon="-0.49464">
        <ele>269.31</ele>
        <time>2017-02-25T08:36:53Z</time>
      </trkpt>
      <trkpt lat="43.2988" lon="-0.49462">
        <ele>269.79</ele>
        <time>2017-02-25T08:36:54Z</time>
      </trkpt>
      <trkpt lat="43.2988" lon="-0.4946">
        <ele>269.79</ele>
        <time>2017-02-25T08:36:55Z</time>
      </trkpt>
      <trkpt lat="43.2988" lon="-0.49458">
        <ele>270.27</ele>
        <time>2017-02-25T08:36:56Z</time>
      </trkpt>
      <trkpt lat="43.2988" lon="-0.49426">
        <ele>273.15</ele>
        <time>2017-02-25T08:37:12Z</time>
      </trkpt>
      <trkpt lat="43.29884" lon="-0.49398">
        <ele>272.67</ele>
        <time>2017-02-25T08:37:28Z</time>
      </trkpt>
      <trkpt lat="43.29886" lon="-0.49374">
        <ele>275.07</ele>
        <time>2017-02-25T08:37:44Z</time>
      </trkpt>
      <trkpt lat="43.29886" lon="-0.49373">
        <ele>275.56</ele>
        <time>2017-02-25T08:37:45Z</time>
      </trkpt>
      <trkpt lat="43.29886" lon="-0.49371">
        <ele>275.56</ele>
        <time>2017-02-25T08:37:46Z</time>
      </trkpt>
      <trkpt lat="43.29886" lon="-0.49369">
        <ele>275.56</ele>
        <time>2017-02-25T08:37:47Z</time>
      </trkpt>
      <trkpt lat="43.29886" lon="-0.49368">
        <ele>276.04</ele>
        <time>2017-02-25T08:37:48Z</time>
      </trkpt>
      <trkpt lat="43.29886" lon="-0.49366">
        <ele>276.04</ele>
        <time>2017-02-25T08:37:49Z</time>
      </trkpt>
      <trkpt lat="43.29886" lon="-0.49365">
        <ele>276.04</ele>
        <time>2017-02-25T08:37:50Z</time>
      </trkpt>
      <trkpt lat="43.29887" lon="-0.49363">
        <ele>276.04</ele>
        <time>2017-02-25T08:37:51Z</time>
      </trkpt>
      <trkpt lat="43.29887" lon="-0.49362">
        <ele>276.04</ele>
        <time>2017-02-25T08:37:52Z</time>
      </trkpt>
      <trkpt lat="43.29887" lon="-0.4936">
        <ele>276.04</ele>
        <time>2017-02-25T08:37:53Z</time>
      </trkpt>
      <trkpt lat="43.29887" lon="-0.49356">
        <ele>276.52</ele>
        <time>2017-02-25T08:37:55Z</time>
      </trkpt>
      <trkpt lat="43.29887" lon="-0.49354">
        <ele>276.04</ele>
        <time>2017-02-25T08:37:56Z</time>
      </trkpt>
      <trkpt lat="43.29887" lon="-0.49353">
        <ele>276.04</ele>
        <time>2017-02-25T08:37:57Z</time>
      </trkpt>
      <trkpt lat="43.29887" lon="-0.49351">
        <ele>276.52</ele>
        <time>2017-02-25T08:37:58Z</time>
      </trkpt>
      <trkpt lat="43.29887" lon="-0.49349">
        <ele>276.52</ele>
        <time>2017-02-25T08:37:59Z</time>
      </trkpt>
      <trkpt lat="43.29891" lon="-0.49321">
        <ele>279.4</ele>
        <time>2017-02-25T08:38:15Z</time>
      </trkpt>
      <trkpt lat="43.29895" lon="-0.49287">
        <ele>283.73</ele>
        <time>2017-02-25T08:38:32Z</time>
      </trkpt>
      <trkpt lat="43.29897" lon="-0.49276">
        <ele>284.69</ele>
        <time>2017-02-25T08:38:38Z</time>
      </trkpt>
      <trkpt lat="43.29898" lon="-0.49274">
        <ele>284.69</ele>
        <time>2017-02-25T08:38:39Z</time>
      </trkpt>
      <trkpt lat="43.29907" lon="-0.49241">
        <ele>286.13</ele>
        <time>2017-02-25T08:38:56Z</time>
      </trkpt>
      <trkpt lat="43.29917" lon="-0.49219">
        <ele>289.97</ele>
        <time>2017-02-25T08:39:09Z</time>
      </trkpt>
      <trkpt lat="43.29928" lon="-0.49192">
        <ele>292.38</ele>
        <time>2017-02-25T08:39:22Z</time>
      </trkpt>
      <trkpt lat="43.2994" lon="-0.49166">
        <ele>292.38</ele>
        <time>2017-02-25T08:39:33Z</time>
      </trkpt>
      <trkpt lat="43.29962" lon="-0.49112">
        <ele>287.57</ele>
        <time>2017-02-25T08:39:49Z</time>
      </trkpt>
      <trkpt lat="43.29978" lon="-0.49064">
        <ele>287.57</ele>
        <time>2017-02-25T08:40:05Z</time>
      </trkpt>
      <trkpt lat="43.2998" lon="-0.49012">
        <ele>288.05</ele>
        <time>2017-02-25T08:40:20Z</time>
      </trkpt>
      <trkpt lat="43.29965" lon="-0.48956">
        <ele>287.09</ele>
        <time>2017-02-25T08:40:34Z</time>
      </trkpt>
      <trkpt lat="43.2995" lon="-0.48919">
        <ele>285.65</ele>
        <time>2017-02-25T08:40:40Z</time>
      </trkpt>
      <trkpt lat="43.29949" lon="-0.48911">
        <ele>284.69</ele>
        <time>2017-02-25T08:40:41Z</time>
      </trkpt>
      <trkpt lat="43.29948" lon="-0.48901">
        <ele>284.21</ele>
        <time>2017-02-25T08:40:42Z</time>
      </trkpt>
      <trkpt lat="43.29947" lon="-0.4889">
        <ele>283.25</ele>
        <time>2017-02-25T08:40:43Z</time>
      </trkpt>
      <trkpt lat="43.29948" lon="-0.48878">
        <ele>282.28</ele>
        <time>2017-02-25T08:40:44Z</time>
      </trkpt>
      <trkpt lat="43.2995" lon="-0.48866">
        <ele>281.32</ele>
        <time>2017-02-25T08:40:45Z</time>
      </trkpt>
      <trkpt lat="43.29955" lon="-0.48853">
        <ele>280.36</ele>
        <time>2017-02-25T08:40:46Z</time>
      </trkpt>
      <trkpt lat="43.2996" lon="-0.48843">
        <ele>279.88</ele>
        <time>2017-02-25T08:40:47Z</time>
      </trkpt>
      <trkpt lat="43.29964" lon="-0.48834">
        <ele>279.4</ele>
        <time>2017-02-25T08:40:48Z</time>
      </trkpt>
      <trkpt lat="43.29971" lon="-0.48824">
        <ele>278.92</ele>
        <time>2017-02-25T08:40:49Z</time>
      </trkpt>
      <trkpt lat="43.29976" lon="-0.48816">
        <ele>278.44</ele>
        <time>2017-02-25T08:40:50Z</time>
      </trkpt>
      <trkpt lat="43.3" lon="-0.4879">
        <ele>278.44</ele>
        <time>2017-02-25T08:40:54Z</time>
      </trkpt>
      <trkpt lat="43.30005" lon="-0.48786">
        <ele>278.44</ele>
        <time>2017-02-25T08:40:55Z</time>
      </trkpt>
      <trkpt lat="43.30046" lon="-0.48765">
        <ele>278.92</ele>
        <time>2017-02-25T08:41:05Z</time>
      </trkpt>
      <trkpt lat="43.3007" lon="-0.48755">
        <ele>280.36</ele>
        <time>2017-02-25T08:41:17Z</time>
      </trkpt>
      <trkpt lat="43.30101" lon="-0.48759">
        <ele>281.32</ele>
        <time>2017-02-25T08:41:30Z</time>
      </trkpt>
      <trkpt lat="43.30138" lon="-0.48783">
        <ele>281.32</ele>
        <time>2017-02-25T08:41:44Z</time>
      </trkpt>
      <trkpt lat="43.30182" lon="-0.48814">
        <ele>282.77</ele>
        <time>2017-02-25T08:41:59Z</time>
      </trkpt>
      <trkpt lat="43.30228" lon="-0.48846">
        <ele>285.65</ele>
        <time>2017-02-25T08:42:15Z</time>
      </trkpt>
      <trkpt lat="43.30269" lon="-0.48879">
        <ele>288.05</ele>
        <time>2017-02-25T08:42:28Z</time>
      </trkpt>
      <trkpt lat="43.30288" lon="-0.48889">
        <ele>287.09</ele>
        <time>2017-02-25T08:42:33Z</time>
      </trkpt>
      <trkpt lat="43.30362" lon="-0.48899">
        <ele>282.77</ele>
        <time>2017-02-25T08:42:45Z</time>
      </trkpt>
      <trkpt lat="43.30466" lon="-0.48893">
        <ele>277</ele>
        <time>2017-02-25T08:42:57Z</time>
      </trkpt>
      <trkpt lat="43.30516" lon="-0.48887">
        <ele>276.52</ele>
        <time>2017-02-25T08:43:07Z</time>
      </trkpt>
      <trkpt lat="43.30566" lon="-0.48884">
        <ele>277.96</ele>
        <time>2017-02-25T08:43:19Z</time>
      </trkpt>
      <trkpt lat="43.30587" lon="-0.48885">
        <ele>277.96</ele>
        <time>2017-02-25T08:43:23Z</time>
      </trkpt>
      <trkpt lat="43.30662" lon="-0.48882">
        <ele>275.56</ele>
        <time>2017-02-25T08:43:33Z</time>
      </trkpt>
      <trkpt lat="43.30702" lon="-0.48878">
        <ele>274.59</ele>
        <time>2017-02-25T08:43:38Z</time>
      </trkpt>
      <trkpt lat="43.30726" lon="-0.4887">
        <ele>275.07</ele>
        <time>2017-02-25T08:43:42Z</time>
      </trkpt>
      <trkpt lat="43.3073" lon="-0.48867">
        <ele>275.07</ele>
        <time>2017-02-25T08:43:43Z</time>
      </trkpt>
      <trkpt lat="43.30734" lon="-0.48864">
        <ele>275.56</ele>
        <time>2017-02-25T08:43:44Z</time>
      </trkpt>
      <trkpt lat="43.30736" lon="-0.48861">
        <ele>275.56</ele>
        <time>2017-02-25T08:43:45Z</time>
      </trkpt>
      <trkpt lat="43.30739" lon="-0.48857">
        <ele>275.56</ele>
        <time>2017-02-25T08:43:46Z</time>
      </trkpt>
      <trkpt lat="43.30741" lon="-0.48853">
        <ele>276.04</ele>
        <time>2017-02-25T08:43:47Z</time>
      </trkpt>
      <trkpt lat="43.30755" lon="-0.48809">
        <ele>281.8</ele>
        <time>2017-02-25T08:43:58Z</time>
      </trkpt>
      <trkpt lat="43.30763" lon="-0.48733">
        <ele>281.8</ele>
        <time>2017-02-25T08:44:07Z</time>
      </trkpt>
      <trkpt lat="43.30782" lon="-0.48614">
        <ele>277</ele>
        <time>2017-02-25T08:44:19Z</time>
      </trkpt>
      <trkpt lat="43.30784" lon="-0.48607">
        <ele>277</ele>
        <time>2017-02-25T08:44:20Z</time>
      </trkpt>
      <trkpt lat="43.30794" lon="-0.4857">
        <ele>273.15</ele>
        <time>2017-02-25T08:44:29Z</time>
      </trkpt>
      <trkpt lat="43.30797" lon="-0.48559">
        <ele>271.23</ele>
        <time>2017-02-25T08:44:39Z</time>
      </trkpt>
      <trkpt lat="43.30798" lon="-0.48556">
        <ele>271.23</ele>
        <time>2017-02-25T08:44:40Z</time>
      </trkpt>
      <trkpt lat="43.30802" lon="-0.48536">
        <ele>270.27</ele>
        <time>2017-02-25T08:44:44Z</time>
      </trkpt>
      <trkpt lat="43.30802" lon="-0.48477">
        <ele>264.02</ele>
        <time>2017-02-25T08:44:54Z</time>
      </trkpt>
      <trkpt lat="43.30803" lon="-0.48426">
        <ele>256.81</ele>
        <time>2017-02-25T08:45:05Z</time>
      </trkpt>
      <trkpt lat="43.30804" lon="-0.48378">
        <ele>253.93</ele>
        <time>2017-02-25T08:45:14Z</time>
      </trkpt>
      <trkpt lat="43.30806" lon="-0.48372">
        <ele>253.44</ele>
        <time>2017-02-25T08:45:15Z</time>
      </trkpt>
      <trkpt lat="43.30808" lon="-0.48365">
        <ele>252.96</ele>
        <time>2017-02-25T08:45:16Z</time>
      </trkpt>
      <trkpt lat="43.30828" lon="-0.48314">
        <ele>250.56</ele>
        <time>2017-02-25T08:45:23Z</time>
      </trkpt>
      <trkpt lat="43.30851" lon="-0.48273">
        <ele>245.75</ele>
        <time>2017-02-25T08:45:31Z</time>
      </trkpt>
      <trkpt lat="43.30855" lon="-0.48267">
        <ele>244.31</ele>
        <time>2017-02-25T08:45:32Z</time>
      </trkpt>
      <trkpt lat="43.30865" lon="-0.4825">
        <ele>240.95</ele>
        <time>2017-02-25T08:45:35Z</time>
      </trkpt>
      <trkpt lat="43.30868" lon="-0.48246">
        <ele>239.99</ele>
        <time>2017-02-25T08:45:36Z</time>
      </trkpt>
      <trkpt lat="43.30872" lon="-0.48242">
        <ele>239.02</ele>
        <time>2017-02-25T08:45:37Z</time>
      </trkpt>
      <trkpt lat="43.30911" lon="-0.48208">
        <ele>229.41</ele>
        <time>2017-02-25T08:45:46Z</time>
      </trkpt>
      <trkpt lat="43.30948" lon="-0.48179">
        <ele>220.76</ele>
        <time>2017-02-25T08:45:55Z</time>
      </trkpt>
      <trkpt lat="43.30982" lon="-0.48148">
        <ele>215.47</ele>
        <time>2017-02-25T08:46:04Z</time>
      </trkpt>
      <trkpt lat="43.31021" lon="-0.48101">
        <ele>206.82</ele>
        <time>2017-02-25T08:46:13Z</time>
      </trkpt>
      <trkpt lat="43.31031" lon="-0.48082">
        <ele>203.46</ele>
        <time>2017-02-25T08:46:16Z</time>
      </trkpt>
      <trkpt lat="43.3104" lon="-0.48066">
        <ele>201.53</ele>
        <time>2017-02-25T08:46:18Z</time>
      </trkpt>
      <trkpt lat="43.31046" lon="-0.48059">
        <ele>200.57</ele>
        <time>2017-02-25T08:46:19Z</time>
      </trkpt>
      <trkpt lat="43.31055" lon="-0.48052">
        <ele>199.13</ele>
        <time>2017-02-25T08:46:20Z</time>
      </trkpt>
      <trkpt lat="43.31064" lon="-0.48047">
        <ele>197.69</ele>
        <time>2017-02-25T08:46:21Z</time>
      </trkpt>
      <trkpt lat="43.31074" lon="-0.48042">
        <ele>195.77</ele>
        <time>2017-02-25T08:46:22Z</time>
      </trkpt>
      <trkpt lat="43.31172" lon="-0.47978">
        <ele>180.38</ele>
        <time>2017-02-25T08:46:31Z</time>
      </trkpt>
      <trkpt lat="43.31199" lon="-0.47943">
        <ele>175.58</ele>
        <time>2017-02-25T08:46:34Z</time>
      </trkpt>
      <trkpt lat="43.31252" lon="-0.47847">
        <ele>166.93</ele>
        <time>2017-02-25T08:46:41Z</time>
      </trkpt>
      <trkpt lat="43.3126" lon="-0.47837">
        <ele>165.96</ele>
        <time>2017-02-25T08:46:42Z</time>
      </trkpt>
      <trkpt lat="43.31299" lon="-0.4779">
        <ele>161.16</ele>
        <time>2017-02-25T08:46:49Z</time>
      </trkpt>
      <trkpt lat="43.313" lon="-0.47784">
        <ele>158.27</ele>
        <time>2017-02-25T08:46:59Z</time>
      </trkpt>
      <trkpt lat="43.31305" lon="-0.47781">
        <ele>159.24</ele>
        <time>2017-02-25T08:47:19Z</time>
      </trkpt>
      <trkpt lat="43.31341" lon="-0.47777">
        <ele>157.79</ele>
        <time>2017-02-25T08:47:28Z</time>
      </trkpt>
      <trkpt lat="43.31426" lon="-0.47777">
        <ele>153.47</ele>
        <time>2017-02-25T08:47:42Z</time>
      </trkpt>
      <trkpt lat="43.31433" lon="-0.47776">
        <ele>152.99</ele>
        <time>2017-02-25T08:47:43Z</time>
      </trkpt>
      <trkpt lat="43.31438" lon="-0.47775">
        <ele>152.51</ele>
        <time>2017-02-25T08:47:44Z</time>
      </trkpt>
      <trkpt lat="43.31452" lon="-0.47772">
        <ele>151.54</ele>
        <time>2017-02-25T08:47:50Z</time>
      </trkpt>
      <trkpt lat="43.31454" lon="-0.47773">
        <ele>151.06</ele>
        <time>2017-02-25T08:47:51Z</time>
      </trkpt>
      <trkpt lat="43.31456" lon="-0.47777">
        <ele>151.06</ele>
        <time>2017-02-25T08:47:52Z</time>
      </trkpt>
      <trkpt lat="43.31457" lon="-0.4778">
        <ele>151.06</ele>
        <time>2017-02-25T08:47:53Z</time>
      </trkpt>
      <trkpt lat="43.31459" lon="-0.47784">
        <ele>151.54</ele>
        <time>2017-02-25T08:47:54Z</time>
      </trkpt>
      <trkpt lat="43.31493" lon="-0.47846">
        <ele>153.47</ele>
        <time>2017-02-25T08:48:08Z</time>
      </trkpt>
      <trkpt lat="43.31518" lon="-0.47882">
        <ele>152.51</ele>
        <time>2017-02-25T08:48:15Z</time>
      </trkpt>
      <trkpt lat="43.31522" lon="-0.47886">
        <ele>152.51</ele>
        <time>2017-02-25T08:48:16Z</time>
      </trkpt>
      <trkpt lat="43.31589" lon="-0.47925">
        <ele>151.06</ele>
        <time>2017-02-25T08:48:29Z</time>
      </trkpt>
      <trkpt lat="43.31642" lon="-0.47943">
        <ele>150.1</ele>
        <time>2017-02-25T08:48:42Z</time>
      </trkpt>
      <trkpt lat="43.31645" lon="-0.47946">
        <ele>149.62</ele>
        <time>2017-02-25T08:48:43Z</time>
      </trkpt>
      <trkpt lat="43.31646" lon="-0.4795">
        <ele>149.62</ele>
        <time>2017-02-25T08:48:44Z</time>
      </trkpt>
      <trkpt lat="43.31645" lon="-0.47954">
        <ele>149.62</ele>
        <time>2017-02-25T08:48:45Z</time>
      </trkpt>
      <trkpt lat="43.31643" lon="-0.47958">
        <ele>149.14</ele>
        <time>2017-02-25T08:48:46Z</time>
      </trkpt>
      <trkpt lat="43.31641" lon="-0.47961">
        <ele>149.14</ele>
        <time>2017-02-25T08:48:47Z</time>
      </trkpt>
      <trkpt lat="43.31611" lon="-0.48017">
        <ele>150.1</ele>
        <time>2017-02-25T08:49:00Z</time>
      </trkpt>
      <trkpt lat="43.31599" lon="-0.48071">
        <ele>153.47</ele>
        <time>2017-02-25T08:49:12Z</time>
      </trkpt>
      <trkpt lat="43.31567" lon="-0.48123">
        <ele>157.79</ele>
        <time>2017-02-25T08:49:28Z</time>
      </trkpt>
      <trkpt lat="43.31543" lon="-0.48168">
        <ele>161.16</ele>
        <time>2017-02-25T08:49:46Z</time>
      </trkpt>
      <trkpt lat="43.31551" lon="-0.48195">
        <ele>162.6</ele>
        <time>2017-02-25T08:49:57Z</time>
      </trkpt>
      <trkpt lat="43.31581" lon="-0.48222">
        <ele>162.6</ele>
        <time>2017-02-25T08:50:08Z</time>
      </trkpt>
      <trkpt lat="43.31627" lon="-0.48254">
        <ele>160.68</ele>
        <time>2017-02-25T08:50:22Z</time>
      </trkpt>
      <trkpt lat="43.31658" lon="-0.48277">
        <ele>158.27</ele>
        <time>2017-02-25T08:50:30Z</time>
      </trkpt>
      <trkpt lat="43.31669" lon="-0.48285">
        <ele>157.31</ele>
        <time>2017-02-25T08:50:32Z</time>
      </trkpt>
      <trkpt lat="43.31733" lon="-0.48334">
        <ele>152.51</ele>
        <time>2017-02-25T08:50:45Z</time>
      </trkpt>
      <trkpt lat="43.31765" lon="-0.48365">
        <ele>153.47</ele>
        <time>2017-02-25T08:50:54Z</time>
      </trkpt>
      <trkpt lat="43.31793" lon="-0.48386">
        <ele>155.87</ele>
        <time>2017-02-25T08:51:03Z</time>
      </trkpt>
      <trkpt lat="43.31795" lon="-0.48388">
        <ele>155.87</ele>
        <time>2017-02-25T08:51:04Z</time>
      </trkpt>
      <trkpt lat="43.31818" lon="-0.48416">
        <ele>157.31</ele>
        <time>2017-02-25T08:51:14Z</time>
      </trkpt>
      <trkpt lat="43.31818" lon="-0.48418">
        <ele>156.83</ele>
        <time>2017-02-25T08:51:15Z</time>
      </trkpt>
      <trkpt lat="43.31816" lon="-0.48434">
        <ele>156.35</ele>
        <time>2017-02-25T08:51:24Z</time>
      </trkpt>
      <trkpt lat="43.31816" lon="-0.48436">
        <ele>156.35</ele>
        <time>2017-02-25T08:51:25Z</time>
      </trkpt>
      <trkpt lat="43.31811" lon="-0.48457">
        <ele>158.75</ele>
        <time>2017-02-25T08:51:38Z</time>
      </trkpt>
      <trkpt lat="43.31811" lon="-0.48458">
        <ele>158.75</ele>
        <time>2017-02-25T08:51:39Z</time>
      </trkpt>
      <trkpt lat="43.31811" lon="-0.48461">
        <ele>158.75</ele>
        <time>2017-02-25T08:51:40Z</time>
      </trkpt>
      <trkpt lat="43.31811" lon="-0.48464">
        <ele>158.75</ele>
        <time>2017-02-25T08:51:41Z</time>
      </trkpt>
      <trkpt lat="43.31818" lon="-0.48477">
        <ele>159.72</ele>
        <time>2017-02-25T08:51:49Z</time>
      </trkpt>
      <trkpt lat="43.31819" lon="-0.48479">
        <ele>159.72</ele>
        <time>2017-02-25T08:51:50Z</time>
      </trkpt>
      <trkpt lat="43.31821" lon="-0.4848">
        <ele>159.72</ele>
        <time>2017-02-25T08:51:51Z</time>
      </trkpt>
      <trkpt lat="43.31822" lon="-0.48482">
        <ele>159.72</ele>
        <time>2017-02-25T08:51:52Z</time>
      </trkpt>
      <trkpt lat="43.31824" lon="-0.48484">
        <ele>159.72</ele>
        <time>2017-02-25T08:51:53Z</time>
      </trkpt>
      <trkpt lat="43.31825" lon="-0.48487">
        <ele>159.72</ele>
        <time>2017-02-25T08:51:54Z</time>
      </trkpt>
      <trkpt lat="43.31827" lon="-0.48489">
        <ele>160.2</ele>
        <time>2017-02-25T08:51:55Z</time>
      </trkpt>
      <trkpt lat="43.31851" lon="-0.48524">
        <ele>165</ele>
        <time>2017-02-25T08:52:11Z</time>
      </trkpt>
      <trkpt lat="43.31886" lon="-0.48555">
        <ele>165.48</ele>
        <time>2017-02-25T08:52:23Z</time>
      </trkpt>
      <trkpt lat="43.31923" lon="-0.48587">
        <ele>164.04</ele>
        <time>2017-02-25T08:52:34Z</time>
      </trkpt>
      <trkpt lat="43.31949" lon="-0.48624">
        <ele>160.2</ele>
        <time>2017-02-25T08:52:48Z</time>
      </trkpt>
      <trkpt lat="43.31956" lon="-0.48638">
        <ele>159.24</ele>
        <time>2017-02-25T08:52:53Z</time>
      </trkpt>
      <trkpt lat="43.31955" lon="-0.48642">
        <ele>159.24</ele>
        <time>2017-02-25T08:52:54Z</time>
      </trkpt>
      <trkpt lat="43.31954" lon="-0.48644">
        <ele>159.24</ele>
        <time>2017-02-25T08:52:55Z</time>
      </trkpt>
      <trkpt lat="43.31952" lon="-0.48647">
        <ele>159.24</ele>
        <time>2017-02-25T08:52:56Z</time>
      </trkpt>
      <trkpt lat="43.3195" lon="-0.48649">
        <ele>159.24</ele>
        <time>2017-02-25T08:52:57Z</time>
      </trkpt>
      <trkpt lat="43.31949" lon="-0.48652">
        <ele>159.24</ele>
        <time>2017-02-25T08:52:58Z</time>
      </trkpt>
      <trkpt lat="43.31947" lon="-0.48654">
        <ele>159.72</ele>
        <time>2017-02-25T08:52:59Z</time>
      </trkpt>
      <trkpt lat="43.31945" lon="-0.48657">
        <ele>160.2</ele>
        <time>2017-02-25T08:53:00Z</time>
      </trkpt>
      <trkpt lat="43.31944" lon="-0.48659">
        <ele>160.2</ele>
        <time>2017-02-25T08:53:01Z</time>
      </trkpt>
      <trkpt lat="43.31942" lon="-0.48661">
        <ele>160.2</ele>
        <time>2017-02-25T08:53:02Z</time>
      </trkpt>
      <trkpt lat="43.31916" lon="-0.48692">
        <ele>161.64</ele>
        <time>2017-02-25T08:53:19Z</time>
      </trkpt>
      <trkpt lat="43.31897" lon="-0.48713">
        <ele>163.08</ele>
        <time>2017-02-25T08:53:32Z</time>
      </trkpt>
      <trkpt lat="43.31873" lon="-0.48736">
        <ele>166.45</ele>
        <time>2017-02-25T08:53:45Z</time>
      </trkpt>
      <trkpt lat="43.31845" lon="-0.48759">
        <ele>177.02</ele>
        <time>2017-02-25T08:53:59Z</time>
      </trkpt>
      <trkpt lat="43.31843" lon="-0.48761">
        <ele>177.5</ele>
        <time>2017-02-25T08:54:00Z</time>
      </trkpt>
      <trkpt lat="43.31842" lon="-0.48763">
        <ele>177.98</ele>
        <time>2017-02-25T08:54:01Z</time>
      </trkpt>
      <trkpt lat="43.3184" lon="-0.48764">
        <ele>178.46</ele>
        <time>2017-02-25T08:54:02Z</time>
      </trkpt>
      <trkpt lat="43.31815" lon="-0.48785">
        <ele>180.38</ele>
        <time>2017-02-25T08:54:15Z</time>
      </trkpt>
      <trkpt lat="43.31795" lon="-0.48809">
        <ele>187.11</ele>
        <time>2017-02-25T08:54:28Z</time>
      </trkpt>
      <trkpt lat="43.31771" lon="-0.48831">
        <ele>192.4</ele>
        <time>2017-02-25T08:54:42Z</time>
      </trkpt>
      <trkpt lat="43.31755" lon="-0.48829">
        <ele>194.8</ele>
        <time>2017-02-25T08:54:53Z</time>
      </trkpt>
      <trkpt lat="43.31754" lon="-0.4883">
        <ele>195.28</ele>
        <time>2017-02-25T08:54:54Z</time>
      </trkpt>
      <trkpt lat="43.31753" lon="-0.4883">
        <ele>195.77</ele>
        <time>2017-02-25T08:54:55Z</time>
      </trkpt>
      <trkpt lat="43.3175" lon="-0.48831">
        <ele>196.25</ele>
        <time>2017-02-25T08:54:57Z</time>
      </trkpt>
      <trkpt lat="43.31746" lon="-0.48832">
        <ele>196.73</ele>
        <time>2017-02-25T08:55:00Z</time>
      </trkpt>
      <trkpt lat="43.31739" lon="-0.4884">
        <ele>195.77</ele>
        <time>2017-02-25T08:55:07Z</time>
      </trkpt>
      <trkpt lat="43.31721" lon="-0.48844">
        <ele>195.28</ele>
        <time>2017-02-25T08:55:19Z</time>
      </trkpt>
      <trkpt lat="43.31719" lon="-0.48846">
        <ele>195.77</ele>
        <time>2017-02-25T08:55:21Z</time>
      </trkpt>
      <trkpt lat="43.31722" lon="-0.48852">
        <ele>195.28</ele>
        <time>2017-02-25T08:55:26Z</time>
      </trkpt>
      <trkpt lat="43.31721" lon="-0.48859">
        <ele>194.32</ele>
        <time>2017-02-25T08:55:32Z</time>
      </trkpt>
      <trkpt lat="43.31711" lon="-0.48861">
        <ele>194.32</ele>
        <time>2017-02-25T08:55:45Z</time>
      </trkpt>
      <trkpt lat="43.31708" lon="-0.48863">
        <ele>192.88</ele>
        <time>2017-02-25T08:55:50Z</time>
      </trkpt>
      <trkpt lat="43.31697" lon="-0.4887">
        <ele>192.88</ele>
        <time>2017-02-25T08:56:00Z</time>
      </trkpt>
      <trkpt lat="43.31695" lon="-0.48868">
        <ele>192.4</ele>
        <time>2017-02-25T08:56:02Z</time>
      </trkpt>
      <trkpt lat="43.3168" lon="-0.48868">
        <ele>190.96</ele>
        <time>2017-02-25T08:56:13Z</time>
      </trkpt>
      <trkpt lat="43.31674" lon="-0.48868">
        <ele>190.96</ele>
        <time>2017-02-25T08:56:18Z</time>
      </trkpt>
      <trkpt lat="43.31652" lon="-0.48881">
        <ele>197.21</ele>
        <time>2017-02-25T08:56:33Z</time>
      </trkpt>
      <trkpt lat="43.31645" lon="-0.48892">
        <ele>197.69</ele>
        <time>2017-02-25T08:56:44Z</time>
      </trkpt>
      <trkpt lat="43.31628" lon="-0.4889">
        <ele>203.46</ele>
        <time>2017-02-25T08:56:58Z</time>
      </trkpt>
      <trkpt lat="43.31614" lon="-0.48887">
        <ele>202.49</ele>
        <time>2017-02-25T08:57:11Z</time>
      </trkpt>
      <trkpt lat="43.31598" lon="-0.48888">
        <ele>203.46</ele>
        <time>2017-02-25T08:57:24Z</time>
      </trkpt>
      <trkpt lat="43.31587" lon="-0.48891">
        <ele>199.61</ele>
        <time>2017-02-25T08:57:34Z</time>
      </trkpt>
      <trkpt lat="43.31586" lon="-0.48892">
        <ele>199.13</ele>
        <time>2017-02-25T08:57:35Z</time>
      </trkpt>
      <trkpt lat="43.31569" lon="-0.489">
        <ele>199.13</ele>
        <time>2017-02-25T08:57:50Z</time>
      </trkpt>
      <trkpt lat="43.31548" lon="-0.48903">
        <ele>199.61</ele>
        <time>2017-02-25T08:58:04Z</time>
      </trkpt>
      <trkpt lat="43.31536" lon="-0.48911">
        <ele>201.05</ele>
        <time>2017-02-25T08:58:15Z</time>
      </trkpt>
      <trkpt lat="43.31523" lon="-0.48925">
        <ele>196.73</ele>
        <time>2017-02-25T08:58:30Z</time>
      </trkpt>
      <trkpt lat="43.31521" lon="-0.48927">
        <ele>196.25</ele>
        <time>2017-02-25T08:58:32Z</time>
      </trkpt>
      <trkpt lat="43.31518" lon="-0.48946">
        <ele>197.69</ele>
        <time>2017-02-25T08:58:44Z</time>
      </trkpt>
      <trkpt lat="43.31517" lon="-0.48962">
        <ele>197.69</ele>
        <time>2017-02-25T08:58:54Z</time>
      </trkpt>
      <trkpt lat="43.31513" lon="-0.48978">
        <ele>193.36</ele>
        <time>2017-02-25T08:59:07Z</time>
      </trkpt>
      <trkpt lat="43.31518" lon="-0.48999">
        <ele>196.25</ele>
        <time>2017-02-25T08:59:21Z</time>
      </trkpt>
      <trkpt lat="43.3152" lon="-0.49003">
        <ele>196.25</ele>
        <time>2017-02-25T08:59:25Z</time>
      </trkpt>
      <trkpt lat="43.31531" lon="-0.49018">
        <ele>198.65</ele>
        <time>2017-02-25T08:59:41Z</time>
      </trkpt>
      <trkpt lat="43.31534" lon="-0.49023">
        <ele>199.13</ele>
        <time>2017-02-25T08:59:45Z</time>
      </trkpt>
      <trkpt lat="43.31533" lon="-0.49043">
        <ele>210.19</ele>
        <time>2017-02-25T08:59:59Z</time>
      </trkpt>
      <trkpt lat="43.31531" lon="-0.49058">
        <ele>212.59</ele>
        <time>2017-02-25T09:00:12Z</time>
      </trkpt>
      <trkpt lat="43.31529" lon="-0.49067">
        <ele>213.07</ele>
        <time>2017-02-25T09:00:28Z</time>
      </trkpt>
      <trkpt lat="43.31529" lon="-0.4907">
        <ele>222.2</ele>
        <time>2017-02-25T09:00:53Z</time>
      </trkpt>
      <trkpt lat="43.31525" lon="-0.49078">
        <ele>226.53</ele>
        <time>2017-02-25T09:01:18Z</time>
      </trkpt>
      <trkpt lat="43.31523" lon="-0.49084">
        <ele>227.49</ele>
        <time>2017-02-25T09:01:23Z</time>
      </trkpt>
      <trkpt lat="43.31521" lon="-0.4909">
        <ele>230.37</ele>
        <time>2017-02-25T09:01:33Z</time>
      </trkpt>
      <trkpt lat="43.31519" lon="-0.49094">
        <ele>233.74</ele>
        <time>2017-02-25T09:01:47Z</time>
      </trkpt>
      <trkpt lat="43.31512" lon="-0.49102">
        <ele>238.06</ele>
        <time>2017-02-25T09:02:02Z</time>
      </trkpt>
      <trkpt lat="43.31508" lon="-0.49109">
        <ele>242.87</ele>
        <time>2017-02-25T09:02:17Z</time>
      </trkpt>
      <trkpt lat="43.31509" lon="-0.49115">
        <ele>242.39</ele>
        <time>2017-02-25T09:02:41Z</time>
      </trkpt>
      <trkpt lat="43.31512" lon="-0.49115">
        <ele>243.83</ele>
        <time>2017-02-25T09:02:58Z</time>
      </trkpt>
      <trkpt lat="43.31509" lon="-0.4912">
        <ele>245.27</ele>
        <time>2017-02-25T09:03:11Z</time>
      </trkpt>
      <trkpt lat="43.31508" lon="-0.49129">
        <ele>247.68</ele>
        <time>2017-02-25T09:03:24Z</time>
      </trkpt>
      <trkpt lat="43.31512" lon="-0.49137">
        <ele>245.75</ele>
        <time>2017-02-25T09:03:34Z</time>
      </trkpt>
      <trkpt lat="43.31514" lon="-0.49139">
        <ele>246.23</ele>
        <time>2017-02-25T09:03:36Z</time>
      </trkpt>
      <trkpt lat="43.31529" lon="-0.49142">
        <ele>247.68</ele>
        <time>2017-02-25T09:03:45Z</time>
      </trkpt>
      <trkpt lat="43.31561" lon="-0.49133">
        <ele>249.12</ele>
        <time>2017-02-25T09:03:55Z</time>
      </trkpt>
      <trkpt lat="43.31593" lon="-0.49116">
        <ele>248.64</ele>
        <time>2017-02-25T09:04:07Z</time>
      </trkpt>
      <trkpt lat="43.31596" lon="-0.49116">
        <ele>249.12</ele>
        <time>2017-02-25T09:04:09Z</time>
      </trkpt>
      <trkpt lat="43.31598" lon="-0.4912">
        <ele>250.08</ele>
        <time>2017-02-25T09:04:13Z</time>
      </trkpt>
      <trkpt lat="43.31601" lon="-0.4912">
        <ele>249.6</ele>
        <time>2017-02-25T09:04:15Z</time>
      </trkpt>
      <trkpt lat="43.31616" lon="-0.49124">
        <ele>246.72</ele>
        <time>2017-02-25T09:04:21Z</time>
      </trkpt>
      <trkpt lat="43.31637" lon="-0.49135">
        <ele>246.72</ele>
        <time>2017-02-25T09:04:30Z</time>
      </trkpt>
      <trkpt lat="43.31642" lon="-0.49142">
        <ele>247.2</ele>
        <time>2017-02-25T09:04:34Z</time>
      </trkpt>
      <trkpt lat="43.31643" lon="-0.49148">
        <ele>247.68</ele>
        <time>2017-02-25T09:04:38Z</time>
      </trkpt>
      <trkpt lat="43.31649" lon="-0.49155">
        <ele>247.2</ele>
        <time>2017-02-25T09:04:43Z</time>
      </trkpt>
      <trkpt lat="43.31664" lon="-0.49154">
        <ele>245.27</ele>
        <time>2017-02-25T09:04:49Z</time>
      </trkpt>
      <trkpt lat="43.31682" lon="-0.4917">
        <ele>244.79</ele>
        <time>2017-02-25T09:05:03Z</time>
      </trkpt>
      <trkpt lat="43.31685" lon="-0.49172">
        <ele>244.79</ele>
        <time>2017-02-25T09:05:05Z</time>
      </trkpt>
      <trkpt lat="43.31702" lon="-0.49175">
        <ele>247.68</ele>
        <time>2017-02-25T09:05:18Z</time>
      </trkpt>
      <trkpt lat="43.31716" lon="-0.49174">
        <ele>252.96</ele>
        <time>2017-02-25T09:05:30Z</time>
      </trkpt>
      <trkpt lat="43.31729" lon="-0.49169">
        <ele>254.41</ele>
        <time>2017-02-25T09:05:41Z</time>
      </trkpt>
      <trkpt lat="43.31746" lon="-0.49163">
        <ele>255.85</ele>
        <time>2017-02-25T09:05:56Z</time>
      </trkpt>
      <trkpt lat="43.3176" lon="-0.49159">
        <ele>256.81</ele>
        <time>2017-02-25T09:06:09Z</time>
      </trkpt>
      <trkpt lat="43.31764" lon="-0.49159">
        <ele>258.73</ele>
        <time>2017-02-25T09:06:13Z</time>
      </trkpt>
      <trkpt lat="43.31767" lon="-0.49179">
        <ele>261.14</ele>
        <time>2017-02-25T09:06:28Z</time>
      </trkpt>
      <trkpt lat="43.31771" lon="-0.49194">
        <ele>257.29</ele>
        <time>2017-02-25T09:06:41Z</time>
      </trkpt>
      <trkpt lat="43.31773" lon="-0.49196">
        <ele>257.77</ele>
        <time>2017-02-25T09:06:43Z</time>
      </trkpt>
      <trkpt lat="43.31783" lon="-0.49221">
        <ele>259.21</ele>
        <time>2017-02-25T09:06:56Z</time>
      </trkpt>
      <trkpt lat="43.31789" lon="-0.49246">
        <ele>259.21</ele>
        <time>2017-02-25T09:07:05Z</time>
      </trkpt>
      <trkpt lat="43.31791" lon="-0.49246">
        <ele>258.73</ele>
        <time>2017-02-25T09:07:06Z</time>
      </trkpt>
      <trkpt lat="43.31823" lon="-0.49248">
        <ele>256.81</ele>
        <time>2017-02-25T09:07:21Z</time>
      </trkpt>
      <trkpt lat="43.31849" lon="-0.49246">
        <ele>259.21</ele>
        <time>2017-02-25T09:07:35Z</time>
      </trkpt>
      <trkpt lat="43.31881" lon="-0.49245">
        <ele>258.73</ele>
        <time>2017-02-25T09:07:52Z</time>
      </trkpt>
      <trkpt lat="43.31917" lon="-0.49247">
        <ele>259.69</ele>
        <time>2017-02-25T09:08:09Z</time>
      </trkpt>
      <trkpt lat="43.31953" lon="-0.49255">
        <ele>259.21</ele>
        <time>2017-02-25T09:08:24Z</time>
      </trkpt>
      <trkpt lat="43.31976" lon="-0.49267">
        <ele>259.21</ele>
        <time>2017-02-25T09:08:33Z</time>
      </trkpt>
      <trkpt lat="43.31976" lon="-0.49269">
        <ele>259.21</ele>
        <time>2017-02-25T09:08:34Z</time>
      </trkpt>
      <trkpt lat="43.31976" lon="-0.49272">
        <ele>259.21</ele>
        <time>2017-02-25T09:08:35Z</time>
      </trkpt>
      <trkpt lat="43.31976" lon="-0.49274">
        <ele>259.21</ele>
        <time>2017-02-25T09:08:36Z</time>
      </trkpt>
      <trkpt lat="43.31974" lon="-0.49278">
        <ele>259.21</ele>
        <time>2017-02-25T09:08:37Z</time>
      </trkpt>
      <trkpt lat="43.31952" lon="-0.49297">
        <ele>256.33</ele>
        <time>2017-02-25T09:08:44Z</time>
      </trkpt>
      <trkpt lat="43.31943" lon="-0.49298">
        <ele>254.89</ele>
        <time>2017-02-25T09:08:46Z</time>
      </trkpt>
      <trkpt lat="43.31939" lon="-0.49299">
        <ele>253.93</ele>
        <time>2017-02-25T09:08:47Z</time>
      </trkpt>
      <trkpt lat="43.31935" lon="-0.49299">
        <ele>252.96</ele>
        <time>2017-02-25T09:08:48Z</time>
      </trkpt>
      <trkpt lat="43.31916" lon="-0.49301">
        <ele>249.6</ele>
        <time>2017-02-25T09:08:52Z</time>
      </trkpt>
      <trkpt lat="43.31873" lon="-0.49316">
        <ele>239.02</ele>
        <time>2017-02-25T09:09:01Z</time>
      </trkpt>
      <trkpt lat="43.31861" lon="-0.49319">
        <ele>233.74</ele>
        <time>2017-02-25T09:09:04Z</time>
      </trkpt>
      <trkpt lat="43.31843" lon="-0.49319">
        <ele>228.93</ele>
        <time>2017-02-25T09:09:07Z</time>
      </trkpt>
      <trkpt lat="43.31838" lon="-0.4932">
        <ele>227.49</ele>
        <time>2017-02-25T09:09:08Z</time>
      </trkpt>
      <trkpt lat="43.31835" lon="-0.49322">
        <ele>226.05</ele>
        <time>2017-02-25T09:09:09Z</time>
      </trkpt>
      <trkpt lat="43.31832" lon="-0.49325">
        <ele>224.12</ele>
        <time>2017-02-25T09:09:10Z</time>
      </trkpt>
      <trkpt lat="43.31829" lon="-0.49329">
        <ele>222.68</ele>
        <time>2017-02-25T09:09:11Z</time>
      </trkpt>
      <trkpt lat="43.31808" lon="-0.49352">
        <ele>212.11</ele>
        <time>2017-02-25T09:09:20Z</time>
      </trkpt>
      <trkpt lat="43.31803" lon="-0.49357">
        <ele>210.67</ele>
        <time>2017-02-25T09:09:22Z</time>
      </trkpt>
      <trkpt lat="43.31799" lon="-0.49366">
        <ele>209.22</ele>
        <time>2017-02-25T09:09:26Z</time>
      </trkpt>
      <trkpt lat="43.31801" lon="-0.49376">
        <ele>207.78</ele>
        <time>2017-02-25T09:09:34Z</time>
      </trkpt>
      <trkpt lat="43.31803" lon="-0.49378">
        <ele>207.3</ele>
        <time>2017-02-25T09:09:36Z</time>
      </trkpt>
      <trkpt lat="43.31798" lon="-0.49398">
        <ele>207.78</ele>
        <time>2017-02-25T09:09:49Z</time>
      </trkpt>
      <trkpt lat="43.31797" lon="-0.49426">
        <ele>214.99</ele>
        <time>2017-02-25T09:10:04Z</time>
      </trkpt>
      <trkpt lat="43.31797" lon="-0.49449">
        <ele>222.2</ele>
        <time>2017-02-25T09:10:14Z</time>
      </trkpt>
      <trkpt lat="43.3181" lon="-0.49465">
        <ele>221.24</ele>
        <time>2017-02-25T09:10:22Z</time>
      </trkpt>
      <trkpt lat="43.31811" lon="-0.49466">
        <ele>221.72</ele>
        <time>2017-02-25T09:10:23Z</time>
      </trkpt>
      <trkpt lat="43.31812" lon="-0.49468">
        <ele>222.2</ele>
        <time>2017-02-25T09:10:24Z</time>
      </trkpt>
      <trkpt lat="43.31814" lon="-0.49469">
        <ele>222.68</ele>
        <time>2017-02-25T09:10:25Z</time>
      </trkpt>
      <trkpt lat="43.31816" lon="-0.49471">
        <ele>223.16</ele>
        <time>2017-02-25T09:10:26Z</time>
      </trkpt>
      <trkpt lat="43.31818" lon="-0.49473">
        <ele>223.64</ele>
        <time>2017-02-25T09:10:27Z</time>
      </trkpt>
      <trkpt lat="43.3182" lon="-0.49475">
        <ele>224.12</ele>
        <time>2017-02-25T09:10:28Z</time>
      </trkpt>
      <trkpt lat="43.31822" lon="-0.49477">
        <ele>224.61</ele>
        <time>2017-02-25T09:10:29Z</time>
      </trkpt>
      <trkpt lat="43.31857" lon="-0.49501">
        <ele>229.89</ele>
        <time>2017-02-25T09:10:42Z</time>
      </trkpt>
      <trkpt lat="43.31887" lon="-0.4952">
        <ele>234.22</ele>
        <time>2017-02-25T09:10:54Z</time>
      </trkpt>
      <trkpt lat="43.31912" lon="-0.49544">
        <ele>237.1</ele>
        <time>2017-02-25T09:11:05Z</time>
      </trkpt>
      <trkpt lat="43.31937" lon="-0.49578">
        <ele>241.43</ele>
        <time>2017-02-25T09:11:16Z</time>
      </trkpt>
      <trkpt lat="43.31939" lon="-0.49595">
        <ele>242.39</ele>
        <time>2017-02-25T09:11:21Z</time>
      </trkpt>
      <trkpt lat="43.31936" lon="-0.49599">
        <ele>241.91</ele>
        <time>2017-02-25T09:11:23Z</time>
      </trkpt>
      <trkpt lat="43.3191" lon="-0.49613">
        <ele>236.14</ele>
        <time>2017-02-25T09:11:33Z</time>
      </trkpt>
      <trkpt lat="43.31882" lon="-0.49632">
        <ele>228.45</ele>
        <time>2017-02-25T09:11:45Z</time>
      </trkpt>
      <trkpt lat="43.3187" lon="-0.49638">
        <ele>224.61</ele>
        <time>2017-02-25T09:11:51Z</time>
      </trkpt>
      <trkpt lat="43.31857" lon="-0.49647">
        <ele>219.8</ele>
        <time>2017-02-25T09:11:58Z</time>
      </trkpt>
      <trkpt lat="43.31852" lon="-0.49659">
        <ele>216.43</ele>
        <time>2017-02-25T09:12:03Z</time>
      </trkpt>
      <trkpt lat="43.31848" lon="-0.49666">
        <ele>215.47</ele>
        <time>2017-02-25T09:12:05Z</time>
      </trkpt>
      <trkpt lat="43.31845" lon="-0.49669">
        <ele>215.47</ele>
        <time>2017-02-25T09:12:06Z</time>
      </trkpt>
      <trkpt lat="43.31843" lon="-0.49671">
        <ele>214.99</ele>
        <time>2017-02-25T09:12:07Z</time>
      </trkpt>
      <trkpt lat="43.3184" lon="-0.49673">
        <ele>214.99</ele>
        <time>2017-02-25T09:12:08Z</time>
      </trkpt>
      <trkpt lat="43.31838" lon="-0.49676">
        <ele>214.51</ele>
        <time>2017-02-25T09:12:09Z</time>
      </trkpt>
      <trkpt lat="43.31834" lon="-0.4968">
        <ele>214.03</ele>
        <time>2017-02-25T09:12:11Z</time>
      </trkpt>
      <trkpt lat="43.31832" lon="-0.49681">
        <ele>214.03</ele>
        <time>2017-02-25T09:12:12Z</time>
      </trkpt>
      <trkpt lat="43.31829" lon="-0.49683">
        <ele>214.03</ele>
        <time>2017-02-25T09:12:13Z</time>
      </trkpt>
      <trkpt lat="43.31807" lon="-0.49694">
        <ele>216.91</ele>
        <time>2017-02-25T09:12:24Z</time>
      </trkpt>
      <trkpt lat="43.31805" lon="-0.49695">
        <ele>217.88</ele>
        <time>2017-02-25T09:12:25Z</time>
      </trkpt>
      <trkpt lat="43.318" lon="-0.49696">
        <ele>219.32</ele>
        <time>2017-02-25T09:12:28Z</time>
      </trkpt>
      <trkpt lat="43.31798" lon="-0.49696">
        <ele>219.32</ele>
        <time>2017-02-25T09:12:29Z</time>
      </trkpt>
      <trkpt lat="43.31797" lon="-0.49696">
        <ele>219.32</ele>
        <time>2017-02-25T09:12:30Z</time>
      </trkpt>
      <trkpt lat="43.31795" lon="-0.49696">
        <ele>219.32</ele>
        <time>2017-02-25T09:12:31Z</time>
      </trkpt>
      <trkpt lat="43.31791" lon="-0.49698">
        <ele>220.28</ele>
        <time>2017-02-25T09:12:34Z</time>
      </trkpt>
      <trkpt lat="43.31789" lon="-0.497">
        <ele>220.76</ele>
        <time>2017-02-25T09:12:36Z</time>
      </trkpt>
      <trkpt lat="43.31778" lon="-0.49706">
        <ele>223.64</ele>
        <time>2017-02-25T09:12:44Z</time>
      </trkpt>
      <trkpt lat="43.31762" lon="-0.49711">
        <ele>219.8</ele>
        <time>2017-02-25T09:12:56Z</time>
      </trkpt>
      <trkpt lat="43.31744" lon="-0.49722">
        <ele>223.64</ele>
        <time>2017-02-25T09:13:07Z</time>
      </trkpt>
      <trkpt lat="43.31728" lon="-0.4973">
        <ele>222.68</ele>
        <time>2017-02-25T09:13:15Z</time>
      </trkpt>
      <trkpt lat="43.31725" lon="-0.49736">
        <ele>222.68</ele>
        <time>2017-02-25T09:13:19Z</time>
      </trkpt>
      <trkpt lat="43.31739" lon="-0.49768">
        <ele>221.24</ele>
        <time>2017-02-25T09:13:28Z</time>
      </trkpt>
      <trkpt lat="43.31744" lon="-0.49776">
        <ele>221.24</ele>
        <time>2017-02-25T09:13:30Z</time>
      </trkpt>
      <trkpt lat="43.31744" lon="-0.49794">
        <ele>222.68</ele>
        <time>2017-02-25T09:13:37Z</time>
      </trkpt>
      <trkpt lat="43.31741" lon="-0.49808">
        <ele>226.05</ele>
        <time>2017-02-25T09:13:44Z</time>
      </trkpt>
      <trkpt lat="43.31739" lon="-0.49811">
        <ele>226.53</ele>
        <time>2017-02-25T09:13:46Z</time>
      </trkpt>
      <trkpt lat="43.31737" lon="-0.49816">
        <ele>227.97</ele>
        <time>2017-02-25T09:13:49Z</time>
      </trkpt>
      <trkpt lat="43.31732" lon="-0.49828">
        <ele>227.97</ele>
        <time>2017-02-25T09:14:03Z</time>
      </trkpt>
      <trkpt lat="43.31726" lon="-0.49851">
        <ele>231.81</ele>
        <time>2017-02-25T09:14:18Z</time>
      </trkpt>
      <trkpt lat="43.31719" lon="-0.49877">
        <ele>236.62</ele>
        <time>2017-02-25T09:14:33Z</time>
      </trkpt>
      <trkpt lat="43.31713" lon="-0.49906">
        <ele>242.39</ele>
        <time>2017-02-25T09:14:47Z</time>
      </trkpt>
      <trkpt lat="43.3171" lon="-0.49923">
        <ele>247.68</ele>
        <time>2017-02-25T09:14:55Z</time>
      </trkpt>
      <trkpt lat="43.31707" lon="-0.49935">
        <ele>251.04</ele>
        <time>2017-02-25T09:15:01Z</time>
      </trkpt>
      <trkpt lat="43.31714" lon="-0.49946">
        <ele>251.52</ele>
        <time>2017-02-25T09:15:07Z</time>
      </trkpt>
      <trkpt lat="43.31752" lon="-0.49975">
        <ele>247.68</ele>
        <time>2017-02-25T09:15:16Z</time>
      </trkpt>
      <trkpt lat="43.31793" lon="-0.5001">
        <ele>241.91</ele>
        <time>2017-02-25T09:15:21Z</time>
      </trkpt>
      <trkpt lat="43.31814" lon="-0.5003">
        <ele>239.99</ele>
        <time>2017-02-25T09:15:24Z</time>
      </trkpt>
      <trkpt lat="43.31821" lon="-0.50033">
        <ele>239.99</ele>
        <time>2017-02-25T09:15:25Z</time>
      </trkpt>
      <trkpt lat="43.31828" lon="-0.50035">
        <ele>239.99</ele>
        <time>2017-02-25T09:15:26Z</time>
      </trkpt>
      <trkpt lat="43.31846" lon="-0.50035">
        <ele>239.99</ele>
        <time>2017-02-25T09:15:29Z</time>
      </trkpt>
      <trkpt lat="43.31851" lon="-0.50035">
        <ele>239.99</ele>
        <time>2017-02-25T09:15:30Z</time>
      </trkpt>
      <trkpt lat="43.31889" lon="-0.50044">
        <ele>242.39</ele>
        <time>2017-02-25T09:15:41Z</time>
      </trkpt>
      <trkpt lat="43.31921" lon="-0.50075">
        <ele>244.79</ele>
        <time>2017-02-25T09:15:51Z</time>
      </trkpt>
      <trkpt lat="43.31971" lon="-0.50133">
        <ele>241.43</ele>
        <time>2017-02-25T09:16:01Z</time>
      </trkpt>
      <trkpt lat="43.32008" lon="-0.50211">
        <ele>238.06</ele>
        <time>2017-02-25T09:16:11Z</time>
      </trkpt>
      <trkpt lat="43.32017" lon="-0.50236">
        <ele>237.58</ele>
        <time>2017-02-25T09:16:14Z</time>
      </trkpt>
      <trkpt lat="43.32032" lon="-0.50278">
        <ele>236.62</ele>
        <time>2017-02-25T09:16:19Z</time>
      </trkpt>
      <trkpt lat="43.32045" lon="-0.50301">
        <ele>235.66</ele>
        <time>2017-02-25T09:16:22Z</time>
      </trkpt>
      <trkpt lat="43.3205" lon="-0.50307">
        <ele>235.66</ele>
        <time>2017-02-25T09:16:23Z</time>
      </trkpt>
      <trkpt lat="43.32054" lon="-0.50312">
        <ele>235.66</ele>
        <time>2017-02-25T09:16:24Z</time>
      </trkpt>
      <trkpt lat="43.32059" lon="-0.50315">
        <ele>235.66</ele>
        <time>2017-02-25T09:16:25Z</time>
      </trkpt>
      <trkpt lat="43.32062" lon="-0.50318">
        <ele>235.66</ele>
        <time>2017-02-25T09:16:26Z</time>
      </trkpt>
      <trkpt lat="43.32066" lon="-0.5032">
        <ele>235.66</ele>
        <time>2017-02-25T09:16:27Z</time>
      </trkpt>
      <trkpt lat="43.32069" lon="-0.50323">
        <ele>236.14</ele>
        <time>2017-02-25T09:16:28Z</time>
      </trkpt>
      <trkpt lat="43.32087" lon="-0.5035">
        <ele>240.47</ele>
        <time>2017-02-25T09:16:38Z</time>
      </trkpt>
      <trkpt lat="43.32104" lon="-0.50393">
        <ele>246.23</ele>
        <time>2017-02-25T09:16:57Z</time>
      </trkpt>
      <trkpt lat="43.32117" lon="-0.50432">
        <ele>250.08</ele>
        <time>2017-02-25T09:17:15Z</time>
      </trkpt>
      <trkpt lat="43.3213" lon="-0.50465">
        <ele>252.48</ele>
        <time>2017-02-25T09:17:30Z</time>
      </trkpt>
      <trkpt lat="43.32145" lon="-0.50494">
        <ele>254.41</ele>
        <time>2017-02-25T09:17:45Z</time>
      </trkpt>
      <trkpt lat="43.32171" lon="-0.50549">
        <ele>254.89</ele>
        <time>2017-02-25T09:18:00Z</time>
      </trkpt>
      <trkpt lat="43.322" lon="-0.5061">
        <ele>254.41</ele>
        <time>2017-02-25T09:18:15Z</time>
      </trkpt>
      <trkpt lat="43.32244" lon="-0.50662">
        <ele>252.48</ele>
        <time>2017-02-25T09:18:30Z</time>
      </trkpt>
      <trkpt lat="43.32316" lon="-0.50727">
        <ele>249.6</ele>
        <time>2017-02-25T09:18:43Z</time>
      </trkpt>
      <trkpt lat="43.32349" lon="-0.50762">
        <ele>250.56</ele>
        <time>2017-02-25T09:18:53Z</time>
      </trkpt>
      <trkpt lat="43.3239" lon="-0.50819">
        <ele>252.96</ele>
        <time>2017-02-25T09:19:12Z</time>
      </trkpt>
      <trkpt lat="43.32418" lon="-0.50865">
        <ele>254.41</ele>
        <time>2017-02-25T09:19:28Z</time>
      </trkpt>
      <trkpt lat="43.32435" lon="-0.50914">
        <ele>258.25</ele>
        <time>2017-02-25T09:19:43Z</time>
      </trkpt>
      <trkpt lat="43.3246" lon="-0.50963">
        <ele>258.73</ele>
        <time>2017-02-25T09:20:00Z</time>
      </trkpt>
      <trkpt lat="43.32482" lon="-0.51">
        <ele>262.1</ele>
        <time>2017-02-25T09:20:16Z</time>
      </trkpt>
      <trkpt lat="43.3249" lon="-0.51053">
        <ele>265.46</ele>
        <time>2017-02-25T09:20:32Z</time>
      </trkpt>
      <trkpt lat="43.32518" lon="-0.51114">
        <ele>266.42</ele>
        <time>2017-02-25T09:20:48Z</time>
      </trkpt>
      <trkpt lat="43.32559" lon="-0.51166">
        <ele>265.94</ele>
        <time>2017-02-25T09:21:03Z</time>
      </trkpt>
      <trkpt lat="43.32608" lon="-0.51216">
        <ele>264.98</ele>
        <time>2017-02-25T09:21:19Z</time>
      </trkpt>
      <trkpt lat="43.3264" lon="-0.51245">
        <ele>262.58</ele>
        <time>2017-02-25T09:21:26Z</time>
      </trkpt>
      <trkpt lat="43.3267" lon="-0.51269">
        <ele>259.69</ele>
        <time>2017-02-25T09:21:31Z</time>
      </trkpt>
      <trkpt lat="43.32688" lon="-0.51287">
        <ele>257.77</ele>
        <time>2017-02-25T09:21:34Z</time>
      </trkpt>
      <trkpt lat="43.32768" lon="-0.51351">
        <ele>253.93</ele>
        <time>2017-02-25T09:21:46Z</time>
      </trkpt>
      <trkpt lat="43.32783" lon="-0.51367">
        <ele>253.93</ele>
        <time>2017-02-25T09:21:49Z</time>
      </trkpt>
      <trkpt lat="43.32817" lon="-0.51405">
        <ele>256.33</ele>
        <time>2017-02-25T09:22:00Z</time>
      </trkpt>
      <trkpt lat="43.32852" lon="-0.51423">
        <ele>258.25</ele>
        <time>2017-02-25T09:22:13Z</time>
      </trkpt>
      <trkpt lat="43.329" lon="-0.51443">
        <ele>259.21</ele>
        <time>2017-02-25T09:22:29Z</time>
      </trkpt>
      <trkpt lat="43.32903" lon="-0.51446">
        <ele>259.69</ele>
        <time>2017-02-25T09:22:39Z</time>
      </trkpt>
      <trkpt lat="43.32901" lon="-0.51447">
        <ele>259.69</ele>
        <time>2017-02-25T09:22:59Z</time>
      </trkpt>
      <trkpt lat="43.329" lon="-0.51447">
        <ele>260.17</ele>
        <time>2017-02-25T09:23:45Z</time>
      </trkpt>
      <trkpt lat="43.329" lon="-0.51447">
        <ele>261.14</ele>
        <time>2017-02-25T09:24:18Z</time>
      </trkpt>
      <trkpt lat="43.329" lon="-0.51447">
        <ele>260.65</ele>
        <time>2017-02-25T09:24:55Z</time>
      </trkpt>
      <trkpt lat="43.32898" lon="-0.51449">
        <ele>262.1</ele>
        <time>2017-02-25T09:25:38Z</time>
      </trkpt>
      <trkpt lat="43.32898" lon="-0.51447">
        <ele>261.62</ele>
        <time>2017-02-25T09:26:16Z</time>
      </trkpt>
      <trkpt lat="43.32898" lon="-0.51448">
        <ele>263.06</ele>
        <time>2017-02-25T09:26:49Z</time>
      </trkpt>
      <trkpt lat="43.32898" lon="-0.51446">
        <ele>262.1</ele>
        <time>2017-02-25T09:27:22Z</time>
      </trkpt>
      <trkpt lat="43.329" lon="-0.51449">
        <ele>263.54</ele>
        <time>2017-02-25T09:27:55Z</time>
      </trkpt>
      <trkpt lat="43.329" lon="-0.51448">
        <ele>264.02</ele>
        <time>2017-02-25T09:28:04Z</time>
      </trkpt>
      <trkpt lat="43.32901" lon="-0.51447">
        <ele>262.58</ele>
        <time>2017-02-25T09:28:17Z</time>
      </trkpt>
      <trkpt lat="43.32902" lon="-0.51447">
        <ele>261.14</ele>
        <time>2017-02-25T09:28:30Z</time>
      </trkpt>
      <trkpt lat="43.32924" lon="-0.51463">
        <ele>260.17</ele>
        <time>2017-02-25T09:28:39Z</time>
      </trkpt>
      <trkpt lat="43.32932" lon="-0.51471">
        <ele>259.69</ele>
        <time>2017-02-25T09:28:41Z</time>
      </trkpt>
      <trkpt lat="43.32981" lon="-0.51536">
        <ele>257.29</ele>
        <time>2017-02-25T09:28:51Z</time>
      </trkpt>
      <trkpt lat="43.3304" lon="-0.51607">
        <ele>252.96</ele>
        <time>2017-02-25T09:29:01Z</time>
      </trkpt>
      <trkpt lat="43.33054" lon="-0.51618">
        <ele>252</ele>
        <time>2017-02-25T09:29:03Z</time>
      </trkpt>
      <trkpt lat="43.3306" lon="-0.51624">
        <ele>251.52</ele>
        <time>2017-02-25T09:29:04Z</time>
      </trkpt>
      <trkpt lat="43.33088" lon="-0.5166">
        <ele>247.68</ele>
        <time>2017-02-25T09:29:11Z</time>
      </trkpt>
      <trkpt lat="43.33098" lon="-0.51675">
        <ele>245.27</ele>
        <time>2017-02-25T09:29:14Z</time>
      </trkpt>
      <trkpt lat="43.33106" lon="-0.51684">
        <ele>244.31</ele>
        <time>2017-02-25T09:29:16Z</time>
      </trkpt>
      <trkpt lat="43.33111" lon="-0.51688">
        <ele>243.35</ele>
        <time>2017-02-25T09:29:17Z</time>
      </trkpt>
      <trkpt lat="43.33133" lon="-0.51708">
        <ele>238.06</ele>
        <time>2017-02-25T09:29:24Z</time>
      </trkpt>
      <trkpt lat="43.33133" lon="-0.51711">
        <ele>237.58</ele>
        <time>2017-02-25T09:29:25Z</time>
      </trkpt>
      <trkpt lat="43.33134" lon="-0.51713">
        <ele>237.1</ele>
        <time>2017-02-25T09:29:26Z</time>
      </trkpt>
      <trkpt lat="43.33135" lon="-0.51716">
        <ele>236.14</ele>
        <time>2017-02-25T09:29:27Z</time>
      </trkpt>
      <trkpt lat="43.33134" lon="-0.51726">
        <ele>232.78</ele>
        <time>2017-02-25T09:29:39Z</time>
      </trkpt>
      <trkpt lat="43.33141" lon="-0.51761">
        <ele>227.97</ele>
        <time>2017-02-25T09:29:49Z</time>
      </trkpt>
      <trkpt lat="43.33165" lon="-0.51796">
        <ele>225.09</ele>
        <time>2017-02-25T09:29:59Z</time>
      </trkpt>
      <trkpt lat="43.33182" lon="-0.51824">
        <ele>225.09</ele>
        <time>2017-02-25T09:30:06Z</time>
      </trkpt>
      <trkpt lat="43.33185" lon="-0.51829">
        <ele>225.09</ele>
        <time>2017-02-25T09:30:07Z</time>
      </trkpt>
      <trkpt lat="43.33202" lon="-0.51872">
        <ele>225.09</ele>
        <time>2017-02-25T09:30:14Z</time>
      </trkpt>
      <trkpt lat="43.3322" lon="-0.51922">
        <ele>223.16</ele>
        <time>2017-02-25T09:30:24Z</time>
      </trkpt>
      <trkpt lat="43.33225" lon="-0.51968">
        <ele>219.32</ele>
        <time>2017-02-25T09:30:34Z</time>
      </trkpt>
      <trkpt lat="43.33228" lon="-0.52041">
        <ele>214.51</ele>
        <time>2017-02-25T09:30:47Z</time>
      </trkpt>
      <trkpt lat="43.33219" lon="-0.52096">
        <ele>209.22</ele>
        <time>2017-02-25T09:30:58Z</time>
      </trkpt>
      <trkpt lat="43.33212" lon="-0.52152">
        <ele>204.42</ele>
        <time>2017-02-25T09:31:10Z</time>
      </trkpt>
      <trkpt lat="43.33212" lon="-0.52157">
        <ele>203.94</ele>
        <time>2017-02-25T09:31:12Z</time>
      </trkpt>
      <trkpt lat="43.3321" lon="-0.52166">
        <ele>197.69</ele>
        <time>2017-02-25T09:31:25Z</time>
      </trkpt>
      <trkpt lat="43.3321" lon="-0.52177">
        <ele>202.49</ele>
        <time>2017-02-25T09:31:41Z</time>
      </trkpt>
      <trkpt lat="43.33217" lon="-0.5218">
        <ele>214.51</ele>
        <time>2017-02-25T09:31:56Z</time>
      </trkpt>
      <trkpt lat="43.33219" lon="-0.52193">
        <ele>217.4</ele>
        <time>2017-02-25T09:32:09Z</time>
      </trkpt>
      <trkpt lat="43.33221" lon="-0.52209">
        <ele>218.84</ele>
        <time>2017-02-25T09:32:20Z</time>
      </trkpt>
      <trkpt lat="43.33219" lon="-0.52223">
        <ele>219.32</ele>
        <time>2017-02-25T09:32:32Z</time>
      </trkpt>
      <trkpt lat="43.33219" lon="-0.52228">
        <ele>219.8</ele>
        <time>2017-02-25T09:32:35Z</time>
      </trkpt>
      <trkpt lat="43.33221" lon="-0.52239">
        <ele>219.8</ele>
        <time>2017-02-25T09:32:43Z</time>
      </trkpt>
      <trkpt lat="43.33228" lon="-0.5226">
        <ele>214.03</ele>
        <time>2017-02-25T09:32:53Z</time>
      </trkpt>
      <trkpt lat="43.3323" lon="-0.52268">
        <ele>212.59</ele>
        <time>2017-02-25T09:32:56Z</time>
      </trkpt>
      <trkpt lat="43.33246" lon="-0.52286">
        <ele>212.59</ele>
        <time>2017-02-25T09:33:07Z</time>
      </trkpt>
      <trkpt lat="43.33255" lon="-0.523">
        <ele>213.55</ele>
        <time>2017-02-25T09:33:16Z</time>
      </trkpt>
      <trkpt lat="43.33255" lon="-0.52312">
        <ele>210.67</ele>
        <time>2017-02-25T09:33:27Z</time>
      </trkpt>
      <trkpt lat="43.33256" lon="-0.52315">
        <ele>211.15</ele>
        <time>2017-02-25T09:33:30Z</time>
      </trkpt>
      <trkpt lat="43.33259" lon="-0.52322">
        <ele>210.19</ele>
        <time>2017-02-25T09:33:38Z</time>
      </trkpt>
      <trkpt lat="43.33264" lon="-0.52334">
        <ele>212.59</ele>
        <time>2017-02-25T09:33:45Z</time>
      </trkpt>
      <trkpt lat="43.33267" lon="-0.52342">
        <ele>214.51</ele>
        <time>2017-02-25T09:33:50Z</time>
      </trkpt>
      <trkpt lat="43.3327" lon="-0.52363">
        <ele>211.63</ele>
        <time>2017-02-25T09:34:03Z</time>
      </trkpt>
      <trkpt lat="43.33277" lon="-0.52373">
        <ele>212.11</ele>
        <time>2017-02-25T09:34:10Z</time>
      </trkpt>
      <trkpt lat="43.33285" lon="-0.52373">
        <ele>211.15</ele>
        <time>2017-02-25T09:34:16Z</time>
      </trkpt>
      <trkpt lat="43.33293" lon="-0.52381">
        <ele>210.67</ele>
        <time>2017-02-25T09:34:24Z</time>
      </trkpt>
      <trkpt lat="43.33295" lon="-0.52397">
        <ele>208.26</ele>
        <time>2017-02-25T09:34:35Z</time>
      </trkpt>
      <trkpt lat="43.33289" lon="-0.5241">
        <ele>206.82</ele>
        <time>2017-02-25T09:34:43Z</time>
      </trkpt>
      <trkpt lat="43.33289" lon="-0.52424">
        <ele>204.9</ele>
        <time>2017-02-25T09:34:48Z</time>
      </trkpt>
      <trkpt lat="43.33288" lon="-0.52444">
        <ele>202.01</ele>
        <time>2017-02-25T09:34:55Z</time>
      </trkpt>
      <trkpt lat="43.33286" lon="-0.52447">
        <ele>201.53</ele>
        <time>2017-02-25T09:34:57Z</time>
      </trkpt>
      <trkpt lat="43.33284" lon="-0.52448">
        <ele>200.09</ele>
        <time>2017-02-25T09:34:59Z</time>
      </trkpt>
      <trkpt lat="43.33276" lon="-0.52448">
        <ele>198.17</ele>
        <time>2017-02-25T09:35:09Z</time>
      </trkpt>
      <trkpt lat="43.33272" lon="-0.5247">
        <ele>196.73</ele>
        <time>2017-02-25T09:35:21Z</time>
      </trkpt>
      <trkpt lat="43.33271" lon="-0.5248">
        <ele>196.25</ele>
        <time>2017-02-25T09:35:23Z</time>
      </trkpt>
      <trkpt lat="43.33271" lon="-0.52493">
        <ele>195.77</ele>
        <time>2017-02-25T09:35:29Z</time>
      </trkpt>
      <trkpt lat="43.33255" lon="-0.52519">
        <ele>191.44</ele>
        <time>2017-02-25T09:35:38Z</time>
      </trkpt>
      <trkpt lat="43.33244" lon="-0.5253">
        <ele>189.04</ele>
        <time>2017-02-25T09:35:49Z</time>
      </trkpt>
      <trkpt lat="43.33242" lon="-0.52532">
        <ele>187.59</ele>
        <time>2017-02-25T09:35:52Z</time>
      </trkpt>
      <trkpt lat="43.33229" lon="-0.52538">
        <ele>181.35</ele>
        <time>2017-02-25T09:36:07Z</time>
      </trkpt>
      <trkpt lat="43.33211" lon="-0.52533">
        <ele>179.42</ele>
        <time>2017-02-25T09:36:15Z</time>
      </trkpt>
      <trkpt lat="43.33194" lon="-0.52539">
        <ele>171.73</ele>
        <time>2017-02-25T09:36:24Z</time>
      </trkpt>
      <trkpt lat="43.33188" lon="-0.52545">
        <ele>168.85</ele>
        <time>2017-02-25T09:36:28Z</time>
      </trkpt>
      <trkpt lat="43.33161" lon="-0.52565">
        <ele>163.56</ele>
        <time>2017-02-25T09:36:41Z</time>
      </trkpt>
      <trkpt lat="43.33134" lon="-0.5259">
        <ele>154.91</ele>
        <time>2017-02-25T09:36:54Z</time>
      </trkpt>
      <trkpt lat="43.33128" lon="-0.52597">
        <ele>152.51</ele>
        <time>2017-02-25T09:36:58Z</time>
      </trkpt>
      <trkpt lat="43.33118" lon="-0.52604">
        <ele>149.62</ele>
        <time>2017-02-25T09:37:03Z</time>
      </trkpt>
      <trkpt lat="43.33111" lon="-0.52623">
        <ele>144.34</ele>
        <time>2017-02-25T09:37:11Z</time>
      </trkpt>
      <trkpt lat="43.33105" lon="-0.5264">
        <ele>141.93</ele>
        <time>2017-02-25T09:37:15Z</time>
      </trkpt>
      <trkpt lat="43.331" lon="-0.52653">
        <ele>140.01</ele>
        <time>2017-02-25T09:37:19Z</time>
      </trkpt>
      <trkpt lat="43.33091" lon="-0.52661">
        <ele>138.09</ele>
        <time>2017-02-25T09:37:23Z</time>
      </trkpt>
      <trkpt lat="43.33083" lon="-0.52669">
        <ele>138.09</ele>
        <time>2017-02-25T09:37:26Z</time>
      </trkpt>
      <trkpt lat="43.33069" lon="-0.52681">
        <ele>139.53</ele>
        <time>2017-02-25T09:37:36Z</time>
      </trkpt>
      <trkpt lat="43.33062" lon="-0.52692">
        <ele>137.61</ele>
        <time>2017-02-25T09:37:46Z</time>
      </trkpt>
      <trkpt lat="43.33061" lon="-0.52696">
        <ele>136.16</ele>
        <time>2017-02-25T09:37:50Z</time>
      </trkpt>
      <trkpt lat="43.33072" lon="-0.5274">
        <ele>139.05</ele>
        <time>2017-02-25T09:38:04Z</time>
      </trkpt>
      <trkpt lat="43.3309" lon="-0.52777">
        <ele>142.41</ele>
        <time>2017-02-25T09:38:16Z</time>
      </trkpt>
      <trkpt lat="43.33119" lon="-0.52819">
        <ele>143.85</ele>
        <time>2017-02-25T09:38:29Z</time>
      </trkpt>
      <trkpt lat="43.33156" lon="-0.52875">
        <ele>146.26</ele>
        <time>2017-02-25T09:38:43Z</time>
      </trkpt>
      <trkpt lat="43.33165" lon="-0.52894">
        <ele>146.26</ele>
        <time>2017-02-25T09:38:47Z</time>
      </trkpt>
      <trkpt lat="43.33202" lon="-0.52943">
        <ele>145.78</ele>
        <time>2017-02-25T09:38:59Z</time>
      </trkpt>
      <trkpt lat="43.33209" lon="-0.52949">
        <ele>145.78</ele>
        <time>2017-02-25T09:39:01Z</time>
      </trkpt>
      <trkpt lat="43.33213" lon="-0.52951">
        <ele>145.78</ele>
        <time>2017-02-25T09:39:02Z</time>
      </trkpt>
      <trkpt lat="43.33217" lon="-0.52954">
        <ele>145.78</ele>
        <time>2017-02-25T09:39:03Z</time>
      </trkpt>
      <trkpt lat="43.3322" lon="-0.52958">
        <ele>146.26</ele>
        <time>2017-02-25T09:39:04Z</time>
      </trkpt>
      <trkpt lat="43.33224" lon="-0.52961">
        <ele>145.78</ele>
        <time>2017-02-25T09:39:05Z</time>
      </trkpt>
      <trkpt lat="43.33228" lon="-0.52964">
        <ele>145.78</ele>
        <time>2017-02-25T09:39:06Z</time>
      </trkpt>
      <trkpt lat="43.3324" lon="-0.52976">
        <ele>145.3</ele>
        <time>2017-02-25T09:39:09Z</time>
      </trkpt>
      <trkpt lat="43.33266" lon="-0.53003">
        <ele>146.74</ele>
        <time>2017-02-25T09:39:16Z</time>
      </trkpt>
      <trkpt lat="43.33269" lon="-0.53007">
        <ele>146.74</ele>
        <time>2017-02-25T09:39:17Z</time>
      </trkpt>
      <trkpt lat="43.33272" lon="-0.5301">
        <ele>147.22</ele>
        <time>2017-02-25T09:39:18Z</time>
      </trkpt>
      <trkpt lat="43.33306" lon="-0.5306">
        <ele>148.66</ele>
        <time>2017-02-25T09:39:33Z</time>
      </trkpt>
      <trkpt lat="43.33326" lon="-0.53135">
        <ele>147.22</ele>
        <time>2017-02-25T09:39:47Z</time>
      </trkpt>
      <trkpt lat="43.33348" lon="-0.53198">
        <ele>145.3</ele>
        <time>2017-02-25T09:39:59Z</time>
      </trkpt>
      <trkpt lat="43.33392" lon="-0.53209">
        <ele>143.37</ele>
        <time>2017-02-25T09:40:10Z</time>
      </trkpt>
      <trkpt lat="43.33424" lon="-0.532">
        <ele>140.97</ele>
        <time>2017-02-25T09:40:16Z</time>
      </trkpt>
      <trkpt lat="43.33429" lon="-0.53198">
        <ele>140.97</ele>
        <time>2017-02-25T09:40:17Z</time>
      </trkpt>
      <trkpt lat="43.33469" lon="-0.53192">
        <ele>141.93</ele>
        <time>2017-02-25T09:40:28Z</time>
      </trkpt>
      <trkpt lat="43.33478" lon="-0.53208">
        <ele>142.89</ele>
        <time>2017-02-25T09:40:34Z</time>
      </trkpt>
      <trkpt lat="43.33477" lon="-0.53212">
        <ele>142.41</ele>
        <time>2017-02-25T09:40:35Z</time>
      </trkpt>
      <trkpt lat="43.33476" lon="-0.53215">
        <ele>141.93</ele>
        <time>2017-02-25T09:40:36Z</time>
      </trkpt>
      <trkpt lat="43.33474" lon="-0.53218">
        <ele>141.45</ele>
        <time>2017-02-25T09:40:37Z</time>
      </trkpt>
      <trkpt lat="43.33472" lon="-0.53222">
        <ele>140.97</ele>
        <time>2017-02-25T09:40:38Z</time>
      </trkpt>
      <trkpt lat="43.33469" lon="-0.53225">
        <ele>140.49</ele>
        <time>2017-02-25T09:40:39Z</time>
      </trkpt>
      <trkpt lat="43.33466" lon="-0.53227">
        <ele>140.01</ele>
        <time>2017-02-25T09:40:40Z</time>
      </trkpt>
      <trkpt lat="43.33461" lon="-0.53234">
        <ele>139.05</ele>
        <time>2017-02-25T09:40:42Z</time>
      </trkpt>
      <trkpt lat="43.3346" lon="-0.53238">
        <ele>138.57</ele>
        <time>2017-02-25T09:40:43Z</time>
      </trkpt>
      <trkpt lat="43.33461" lon="-0.53241">
        <ele>138.09</ele>
        <time>2017-02-25T09:40:44Z</time>
      </trkpt>
      <trkpt lat="43.33463" lon="-0.53243">
        <ele>137.61</ele>
        <time>2017-02-25T09:40:45Z</time>
      </trkpt>
      <trkpt lat="43.33464" lon="-0.53244">
        <ele>137.61</ele>
        <time>2017-02-25T09:40:46Z</time>
      </trkpt>
      <trkpt lat="43.33478" lon="-0.5324">
        <ele>140.49</ele>
        <time>2017-02-25T09:40:56Z</time>
      </trkpt>
      <trkpt lat="43.33488" lon="-0.53231">
        <ele>140.49</ele>
        <time>2017-02-25T09:41:04Z</time>
      </trkpt>
      <trkpt lat="43.33515" lon="-0.5323">
        <ele>143.85</ele>
        <time>2017-02-25T09:41:21Z</time>
      </trkpt>
      <trkpt lat="43.3354" lon="-0.53232">
        <ele>146.74</ele>
        <time>2017-02-25T09:41:38Z</time>
      </trkpt>
      <trkpt lat="43.33555" lon="-0.53235">
        <ele>146.74</ele>
        <time>2017-02-25T09:41:49Z</time>
      </trkpt>
      <trkpt lat="43.33557" lon="-0.53235">
        <ele>147.22</ele>
        <time>2017-02-25T09:41:50Z</time>
      </trkpt>
      <trkpt lat="43.33559" lon="-0.53235">
        <ele>147.7</ele>
        <time>2017-02-25T09:41:51Z</time>
      </trkpt>
      <trkpt lat="43.3356" lon="-0.53235">
        <ele>148.66</ele>
        <time>2017-02-25T09:41:52Z</time>
      </trkpt>
      <trkpt lat="43.33561" lon="-0.53236">
        <ele>149.14</ele>
        <time>2017-02-25T09:41:53Z</time>
      </trkpt>
      <trkpt lat="43.33563" lon="-0.53236">
        <ele>149.62</ele>
        <time>2017-02-25T09:41:54Z</time>
      </trkpt>
      <trkpt lat="43.33565" lon="-0.53236">
        <ele>150.1</ele>
        <time>2017-02-25T09:41:55Z</time>
      </trkpt>
      <trkpt lat="43.33566" lon="-0.53236">
        <ele>150.58</ele>
        <time>2017-02-25T09:41:56Z</time>
      </trkpt>
      <trkpt lat="43.33568" lon="-0.53236">
        <ele>150.58</ele>
        <time>2017-02-25T09:41:57Z</time>
      </trkpt>
      <trkpt lat="43.33569" lon="-0.53237">
        <ele>150.58</ele>
        <time>2017-02-25T09:41:58Z</time>
      </trkpt>
      <trkpt lat="43.3357" lon="-0.53237">
        <ele>151.06</ele>
        <time>2017-02-25T09:41:59Z</time>
      </trkpt>
      <trkpt lat="43.33574" lon="-0.53238">
        <ele>151.06</ele>
        <time>2017-02-25T09:42:03Z</time>
      </trkpt>
      <trkpt lat="43.33578" lon="-0.5324">
        <ele>151.54</ele>
        <time>2017-02-25T09:42:06Z</time>
      </trkpt>
      <trkpt lat="43.33579" lon="-0.5324">
        <ele>151.54</ele>
        <time>2017-02-25T09:42:07Z</time>
      </trkpt>
      <trkpt lat="43.33581" lon="-0.5324">
        <ele>151.54</ele>
        <time>2017-02-25T09:42:08Z</time>
      </trkpt>
      <trkpt lat="43.33591" lon="-0.53241">
        <ele>152.51</ele>
        <time>2017-02-25T09:42:16Z</time>
      </trkpt>
      <trkpt lat="43.33592" lon="-0.5324">
        <ele>152.51</ele>
        <time>2017-02-25T09:42:17Z</time>
      </trkpt>
      <trkpt lat="43.33593" lon="-0.5324">
        <ele>152.51</ele>
        <time>2017-02-25T09:42:18Z</time>
      </trkpt>
      <trkpt lat="43.33595" lon="-0.5324">
        <ele>152.51</ele>
        <time>2017-02-25T09:42:19Z</time>
      </trkpt>
      <trkpt lat="43.33596" lon="-0.5324">
        <ele>152.51</ele>
        <time>2017-02-25T09:42:20Z</time>
      </trkpt>
      <trkpt lat="43.33597" lon="-0.53241">
        <ele>152.99</ele>
        <time>2017-02-25T09:42:21Z</time>
      </trkpt>
      <trkpt lat="43.33599" lon="-0.53241">
        <ele>152.99</ele>
        <time>2017-02-25T09:42:22Z</time>
      </trkpt>
      <trkpt lat="43.33617" lon="-0.53246">
        <ele>156.35</ele>
        <time>2017-02-25T09:42:37Z</time>
      </trkpt>
      <trkpt lat="43.33618" lon="-0.53246">
        <ele>156.35</ele>
        <time>2017-02-25T09:42:38Z</time>
      </trkpt>
      <trkpt lat="43.33635" lon="-0.53252">
        <ele>158.27</ele>
        <time>2017-02-25T09:42:52Z</time>
      </trkpt>
      <trkpt lat="43.33655" lon="-0.53263">
        <ele>161.64</ele>
        <time>2017-02-25T09:43:07Z</time>
      </trkpt>
      <trkpt lat="43.33677" lon="-0.53284">
        <ele>162.6</ele>
        <time>2017-02-25T09:43:24Z</time>
      </trkpt>
      <trkpt lat="43.33697" lon="-0.53305">
        <ele>161.16</ele>
        <time>2017-02-25T09:43:37Z</time>
      </trkpt>
      <trkpt lat="43.33719" lon="-0.53314">
        <ele>165.96</ele>
        <time>2017-02-25T09:43:52Z</time>
      </trkpt>
      <trkpt lat="43.33722" lon="-0.53313">
        <ele>166.93</ele>
        <time>2017-02-25T09:43:55Z</time>
      </trkpt>
      <trkpt lat="43.33723" lon="-0.53313">
        <ele>166.93</ele>
        <time>2017-02-25T09:43:56Z</time>
      </trkpt>
      <trkpt lat="43.33725" lon="-0.53312">
        <ele>167.41</ele>
        <time>2017-02-25T09:43:57Z</time>
      </trkpt>
      <trkpt lat="43.33726" lon="-0.53312">
        <ele>167.41</ele>
        <time>2017-02-25T09:43:58Z</time>
      </trkpt>
      <trkpt lat="43.33727" lon="-0.53312">
        <ele>167.89</ele>
        <time>2017-02-25T09:43:59Z</time>
      </trkpt>
      <trkpt lat="43.33729" lon="-0.53312">
        <ele>167.89</ele>
        <time>2017-02-25T09:44:00Z</time>
      </trkpt>
      <trkpt lat="43.3373" lon="-0.53311">
        <ele>168.37</ele>
        <time>2017-02-25T09:44:01Z</time>
      </trkpt>
      <trkpt lat="43.33731" lon="-0.53311">
        <ele>167.89</ele>
        <time>2017-02-25T09:44:02Z</time>
      </trkpt>
      <trkpt lat="43.33733" lon="-0.5331">
        <ele>167.89</ele>
        <time>2017-02-25T09:44:03Z</time>
      </trkpt>
      <trkpt lat="43.33736" lon="-0.53308">
        <ele>167.89</ele>
        <time>2017-02-25T09:44:06Z</time>
      </trkpt>
      <trkpt lat="43.33737" lon="-0.53308">
        <ele>167.89</ele>
        <time>2017-02-25T09:44:07Z</time>
      </trkpt>
      <trkpt lat="43.33738" lon="-0.53308">
        <ele>167.89</ele>
        <time>2017-02-25T09:44:08Z</time>
      </trkpt>
      <trkpt lat="43.33758" lon="-0.53306">
        <ele>171.73</ele>
        <time>2017-02-25T09:44:24Z</time>
      </trkpt>
      <trkpt lat="43.3376" lon="-0.53306">
        <ele>171.73</ele>
        <time>2017-02-25T09:44:25Z</time>
      </trkpt>
      <trkpt lat="43.33761" lon="-0.53306">
        <ele>171.73</ele>
        <time>2017-02-25T09:44:26Z</time>
      </trkpt>
      <trkpt lat="43.33777" lon="-0.53309">
        <ele>169.81</ele>
        <time>2017-02-25T09:44:39Z</time>
      </trkpt>
      <trkpt lat="43.33786" lon="-0.53309">
        <ele>170.77</ele>
        <time>2017-02-25T09:44:47Z</time>
      </trkpt>
      <trkpt lat="43.33788" lon="-0.53309">
        <ele>171.25</ele>
        <time>2017-02-25T09:44:48Z</time>
      </trkpt>
      <trkpt lat="43.33789" lon="-0.53309">
        <ele>171.73</ele>
        <time>2017-02-25T09:44:49Z</time>
      </trkpt>
      <trkpt lat="43.3379" lon="-0.53309">
        <ele>172.21</ele>
        <time>2017-02-25T09:44:50Z</time>
      </trkpt>
      <trkpt lat="43.33792" lon="-0.53308">
        <ele>173.17</ele>
        <time>2017-02-25T09:44:51Z</time>
      </trkpt>
      <trkpt lat="43.33793" lon="-0.53309">
        <ele>173.66</ele>
        <time>2017-02-25T09:44:52Z</time>
      </trkpt>
      <trkpt lat="43.33801" lon="-0.53308">
        <ele>176.54</ele>
        <time>2017-02-25T09:44:58Z</time>
      </trkpt>
      <trkpt lat="43.3382" lon="-0.53305">
        <ele>178.94</ele>
        <time>2017-02-25T09:45:14Z</time>
      </trkpt>
      <trkpt lat="43.3384" lon="-0.53307">
        <ele>188.56</ele>
        <time>2017-02-25T09:45:29Z</time>
      </trkpt>
      <trkpt lat="43.33846" lon="-0.53307">
        <ele>190.96</ele>
        <time>2017-02-25T09:45:34Z</time>
      </trkpt>
      <trkpt lat="43.33862" lon="-0.53308">
        <ele>193.36</ele>
        <time>2017-02-25T09:45:47Z</time>
      </trkpt>
      <trkpt lat="43.33882" lon="-0.5331">
        <ele>189.52</ele>
        <time>2017-02-25T09:46:02Z</time>
      </trkpt>
      <trkpt lat="43.33899" lon="-0.53311">
        <ele>187.11</ele>
        <time>2017-02-25T09:46:15Z</time>
      </trkpt>
      <trkpt lat="43.33905" lon="-0.53312">
        <ele>187.11</ele>
        <time>2017-02-25T09:46:21Z</time>
      </trkpt>
      <trkpt lat="43.33907" lon="-0.53312">
        <ele>187.11</ele>
        <time>2017-02-25T09:46:22Z</time>
      </trkpt>
      <trkpt lat="43.33908" lon="-0.53313">
        <ele>187.11</ele>
        <time>2017-02-25T09:46:23Z</time>
      </trkpt>
      <trkpt lat="43.3391" lon="-0.53314">
        <ele>187.11</ele>
        <time>2017-02-25T09:46:24Z</time>
      </trkpt>
      <trkpt lat="43.33911" lon="-0.53314">
        <ele>187.59</ele>
        <time>2017-02-25T09:46:25Z</time>
      </trkpt>
      <trkpt lat="43.33913" lon="-0.53314">
        <ele>187.59</ele>
        <time>2017-02-25T09:46:26Z</time>
      </trkpt>
      <trkpt lat="43.33914" lon="-0.53315">
        <ele>188.08</ele>
        <time>2017-02-25T09:46:27Z</time>
      </trkpt>
      <trkpt lat="43.33916" lon="-0.53316">
        <ele>188.08</ele>
        <time>2017-02-25T09:46:28Z</time>
      </trkpt>
      <trkpt lat="43.33917" lon="-0.53316">
        <ele>188.08</ele>
        <time>2017-02-25T09:46:29Z</time>
      </trkpt>
      <trkpt lat="43.33919" lon="-0.53317">
        <ele>188.08</ele>
        <time>2017-02-25T09:46:30Z</time>
      </trkpt>
      <trkpt lat="43.33941" lon="-0.53319">
        <ele>188.56</ele>
        <time>2017-02-25T09:46:45Z</time>
      </trkpt>
      <trkpt lat="43.33958" lon="-0.53313">
        <ele>185.67</ele>
        <time>2017-02-25T09:46:59Z</time>
      </trkpt>
      <trkpt lat="43.33964" lon="-0.53309">
        <ele>187.11</ele>
        <time>2017-02-25T09:47:04Z</time>
      </trkpt>
      <trkpt lat="43.33966" lon="-0.53309">
        <ele>187.59</ele>
        <time>2017-02-25T09:47:05Z</time>
      </trkpt>
      <trkpt lat="43.33978" lon="-0.53309">
        <ele>191.44</ele>
        <time>2017-02-25T09:47:15Z</time>
      </trkpt>
      <trkpt lat="43.33986" lon="-0.53312">
        <ele>191.92</ele>
        <time>2017-02-25T09:47:21Z</time>
      </trkpt>
      <trkpt lat="43.33988" lon="-0.53312">
        <ele>192.4</ele>
        <time>2017-02-25T09:47:22Z</time>
      </trkpt>
      <trkpt lat="43.33989" lon="-0.53313">
        <ele>192.4</ele>
        <time>2017-02-25T09:47:23Z</time>
      </trkpt>
      <trkpt lat="43.33991" lon="-0.53313">
        <ele>192.88</ele>
        <time>2017-02-25T09:47:24Z</time>
      </trkpt>
      <trkpt lat="43.33992" lon="-0.53313">
        <ele>192.88</ele>
        <time>2017-02-25T09:47:25Z</time>
      </trkpt>
      <trkpt lat="43.33994" lon="-0.53313">
        <ele>192.4</ele>
        <time>2017-02-25T09:47:26Z</time>
      </trkpt>
      <trkpt lat="43.34014" lon="-0.53314">
        <ele>196.73</ele>
        <time>2017-02-25T09:47:39Z</time>
      </trkpt>
      <trkpt lat="43.34031" lon="-0.53313">
        <ele>199.13</ele>
        <time>2017-02-25T09:47:51Z</time>
      </trkpt>
      <trkpt lat="43.34049" lon="-0.53307">
        <ele>202.49</ele>
        <time>2017-02-25T09:48:05Z</time>
      </trkpt>
      <trkpt lat="43.34063" lon="-0.53292">
        <ele>207.78</ele>
        <time>2017-02-25T09:48:18Z</time>
      </trkpt>
      <trkpt lat="43.34064" lon="-0.5329">
        <ele>208.26</ele>
        <time>2017-02-25T09:48:19Z</time>
      </trkpt>
      <trkpt lat="43.34065" lon="-0.53289">
        <ele>208.26</ele>
        <time>2017-02-25T09:48:20Z</time>
      </trkpt>
      <trkpt lat="43.34067" lon="-0.53288">
        <ele>208.26</ele>
        <time>2017-02-25T09:48:21Z</time>
      </trkpt>
      <trkpt lat="43.34084" lon="-0.53274">
        <ele>213.55</ele>
        <time>2017-02-25T09:48:37Z</time>
      </trkpt>
      <trkpt lat="43.3409" lon="-0.5327">
        <ele>214.03</ele>
        <time>2017-02-25T09:48:41Z</time>
      </trkpt>
      <trkpt lat="43.34091" lon="-0.53269">
        <ele>214.03</ele>
        <time>2017-02-25T09:48:42Z</time>
      </trkpt>
      <trkpt lat="43.34093" lon="-0.53268">
        <ele>214.03</ele>
        <time>2017-02-25T09:48:43Z</time>
      </trkpt>
      <trkpt lat="43.34106" lon="-0.53257">
        <ele>217.88</ele>
        <time>2017-02-25T09:48:55Z</time>
      </trkpt>
      <trkpt lat="43.34119" lon="-0.53246">
        <ele>216.91</ele>
        <time>2017-02-25T09:49:09Z</time>
      </trkpt>
      <trkpt lat="43.34129" lon="-0.53226">
        <ele>216.91</ele>
        <time>2017-02-25T09:49:23Z</time>
      </trkpt>
      <trkpt lat="43.34132" lon="-0.53218">
        <ele>216.43</ele>
        <time>2017-02-25T09:49:28Z</time>
      </trkpt>
      <trkpt lat="43.3414" lon="-0.53201">
        <ele>215.95</ele>
        <time>2017-02-25T09:49:40Z</time>
      </trkpt>
      <trkpt lat="43.34142" lon="-0.53196">
        <ele>215.95</ele>
        <time>2017-02-25T09:49:43Z</time>
      </trkpt>
      <trkpt lat="43.34142" lon="-0.53194">
        <ele>215.47</ele>
        <time>2017-02-25T09:49:44Z</time>
      </trkpt>
      <trkpt lat="43.34142" lon="-0.53192">
        <ele>215.47</ele>
        <time>2017-02-25T09:49:45Z</time>
      </trkpt>
      <trkpt lat="43.34144" lon="-0.53187">
        <ele>215.95</ele>
        <time>2017-02-25T09:49:48Z</time>
      </trkpt>
      <trkpt lat="43.34145" lon="-0.53186">
        <ele>215.95</ele>
        <time>2017-02-25T09:49:49Z</time>
      </trkpt>
      <trkpt lat="43.34146" lon="-0.53185">
        <ele>216.43</ele>
        <time>2017-02-25T09:49:50Z</time>
      </trkpt>
      <trkpt lat="43.34147" lon="-0.53183">
        <ele>216.43</ele>
        <time>2017-02-25T09:49:52Z</time>
      </trkpt>
      <trkpt lat="43.34158" lon="-0.53174">
        <ele>218.84</ele>
        <time>2017-02-25T09:50:04Z</time>
      </trkpt>
      <trkpt lat="43.34158" lon="-0.53172">
        <ele>218.36</ele>
        <time>2017-02-25T09:50:05Z</time>
      </trkpt>
      <trkpt lat="43.34158" lon="-0.53171">
        <ele>218.84</ele>
        <time>2017-02-25T09:50:06Z</time>
      </trkpt>
      <trkpt lat="43.34158" lon="-0.53169">
        <ele>218.84</ele>
        <time>2017-02-25T09:50:07Z</time>
      </trkpt>
      <trkpt lat="43.34158" lon="-0.53168">
        <ele>218.84</ele>
        <time>2017-02-25T09:50:08Z</time>
      </trkpt>
      <trkpt lat="43.34164" lon="-0.53146">
        <ele>218.84</ele>
        <time>2017-02-25T09:50:23Z</time>
      </trkpt>
      <trkpt lat="43.34172" lon="-0.53126">
        <ele>222.68</ele>
        <time>2017-02-25T09:50:38Z</time>
      </trkpt>
      <trkpt lat="43.34175" lon="-0.53117">
        <ele>224.12</ele>
        <time>2017-02-25T09:50:46Z</time>
      </trkpt>
      <trkpt lat="43.34185" lon="-0.53099">
        <ele>227.97</ele>
        <time>2017-02-25T09:51:00Z</time>
      </trkpt>
      <trkpt lat="43.34195" lon="-0.53084">
        <ele>230.85</ele>
        <time>2017-02-25T09:51:12Z</time>
      </trkpt>
      <trkpt lat="43.34204" lon="-0.53067">
        <ele>233.74</ele>
        <time>2017-02-25T09:51:27Z</time>
      </trkpt>
      <trkpt lat="43.34214" lon="-0.53044">
        <ele>232.3</ele>
        <time>2017-02-25T09:51:42Z</time>
      </trkpt>
      <trkpt lat="43.3423" lon="-0.53031">
        <ele>230.85</ele>
        <time>2017-02-25T09:51:49Z</time>
      </trkpt>
      <trkpt lat="43.34235" lon="-0.53027">
        <ele>230.85</ele>
        <time>2017-02-25T09:51:50Z</time>
      </trkpt>
      <trkpt lat="43.34238" lon="-0.53024">
        <ele>230.85</ele>
        <time>2017-02-25T09:51:51Z</time>
      </trkpt>
      <trkpt lat="43.3426" lon="-0.52997">
        <ele>230.85</ele>
        <time>2017-02-25T09:52:03Z</time>
      </trkpt>
      <trkpt lat="43.34272" lon="-0.52973">
        <ele>231.81</ele>
        <time>2017-02-25T09:52:17Z</time>
      </trkpt>
      <trkpt lat="43.34274" lon="-0.52964">
        <ele>232.3</ele>
        <time>2017-02-25T09:52:21Z</time>
      </trkpt>
      <trkpt lat="43.34284" lon="-0.52937">
        <ele>236.62</ele>
        <time>2017-02-25T09:52:35Z</time>
      </trkpt>
      <trkpt lat="43.3429" lon="-0.52929">
        <ele>238.54</ele>
        <time>2017-02-25T09:52:41Z</time>
      </trkpt>
      <trkpt lat="43.34308" lon="-0.52918">
        <ele>239.02</ele>
        <time>2017-02-25T09:52:55Z</time>
      </trkpt>
      <trkpt lat="43.34314" lon="-0.52915">
        <ele>239.51</ele>
        <time>2017-02-25T09:52:59Z</time>
      </trkpt>
      <trkpt lat="43.34325" lon="-0.52898">
        <ele>241.43</ele>
        <time>2017-02-25T09:53:14Z</time>
      </trkpt>
      <trkpt lat="43.34333" lon="-0.5289">
        <ele>240.95</ele>
        <time>2017-02-25T09:53:21Z</time>
      </trkpt>
      <trkpt lat="43.34342" lon="-0.5288">
        <ele>241.43</ele>
        <time>2017-02-25T09:53:28Z</time>
      </trkpt>
      <trkpt lat="43.34346" lon="-0.52874">
        <ele>240.47</ele>
        <time>2017-02-25T09:53:31Z</time>
      </trkpt>
      <trkpt lat="43.34356" lon="-0.52863">
        <ele>238.54</ele>
        <time>2017-02-25T09:53:36Z</time>
      </trkpt>
      <trkpt lat="43.34362" lon="-0.52848">
        <ele>237.1</ele>
        <time>2017-02-25T09:53:40Z</time>
      </trkpt>
      <trkpt lat="43.34365" lon="-0.52836">
        <ele>235.66</ele>
        <time>2017-02-25T09:53:44Z</time>
      </trkpt>
      <trkpt lat="43.34369" lon="-0.52828">
        <ele>235.18</ele>
        <time>2017-02-25T09:53:47Z</time>
      </trkpt>
      <trkpt lat="43.34383" lon="-0.52812">
        <ele>233.74</ele>
        <time>2017-02-25T09:53:54Z</time>
      </trkpt>
      <trkpt lat="43.34412" lon="-0.52813">
        <ele>237.1</ele>
        <time>2017-02-25T09:54:05Z</time>
      </trkpt>
      <trkpt lat="43.34414" lon="-0.52816">
        <ele>237.58</ele>
        <time>2017-02-25T09:54:06Z</time>
      </trkpt>
      <trkpt lat="43.34428" lon="-0.5286">
        <ele>240.95</ele>
        <time>2017-02-25T09:54:19Z</time>
      </trkpt>
      <trkpt lat="43.34444" lon="-0.52899">
        <ele>243.83</ele>
        <time>2017-02-25T09:54:34Z</time>
      </trkpt>
      <trkpt lat="43.34454" lon="-0.52918">
        <ele>245.27</ele>
        <time>2017-02-25T09:54:44Z</time>
      </trkpt>
      <trkpt lat="43.34455" lon="-0.52919">
        <ele>245.27</ele>
        <time>2017-02-25T09:54:45Z</time>
      </trkpt>
      <trkpt lat="43.34457" lon="-0.52921">
        <ele>245.27</ele>
        <time>2017-02-25T09:54:46Z</time>
      </trkpt>
      <trkpt lat="43.34457" lon="-0.52923">
        <ele>245.27</ele>
        <time>2017-02-25T09:54:47Z</time>
      </trkpt>
      <trkpt lat="43.34458" lon="-0.52925">
        <ele>245.75</ele>
        <time>2017-02-25T09:54:48Z</time>
      </trkpt>
      <trkpt lat="43.34459" lon="-0.52926">
        <ele>245.75</ele>
        <time>2017-02-25T09:54:49Z</time>
      </trkpt>
      <trkpt lat="43.3446" lon="-0.52927">
        <ele>245.75</ele>
        <time>2017-02-25T09:54:50Z</time>
      </trkpt>
      <trkpt lat="43.34465" lon="-0.52932">
        <ele>246.72</ele>
        <time>2017-02-25T09:54:55Z</time>
      </trkpt>
      <trkpt lat="43.34469" lon="-0.5294">
        <ele>248.16</ele>
        <time>2017-02-25T09:55:00Z</time>
      </trkpt>
      <trkpt lat="43.34481" lon="-0.52952">
        <ele>248.16</ele>
        <time>2017-02-25T09:55:11Z</time>
      </trkpt>
      <trkpt lat="43.34482" lon="-0.52954">
        <ele>248.16</ele>
        <time>2017-02-25T09:55:12Z</time>
      </trkpt>
      <trkpt lat="43.34484" lon="-0.52957">
        <ele>248.64</ele>
        <time>2017-02-25T09:55:14Z</time>
      </trkpt>
      <trkpt lat="43.34485" lon="-0.52958">
        <ele>249.12</ele>
        <time>2017-02-25T09:55:15Z</time>
      </trkpt>
      <trkpt lat="43.3449" lon="-0.52965">
        <ele>250.08</ele>
        <time>2017-02-25T09:55:21Z</time>
      </trkpt>
      <trkpt lat="43.34492" lon="-0.52967">
        <ele>250.56</ele>
        <time>2017-02-25T09:55:23Z</time>
      </trkpt>
      <trkpt lat="43.34493" lon="-0.52969">
        <ele>250.56</ele>
        <time>2017-02-25T09:55:24Z</time>
      </trkpt>
      <trkpt lat="43.34494" lon="-0.52971">
        <ele>250.56</ele>
        <time>2017-02-25T09:55:25Z</time>
      </trkpt>
      <trkpt lat="43.34495" lon="-0.52972">
        <ele>251.04</ele>
        <time>2017-02-25T09:55:26Z</time>
      </trkpt>
      <trkpt lat="43.34495" lon="-0.52974">
        <ele>251.04</ele>
        <time>2017-02-25T09:55:27Z</time>
      </trkpt>
      <trkpt lat="43.34496" lon="-0.52976">
        <ele>251.04</ele>
        <time>2017-02-25T09:55:28Z</time>
      </trkpt>
      <trkpt lat="43.34497" lon="-0.52978">
        <ele>251.52</ele>
        <time>2017-02-25T09:55:29Z</time>
      </trkpt>
      <trkpt lat="43.3451" lon="-0.53002">
        <ele>255.85</ele>
        <time>2017-02-25T09:55:44Z</time>
      </trkpt>
      <trkpt lat="43.34513" lon="-0.53005">
        <ele>256.33</ele>
        <time>2017-02-25T09:55:47Z</time>
      </trkpt>
      <trkpt lat="43.34515" lon="-0.53008">
        <ele>255.37</ele>
        <time>2017-02-25T09:55:50Z</time>
      </trkpt>
      <trkpt lat="43.34516" lon="-0.53009">
        <ele>255.37</ele>
        <time>2017-02-25T09:55:51Z</time>
      </trkpt>
      <trkpt lat="43.34531" lon="-0.53033">
        <ele>256.33</ele>
        <time>2017-02-25T09:56:07Z</time>
      </trkpt>
      <trkpt lat="43.34532" lon="-0.53036">
        <ele>257.29</ele>
        <time>2017-02-25T09:56:09Z</time>
      </trkpt>
      <trkpt lat="43.34532" lon="-0.53038">
        <ele>257.77</ele>
        <time>2017-02-25T09:56:10Z</time>
      </trkpt>
      <trkpt lat="43.34546" lon="-0.53074">
        <ele>260.65</ele>
        <time>2017-02-25T09:56:22Z</time>
      </trkpt>
      <trkpt lat="43.34547" lon="-0.5308">
        <ele>260.65</ele>
        <time>2017-02-25T09:56:23Z</time>
      </trkpt>
      <trkpt lat="43.34548" lon="-0.53086">
        <ele>260.65</ele>
        <time>2017-02-25T09:56:24Z</time>
      </trkpt>
      <trkpt lat="43.34548" lon="-0.5309">
        <ele>260.65</ele>
        <time>2017-02-25T09:56:25Z</time>
      </trkpt>
      <trkpt lat="43.34551" lon="-0.53095">
        <ele>259.21</ele>
        <time>2017-02-25T09:56:36Z</time>
      </trkpt>
      <trkpt lat="43.34551" lon="-0.53113">
        <ele>258.25</ele>
        <time>2017-02-25T09:57:00Z</time>
      </trkpt>
      <trkpt lat="43.34552" lon="-0.5312">
        <ele>257.77</ele>
        <time>2017-02-25T09:57:01Z</time>
      </trkpt>
      <trkpt lat="43.3456" lon="-0.53169">
        <ele>254.89</ele>
        <time>2017-02-25T09:57:08Z</time>
      </trkpt>
      <trkpt lat="43.34559" lon="-0.53178">
        <ele>253.93</ele>
        <time>2017-02-25T09:57:09Z</time>
      </trkpt>
      <trkpt lat="43.34559" lon="-0.53188">
        <ele>253.44</ele>
        <time>2017-02-25T09:57:10Z</time>
      </trkpt>
      <trkpt lat="43.34559" lon="-0.53198">
        <ele>252.48</ele>
        <time>2017-02-25T09:57:11Z</time>
      </trkpt>
      <trkpt lat="43.34559" lon="-0.53209">
        <ele>252</ele>
        <time>2017-02-25T09:57:12Z</time>
      </trkpt>
      <trkpt lat="43.34563" lon="-0.53243">
        <ele>249.6</ele>
        <time>2017-02-25T09:57:15Z</time>
      </trkpt>
      <trkpt lat="43.3457" lon="-0.53279">
        <ele>247.2</ele>
        <time>2017-02-25T09:57:19Z</time>
      </trkpt>
      <trkpt lat="43.34572" lon="-0.53295">
        <ele>246.23</ele>
        <time>2017-02-25T09:57:21Z</time>
      </trkpt>
      <trkpt lat="43.34572" lon="-0.53303">
        <ele>245.75</ele>
        <time>2017-02-25T09:57:22Z</time>
      </trkpt>
      <trkpt lat="43.34572" lon="-0.5331">
        <ele>245.27</ele>
        <time>2017-02-25T09:57:23Z</time>
      </trkpt>
      <trkpt lat="43.34575" lon="-0.53335">
        <ele>242.87</ele>
        <time>2017-02-25T09:57:27Z</time>
      </trkpt>
      <trkpt lat="43.34576" lon="-0.53347">
        <ele>241.91</ele>
        <time>2017-02-25T09:57:29Z</time>
      </trkpt>
      <trkpt lat="43.34581" lon="-0.5338">
        <ele>239.51</ele>
        <time>2017-02-25T09:57:33Z</time>
      </trkpt>
      <trkpt lat="43.34581" lon="-0.53399">
        <ele>238.06</ele>
        <time>2017-02-25T09:57:35Z</time>
      </trkpt>
      <trkpt lat="43.34583" lon="-0.53422">
        <ele>236.62</ele>
        <time>2017-02-25T09:57:37Z</time>
      </trkpt>
      <trkpt lat="43.34588" lon="-0.53557">
        <ele>227.01</ele>
        <time>2017-02-25T09:57:47Z</time>
      </trkpt>
      <trkpt lat="43.34571" lon="-0.53641">
        <ele>220.76</ele>
        <time>2017-02-25T09:57:55Z</time>
      </trkpt>
      <trkpt lat="43.34568" lon="-0.53646">
        <ele>216.43</ele>
        <time>2017-02-25T09:58:07Z</time>
      </trkpt>
      <trkpt lat="43.34565" lon="-0.53666">
        <ele>213.55</ele>
        <time>2017-02-25T09:58:20Z</time>
      </trkpt>
      <trkpt lat="43.34535" lon="-0.53759">
        <ele>209.7</ele>
        <time>2017-02-25T09:58:29Z</time>
      </trkpt>
      <trkpt lat="43.34513" lon="-0.53845">
        <ele>204.9</ele>
        <time>2017-02-25T09:58:36Z</time>
      </trkpt>
      <trkpt lat="43.34513" lon="-0.53855">
        <ele>203.94</ele>
        <time>2017-02-25T09:58:37Z</time>
      </trkpt>
      <trkpt lat="43.34514" lon="-0.53866">
        <ele>203.46</ele>
        <time>2017-02-25T09:58:38Z</time>
      </trkpt>
      <trkpt lat="43.34531" lon="-0.53957">
        <ele>194.8</ele>
        <time>2017-02-25T09:58:47Z</time>
      </trkpt>
      <trkpt lat="43.34531" lon="-0.53966">
        <ele>193.84</ele>
        <time>2017-02-25T09:58:48Z</time>
      </trkpt>
      <trkpt lat="43.34531" lon="-0.53975">
        <ele>192.88</ele>
        <time>2017-02-25T09:58:49Z</time>
      </trkpt>
      <trkpt lat="43.3453" lon="-0.53983">
        <ele>192.4</ele>
        <time>2017-02-25T09:58:50Z</time>
      </trkpt>
      <trkpt lat="43.34529" lon="-0.53992">
        <ele>191.44</ele>
        <time>2017-02-25T09:58:51Z</time>
      </trkpt>
      <trkpt lat="43.34528" lon="-0.54">
        <ele>190.48</ele>
        <time>2017-02-25T09:58:52Z</time>
      </trkpt>
      <trkpt lat="43.34521" lon="-0.54091">
        <ele>180.87</ele>
        <time>2017-02-25T09:59:02Z</time>
      </trkpt>
      <trkpt lat="43.34521" lon="-0.54111">
        <ele>176.06</ele>
        <time>2017-02-25T09:59:06Z</time>
      </trkpt>
      <trkpt lat="43.34523" lon="-0.54115">
        <ele>174.62</ele>
        <time>2017-02-25T09:59:07Z</time>
      </trkpt>
      <trkpt lat="43.34526" lon="-0.54119">
        <ele>174.14</ele>
        <time>2017-02-25T09:59:08Z</time>
      </trkpt>
      <trkpt lat="43.34529" lon="-0.54121">
        <ele>173.66</ele>
        <time>2017-02-25T09:59:09Z</time>
      </trkpt>
      <trkpt lat="43.34533" lon="-0.54123">
        <ele>172.69</ele>
        <time>2017-02-25T09:59:10Z</time>
      </trkpt>
      <trkpt lat="43.34537" lon="-0.54126">
        <ele>172.21</ele>
        <time>2017-02-25T09:59:11Z</time>
      </trkpt>
      <trkpt lat="43.34542" lon="-0.54129">
        <ele>171.73</ele>
        <time>2017-02-25T09:59:12Z</time>
      </trkpt>
      <trkpt lat="43.34547" lon="-0.54133">
        <ele>171.25</ele>
        <time>2017-02-25T09:59:13Z</time>
      </trkpt>
      <trkpt lat="43.34572" lon="-0.54155">
        <ele>168.37</ele>
        <time>2017-02-25T09:59:17Z</time>
      </trkpt>
      <trkpt lat="43.34577" lon="-0.54161">
        <ele>167.41</ele>
        <time>2017-02-25T09:59:18Z</time>
      </trkpt>
      <trkpt lat="43.3458" lon="-0.54167">
        <ele>166.93</ele>
        <time>2017-02-25T09:59:19Z</time>
      </trkpt>
      <trkpt lat="43.34581" lon="-0.54172">
        <ele>166.45</ele>
        <time>2017-02-25T09:59:20Z</time>
      </trkpt>
      <trkpt lat="43.3458" lon="-0.54177">
        <ele>165.96</ele>
        <time>2017-02-25T09:59:21Z</time>
      </trkpt>
      <trkpt lat="43.34578" lon="-0.5418">
        <ele>165.48</ele>
        <time>2017-02-25T09:59:22Z</time>
      </trkpt>
      <trkpt lat="43.34575" lon="-0.54184">
        <ele>165</ele>
        <time>2017-02-25T09:59:23Z</time>
      </trkpt>
      <trkpt lat="43.34572" lon="-0.5419">
        <ele>164.52</ele>
        <time>2017-02-25T09:59:24Z</time>
      </trkpt>
      <trkpt lat="43.34564" lon="-0.542">
        <ele>163.56</ele>
        <time>2017-02-25T09:59:26Z</time>
      </trkpt>
      <trkpt lat="43.34561" lon="-0.54206">
        <ele>163.08</ele>
        <time>2017-02-25T09:59:27Z</time>
      </trkpt>
      <trkpt lat="43.3456" lon="-0.54213">
        <ele>162.12</ele>
        <time>2017-02-25T09:59:28Z</time>
      </trkpt>
      <trkpt lat="43.34559" lon="-0.5422">
        <ele>161.64</ele>
        <time>2017-02-25T09:59:29Z</time>
      </trkpt>
      <trkpt lat="43.34559" lon="-0.54228">
        <ele>161.16</ele>
        <time>2017-02-25T09:59:30Z</time>
      </trkpt>
      <trkpt lat="43.34561" lon="-0.54235">
        <ele>160.2</ele>
        <time>2017-02-25T09:59:31Z</time>
      </trkpt>
      <trkpt lat="43.34564" lon="-0.54242">
        <ele>159.72</ele>
        <time>2017-02-25T09:59:32Z</time>
      </trkpt>
      <trkpt lat="43.34568" lon="-0.54246">
        <ele>159.24</ele>
        <time>2017-02-25T09:59:33Z</time>
      </trkpt>
      <trkpt lat="43.34572" lon="-0.54249">
        <ele>159.24</ele>
        <time>2017-02-25T09:59:34Z</time>
      </trkpt>
      <trkpt lat="43.34577" lon="-0.54251">
        <ele>158.75</ele>
        <time>2017-02-25T09:59:35Z</time>
      </trkpt>
      <trkpt lat="43.34583" lon="-0.54253">
        <ele>158.75</ele>
        <time>2017-02-25T09:59:36Z</time>
      </trkpt>
      <trkpt lat="43.34589" lon="-0.54254">
        <ele>158.27</ele>
        <time>2017-02-25T09:59:37Z</time>
      </trkpt>
      <trkpt lat="43.34595" lon="-0.54253">
        <ele>157.79</ele>
        <time>2017-02-25T09:59:38Z</time>
      </trkpt>
      <trkpt lat="43.34601" lon="-0.54253">
        <ele>157.79</ele>
        <time>2017-02-25T09:59:39Z</time>
      </trkpt>
      <trkpt lat="43.34606" lon="-0.54251">
        <ele>157.31</ele>
        <time>2017-02-25T09:59:40Z</time>
      </trkpt>
      <trkpt lat="43.34653" lon="-0.54232">
        <ele>153.95</ele>
        <time>2017-02-25T09:59:49Z</time>
      </trkpt>
      <trkpt lat="43.34675" lon="-0.54222">
        <ele>152.99</ele>
        <time>2017-02-25T09:59:52Z</time>
      </trkpt>
      <trkpt lat="43.34699" lon="-0.54211">
        <ele>150.58</ele>
        <time>2017-02-25T09:59:56Z</time>
      </trkpt>
      <trkpt lat="43.34703" lon="-0.54213">
        <ele>150.1</ele>
        <time>2017-02-25T09:59:57Z</time>
      </trkpt>
      <trkpt lat="43.34706" lon="-0.54217">
        <ele>149.62</ele>
        <time>2017-02-25T09:59:58Z</time>
      </trkpt>
      <trkpt lat="43.34708" lon="-0.54223">
        <ele>148.66</ele>
        <time>2017-02-25T09:59:59Z</time>
      </trkpt>
      <trkpt lat="43.34708" lon="-0.54229">
        <ele>147.7</ele>
        <time>2017-02-25T10:00:00Z</time>
      </trkpt>
      <trkpt lat="43.34708" lon="-0.54235">
        <ele>147.22</ele>
        <time>2017-02-25T10:00:01Z</time>
      </trkpt>
      <trkpt lat="43.34706" lon="-0.54242">
        <ele>146.26</ele>
        <time>2017-02-25T10:00:02Z</time>
      </trkpt>
      <trkpt lat="43.34705" lon="-0.5425">
        <ele>145.3</ele>
        <time>2017-02-25T10:00:03Z</time>
      </trkpt>
      <trkpt lat="43.34696" lon="-0.54291">
        <ele>141.93</ele>
        <time>2017-02-25T10:00:07Z</time>
      </trkpt>
      <trkpt lat="43.34694" lon="-0.54304">
        <ele>140.97</ele>
        <time>2017-02-25T10:00:08Z</time>
      </trkpt>
      <trkpt lat="43.34688" lon="-0.54329">
        <ele>139.05</ele>
        <time>2017-02-25T10:00:10Z</time>
      </trkpt>
      <trkpt lat="43.34673" lon="-0.54377">
        <ele>134.24</ele>
        <time>2017-02-25T10:00:15Z</time>
      </trkpt>
      <trkpt lat="43.34673" lon="-0.54385">
        <ele>133.28</ele>
        <time>2017-02-25T10:00:16Z</time>
      </trkpt>
      <trkpt lat="43.34675" lon="-0.54393">
        <ele>132.8</ele>
        <time>2017-02-25T10:00:17Z</time>
      </trkpt>
      <trkpt lat="43.34679" lon="-0.54407">
        <ele>131.36</ele>
        <time>2017-02-25T10:00:19Z</time>
      </trkpt>
      <trkpt lat="43.34679" lon="-0.54413">
        <ele>130.4</ele>
        <time>2017-02-25T10:00:20Z</time>
      </trkpt>
      <trkpt lat="43.34677" lon="-0.54419">
        <ele>129.43</ele>
        <time>2017-02-25T10:00:21Z</time>
      </trkpt>
      <trkpt lat="43.34675" lon="-0.54424">
        <ele>128.47</ele>
        <time>2017-02-25T10:00:22Z</time>
      </trkpt>
      <trkpt lat="43.34673" lon="-0.5443">
        <ele>127.99</ele>
        <time>2017-02-25T10:00:23Z</time>
      </trkpt>
      <trkpt lat="43.34672" lon="-0.54435">
        <ele>127.03</ele>
        <time>2017-02-25T10:00:24Z</time>
      </trkpt>
      <trkpt lat="43.34671" lon="-0.54441">
        <ele>126.55</ele>
        <time>2017-02-25T10:00:25Z</time>
      </trkpt>
      <trkpt lat="43.3467" lon="-0.54447">
        <ele>126.55</ele>
        <time>2017-02-25T10:00:26Z</time>
      </trkpt>
      <trkpt lat="43.34666" lon="-0.54513">
        <ele>123.19</ele>
        <time>2017-02-25T10:00:38Z</time>
      </trkpt>
      <trkpt lat="43.34663" lon="-0.5453">
        <ele>122.22</ele>
        <time>2017-02-25T10:00:41Z</time>
      </trkpt>
      <trkpt lat="43.34656" lon="-0.54595">
        <ele>116.46</ele>
        <time>2017-02-25T10:00:53Z</time>
      </trkpt>
      <trkpt lat="43.34654" lon="-0.54636">
        <ele>116.94</ele>
        <time>2017-02-25T10:01:00Z</time>
      </trkpt>
      <trkpt lat="43.34654" lon="-0.54643">
        <ele>117.9</ele>
        <time>2017-02-25T10:01:01Z</time>
      </trkpt>
      <trkpt lat="43.34656" lon="-0.54656">
        <ele>119.34</ele>
        <time>2017-02-25T10:01:03Z</time>
      </trkpt>
      <trkpt lat="43.34658" lon="-0.54662">
        <ele>119.82</ele>
        <time>2017-02-25T10:01:04Z</time>
      </trkpt>
      <trkpt lat="43.34662" lon="-0.54667">
        <ele>120.3</ele>
        <time>2017-02-25T10:01:05Z</time>
      </trkpt>
      <trkpt lat="43.34667" lon="-0.54673">
        <ele>120.78</ele>
        <time>2017-02-25T10:01:06Z</time>
      </trkpt>
      <trkpt lat="43.34673" lon="-0.54678">
        <ele>120.78</ele>
        <time>2017-02-25T10:01:07Z</time>
      </trkpt>
      <trkpt lat="43.34702" lon="-0.54704">
        <ele>122.71</ele>
        <time>2017-02-25T10:01:12Z</time>
      </trkpt>
      <trkpt lat="43.3474" lon="-0.54738">
        <ele>127.51</ele>
        <time>2017-02-25T10:01:21Z</time>
      </trkpt>
      <trkpt lat="43.34794" lon="-0.54806">
        <ele>124.63</ele>
        <time>2017-02-25T10:01:33Z</time>
      </trkpt>
      <trkpt lat="43.34841" lon="-0.54876">
        <ele>124.15</ele>
        <time>2017-02-25T10:01:44Z</time>
      </trkpt>
      <trkpt lat="43.34845" lon="-0.5488">
        <ele>124.63</ele>
        <time>2017-02-25T10:01:45Z</time>
      </trkpt>
      <trkpt lat="43.34849" lon="-0.54883">
        <ele>125.11</ele>
        <time>2017-02-25T10:01:46Z</time>
      </trkpt>
      <trkpt lat="43.34853" lon="-0.54886">
        <ele>125.11</ele>
        <time>2017-02-25T10:01:47Z</time>
      </trkpt>
      <trkpt lat="43.34858" lon="-0.54888">
        <ele>125.59</ele>
        <time>2017-02-25T10:01:48Z</time>
      </trkpt>
      <trkpt lat="43.34863" lon="-0.54889">
        <ele>125.59</ele>
        <time>2017-02-25T10:01:49Z</time>
      </trkpt>
      <trkpt lat="43.34868" lon="-0.54889">
        <ele>125.59</ele>
        <time>2017-02-25T10:01:50Z</time>
      </trkpt>
      <trkpt lat="43.34889" lon="-0.54893">
        <ele>125.59</ele>
        <time>2017-02-25T10:01:54Z</time>
      </trkpt>
      <trkpt lat="43.34894" lon="-0.54896">
        <ele>125.59</ele>
        <time>2017-02-25T10:01:55Z</time>
      </trkpt>
      <trkpt lat="43.34898" lon="-0.54897">
        <ele>126.07</ele>
        <time>2017-02-25T10:01:56Z</time>
      </trkpt>
      <trkpt lat="43.3493" lon="-0.54915">
        <ele>126.55</ele>
        <time>2017-02-25T10:02:03Z</time>
      </trkpt>
      <trkpt lat="43.34944" lon="-0.54929">
        <ele>126.55</ele>
        <time>2017-02-25T10:02:06Z</time>
      </trkpt>
      <trkpt lat="43.34948" lon="-0.54935">
        <ele>126.07</ele>
        <time>2017-02-25T10:02:07Z</time>
      </trkpt>
      <trkpt lat="43.3499" lon="-0.55008">
        <ele>124.15</ele>
        <time>2017-02-25T10:02:16Z</time>
      </trkpt>
      <trkpt lat="43.35044" lon="-0.55073">
        <ele>124.63</ele>
        <time>2017-02-25T10:02:27Z</time>
      </trkpt>
      <trkpt lat="43.35049" lon="-0.55076">
        <ele>125.11</ele>
        <time>2017-02-25T10:02:28Z</time>
      </trkpt>
      <trkpt lat="43.35096" lon="-0.551">
        <ele>124.63</ele>
        <time>2017-02-25T10:02:37Z</time>
      </trkpt>
      <trkpt lat="43.35115" lon="-0.55109">
        <ele>125.11</ele>
        <time>2017-02-25T10:02:41Z</time>
      </trkpt>
      <trkpt lat="43.3512" lon="-0.55111">
        <ele>125.59</ele>
        <time>2017-02-25T10:02:42Z</time>
      </trkpt>
      <trkpt lat="43.3515" lon="-0.55125">
        <ele>126.07</ele>
        <time>2017-02-25T10:02:48Z</time>
      </trkpt>
      <trkpt lat="43.35155" lon="-0.55128">
        <ele>126.07</ele>
        <time>2017-02-25T10:02:49Z</time>
      </trkpt>
      <trkpt lat="43.3516" lon="-0.55133">
        <ele>126.07</ele>
        <time>2017-02-25T10:02:50Z</time>
      </trkpt>
      <trkpt lat="43.35165" lon="-0.55137">
        <ele>125.59</ele>
        <time>2017-02-25T10:02:51Z</time>
      </trkpt>
      <trkpt lat="43.35169" lon="-0.55143">
        <ele>125.59</ele>
        <time>2017-02-25T10:02:52Z</time>
      </trkpt>
      <trkpt lat="43.35173" lon="-0.55148">
        <ele>125.59</ele>
        <time>2017-02-25T10:02:53Z</time>
      </trkpt>
      <trkpt lat="43.35176" lon="-0.55155">
        <ele>125.59</ele>
        <time>2017-02-25T10:02:54Z</time>
      </trkpt>
      <trkpt lat="43.35179" lon="-0.55161">
        <ele>125.11</ele>
        <time>2017-02-25T10:02:55Z</time>
      </trkpt>
      <trkpt lat="43.35183" lon="-0.55167">
        <ele>125.11</ele>
        <time>2017-02-25T10:02:56Z</time>
      </trkpt>
      <trkpt lat="43.35215" lon="-0.55226">
        <ele>123.67</ele>
        <time>2017-02-25T10:03:05Z</time>
      </trkpt>
      <trkpt lat="43.35217" lon="-0.55233">
        <ele>123.67</ele>
        <time>2017-02-25T10:03:06Z</time>
      </trkpt>
      <trkpt lat="43.35222" lon="-0.55256">
        <ele>123.19</ele>
        <time>2017-02-25T10:03:09Z</time>
      </trkpt>
      <trkpt lat="43.35223" lon="-0.55264">
        <ele>123.19</ele>
        <time>2017-02-25T10:03:10Z</time>
      </trkpt>
      <trkpt lat="43.35223" lon="-0.55321">
        <ele>121.74</ele>
        <time>2017-02-25T10:03:20Z</time>
      </trkpt>
    </trkseg>
  </trk>
</gpx>